[[{"header":{"parameterUnit":"m.s-1","parameterCategory":1,"la1":30.6,"la2":29.2853,"lo1":-89.7004,"lo2":-87.6739,"dy":0.0162,"dx":0.0183,"nx":112,"ny":82,"refTime":"2023-06-02T12:00:00:Z","depth":0,"parameterNumber":2,"parameterNumberName":"U-component_of_WINDS"},"data":[0.0,0.0,0.0,0.0,0.0,0.0,0.0,0.0,0.0,0.0,0.0,0.0,0.0,0.0,0.0,0.0,0.0,0.0,0.0,0.0,0.0,0.0,0.0,0.0,0.0,0.0,0.0,0.0,0.0,0.0,0.0,0.0,0.0,0.0,0.0,0.0,0.0,0.0,0.0,0.0,0.0,0.0,0.0,0.0,0.0,0.0,0.0,0.0,0.0,0.0,0.0,0.0,0.0,0.0,0.0,0.0,0.0,0.0,0.0,0.0,0.0,0.0,0.0,0.0,0.0,0.0,0.0,0.0,0.0,0.0,0.0,0.0,0.0,0.0,0.0,0.0,0.0,0.0,0.0,0.0,0.0,0.0,0.0,0.0,0.0,0.0,0.0,0.0,0.0,0.0,1.0198,0.3761,-0.4862,-1.1967,-1.6506,-1.7342,-1.4052,-0.5626,0.0,0.0,0.0,0.0,0.0,0.0,0.0,0.0,0.0,0.0,0.0,0.0,0.0,0.0,0.0,0.0,0.0,0.0,0.0,0.0,0.0,0.0,0.0,0.0,0.0,0.0,0.0,0.0,0.0,0.0,0.0,0.0,0.0,0.0,0.0,0.0,0.0,0.0,0.0,0.0,0.0,0.0,0.0,0.0,0.0,0.0,0.0,0.0,0.0,0.0,0.0,0.0,0.0,0.0,0.0,0.0,0.0,0.0,0.0,0.0,0.0,0.0,0.0,0.0,0.0,0.0,0.0,0.0,0.0,0.0,0.0,0.0,0.0,0.0,0.0,0.0,0.0,0.0,0.0,0.0,0.0,0.0,0.0,0.0,0.0,0.0,0.0,0.0,0.0,0.0,0.0,0.0,0.0,0.0,0.0,0.0,0.0,0.0,0.0,0.0,0.0,0.0,0.0,0.0,0.1103,-1.0036,-1.7257,-2.3498,-2.8931,-3.1485,-2.7767,-1.571,0.0,0.0,0.0,0.0,0.0,0.0,0.0,0.0,0.0,0.0,0.0,0.0,0.0,0.0,0.0,0.0,0.0,0.0,0.0,0.0,0.0,0.0,0.0,0.0,0.0,0.0,0.0,0.0,0.0,0.0,0.0,0.0,0.0,0.0,0.0,0.0,0.0,0.0,0.0,0.0,0.0,0.0,0.0,0.0,0.0,0.0,0.0,0.0,0.0,0.0,0.0,0.0,0.0,0.0,0.0,0.0,0.0,0.0,0.0,0.0,0.0,0.0,0.0,0.0,0.0,0.0,0.0,0.0,0.0,0.0,0.0,0.0,0.0,0.0,0.0,0.0,0.0,0.0,0.0,0.0,0.0,0.0,0.0,0.0,0.0,0.0,0.0,0.0,0.0,0.0,0.0,0.0,0.0,0.0,0.0,0.0,0.0,0.0,0.0,0.0,0.0,0.0,0.0,-0.2512,-1.0357,-1.8594,-2.4431,-2.964,-3.4374,-3.6933,-3.4002,-2.3864,-0.9396,0.0,0.0,0.0,0.0,0.0,0.0,0.0,0.0,0.0,0.0,0.0,0.0,0.0,0.0,0.0,0.0,0.0,0.0,0.0,0.0,0.0,0.0,0.0,0.0,0.0,0.0,0.0,0.0,0.0,0.0,0.0,0.0,0.0,0.0,0.0,0.0,0.0,0.0,0.0,0.0,0.0,0.0,0.0,0.0,0.0,0.0,0.0,0.0,0.0,0.0,0.0,0.0,0.0,0.0,0.0,0.0,0.0,0.0,0.0,0.0,0.0,0.0,0.0,0.0,0.0,0.0,0.0,0.0,0.0,0.0,0.0,0.0,0.0,0.0,0.0,0.0,0.0,0.0,0.0,0.0,0.0,0.0,0.0,0.0,0.0,0.0,0.0,0.0,0.0,0.0,0.0,0.0,0.0,0.0,0.0,0.0,0.0,0.0,0.0,0.0,0.0,0.0,-1.2929,-2.0092,-2.5149,-2.9537,-3.3624,-3.747,-3.9021,-3.6892,-3.0094,-1.7874,0.0,0.0,0.0,0.0,0.0,0.0,0.0,0.0,0.0,0.0,0.0,0.0,0.0,0.0,0.0,0.0,0.0,0.0,0.0,0.0,0.0,0.0,0.0,0.0,0.0,0.0,0.0,0.0,0.0,0.0,0.0,0.0,0.0,0.0,0.0,0.0,0.0,0.0,0.0,0.0,0.0,0.0,0.0,0.0,0.0,0.0,0.0,0.0,0.0,0.0,0.0,0.0,0.0,0.0,0.0,0.0,0.0,0.0,0.0,0.0,0.0,0.0,0.0,0.0,0.0,0.0,0.0,0.0,0.0,0.0,0.0,0.0,0.0,0.0,0.0,0.0,0.0,0.0,0.0,0.0,0.0,0.0,0.0,0.0,0.0,0.0,0.0,0.0,0.0,0.0,0.0,0.0,0.0,0.0,0.0,0.0,0.0,0.0,0.0,0.0,0.0,0.0,-1.8566,-2.5065,-3.0473,-3.3433,-3.6319,-3.9592,-3.928,-3.7323,-3.3647,-2.227,0.0,0.0,0.0,0.0,0.0,0.0,0.0,0.0,0.0,0.0,0.0,0.0,0.0,0.0,0.0,0.0,0.0,0.0,0.0,0.0,0.0,0.0,0.0,0.0,0.0,0.0,0.0,0.0,0.0,0.0,0.0,0.0,0.0,0.0,0.0,0.0,0.0,0.0,0.0,0.0,0.0,0.0,0.0,0.0,0.0,0.0,0.0,0.0,0.0,0.0,0.0,0.0,0.0,0.0,0.0,0.0,0.0,0.0,0.0,0.0,0.0,0.0,0.0,0.0,0.0,0.0,0.0,0.0,0.0,0.0,0.0,0.0,0.0,0.0,0.0,0.0,0.0,0.0,0.0,0.0,0.0,0.0,0.0,0.0,0.0,0.0,0.0,0.0,0.0,0.0,0.0,0.0,0.0,0.0,0.0,0.0,0.0,0.0,0.0,0.0,0.0,0.0,-2.2416,-2.8367,-3.2966,-3.5357,-3.7426,-3.9439,-3.9704,-3.8385,-3.511,0.0,0.0,0.0,0.0,0.0,0.0,0.0,0.0,0.0,0.0,0.0,0.0,0.0,0.0,0.0,0.0,0.0,0.0,0.0,0.0,0.0,0.0,0.0,0.0,0.0,0.0,0.0,0.0,0.0,0.0,0.0,0.0,0.0,0.0,0.0,0.0,0.0,0.0,0.0,0.0,0.0,0.0,0.0,0.0,0.0,0.0,0.0,0.0,0.0,0.0,0.0,0.0,0.0,0.0,0.0,0.0,0.0,0.0,0.0,0.0,0.0,0.0,0.0,0.0,0.0,0.0,0.0,0.0,0.0,0.0,0.0,0.0,0.0,0.0,0.0,0.0,0.0,0.0,0.0,0.0,0.0,0.0,0.0,0.0,0.0,0.0,0.0,0.0,0.0,0.0,0.0,0.0,0.0,0.0,0.0,0.0,0.0,0.0,0.0,0.0,0.0,0.0,-1.8992,-2.5064,-3.0315,-3.438,-3.624,-3.776,-3.9102,-3.9237,-3.8333,-3.6091,0.0,0.0,0.0,0.0,0.0,0.0,0.0,0.0,0.0,0.0,0.0,0.0,0.0,0.0,0.0,0.0,0.0,0.0,0.0,0.0,0.0,0.0,0.0,0.0,0.0,0.0,0.0,0.0,0.0,0.0,0.0,0.0,0.0,0.0,0.0,0.0,0.0,0.0,0.0,0.0,0.0,0.0,0.0,0.0,0.0,0.0,0.0,0.0,0.0,0.0,0.0,0.0,0.0,0.0,0.0,0.0,0.0,0.0,0.0,0.0,0.0,0.0,0.0,0.0,0.0,0.0,0.0,0.0,0.0,0.0,0.0,0.0,0.0,0.0,0.0,0.0,0.0,0.0,0.0,0.0,0.0,0.0,0.0,0.0,0.0,0.0,0.0,0.0,0.0,0.0,0.0,0.0,0.0,0.0,0.0,0.0,0.0,0.0,0.0,0.0,0.0,0.0,-2.183,-2.6652,-3.0799,-3.4863,-3.6224,-3.7392,-3.8862,-3.77,-3.6834,0.0,0.0,0.0,0.0,0.0,0.0,0.0,0.0,0.0,0.0,0.0,0.0,0.0,0.0,0.0,0.0,0.0,0.0,0.0,0.0,0.0,0.0,0.0,0.0,0.0,0.0,0.0,0.0,0.0,0.0,0.0,0.0,0.0,0.0,0.0,0.0,0.0,0.0,0.0,0.0,0.0,0.0,0.0,0.0,0.0,0.0,0.0,0.0,0.0,0.0,0.0,0.0,0.0,0.0,0.0,0.0,0.0,0.0,0.0,0.0,0.0,0.0,0.0,0.0,0.0,0.0,0.0,0.0,0.0,0.0,0.0,0.0,0.0,0.0,0.0,0.0,0.0,0.0,0.0,0.0,0.0,0.0,0.0,0.0,0.0,0.0,0.0,0.0,0.0,0.0,0.0,0.0,0.0,0.0,0.0,0.0,0.0,0.0,0.0,0.0,0.0,0.0,0.0,-2.4351,-2.881,-3.2509,-3.5718,-3.688,-3.7709,-3.8324,-3.8104,-3.7574,-3.6679,0.0,0.0,0.0,0.0,0.0,0.0,0.0,0.0,0.0,0.0,0.0,0.0,0.0,0.0,0.0,0.0,0.0,0.0,0.0,0.0,0.0,0.0,0.0,0.0,0.0,0.0,0.0,0.0,0.0,0.0,0.0,0.0,0.0,0.0,0.0,0.0,0.0,0.0,0.0,0.0,0.0,0.0,0.0,0.0,0.0,0.0,0.0,0.0,0.0,0.0,0.0,0.0,0.0,0.0,0.0,0.0,0.0,0.0,0.0,0.0,0.0,0.0,0.0,0.0,0.0,0.0,0.0,0.0,0.0,0.0,0.0,0.0,0.0,0.0,0.0,0.0,0.0,0.0,0.0,0.0,0.0,0.0,0.0,0.0,0.0,0.0,0.0,0.0,0.0,0.0,0.0,0.0,0.0,0.0,0.0,0.0,0.0,0.0,0.0,0.0,0.0,0.0,-2.6397,-3.0357,-3.3352,-3.5651,-3.6784,-3.7448,-3.7638,-3.7831,-3.7572,-3.6711,0.0,0.0,0.0,0.0,0.0,0.0,0.0,0.0,0.0,0.0,0.0,0.0,0.0,0.0,0.0,0.0,0.0,0.0,0.0,0.0,0.0,0.0,0.0,0.0,0.0,0.0,0.0,0.0,0.0,0.0,0.0,0.0,0.0,0.0,0.0,0.0,0.0,0.0,0.0,0.0,0.0,0.0,0.0,0.0,0.0,0.0,0.0,0.0,0.0,0.0,0.0,0.0,0.0,0.0,0.0,0.0,0.0,0.0,0.0,0.0,0.0,0.0,0.0,0.0,0.0,0.0,0.0,0.0,0.0,0.0,0.0,0.0,0.0,0.0,0.0,0.0,0.0,0.0,0.0,0.0,0.0,0.0,0.0,0.0,0.0,0.0,0.0,0.0,0.0,0.0,0.0,0.0,0.0,0.0,0.0,0.0,0.0,0.0,0.0,0.0,0.0,0.0,-2.8243,-3.1411,-3.3659,-3.4958,-3.609,-3.6841,-3.6975,-3.7128,-3.7108,-3.6857,0.0,0.0,0.0,0.0,0.0,0.0,0.0,0.0,0.0,0.0,0.0,0.0,0.0,0.0,0.0,0.0,0.0,0.0,0.0,0.0,0.0,0.0,0.0,0.0,0.0,0.0,0.0,0.0,0.0,0.0,0.0,0.0,0.0,0.0,0.0,0.0,0.0,0.0,0.0,0.0,0.0,0.0,0.0,0.0,0.0,0.0,0.0,0.0,0.0,0.0,0.0,0.0,0.0,0.0,0.0,0.0,0.0,0.0,0.0,0.0,-4.2275,0.0,0.0,0.0,0.0,0.0,0.0,0.0,0.0,0.0,0.0,0.0,0.0,0.0,0.0,0.0,0.0,0.0,0.0,0.0,0.0,0.0,0.0,0.0,0.0,0.0,0.0,0.0,0.0,0.0,0.0,0.0,0.0,0.0,0.0,0.0,0.0,0.0,0.0,0.0,0.0,0.0,-3.0791,-3.2768,-3.4128,-3.5022,-3.5596,-3.6253,-3.6936,-3.7162,-3.7265,-3.7182,-3.529,0.0,0.0,0.0,0.0,0.0,0.0,0.0,0.0,0.0,0.0,0.0,0.0,0.0,0.0,0.0,0.0,0.0,0.0,0.0,0.0,0.0,0.0,0.0,0.0,0.0,0.0,0.0,0.0,0.0,0.0,0.0,0.0,0.0,0.0,0.0,0.0,0.0,0.0,0.0,0.0,0.0,0.0,0.0,0.0,0.0,0.0,0.0,0.0,0.0,0.0,0.0,0.0,0.0,0.0,0.0,0.0,0.0,0.0,0.0,0.0,-4.3397,0.0,0.0,0.0,0.0,0.0,0.0,0.0,0.0,0.0,0.0,0.0,0.0,0.0,0.0,0.0,0.0,0.0,0.0,0.0,0.0,0.0,0.0,0.0,0.0,0.0,0.0,0.0,0.0,0.0,0.0,0.0,0.0,0.0,0.0,0.0,0.0,0.0,0.0,0.0,0.0,-3.2133,-3.3655,-3.4699,-3.5051,-3.5801,-3.6301,-3.6384,-3.7269,-3.7496,-3.6719,-3.6083,0.0,0.0,0.0,0.0,0.0,0.0,0.0,0.0,0.0,0.0,0.0,0.0,0.0,0.0,0.0,0.0,0.0,0.0,0.0,0.0,0.0,0.0,0.0,0.0,0.0,0.0,0.0,0.0,0.0,0.0,0.0,0.0,0.0,0.0,0.0,0.0,0.0,0.0,0.0,0.0,0.0,0.0,0.0,0.0,0.0,0.0,0.0,0.0,0.0,0.0,0.0,0.0,0.0,-4.375,-4.4141,-4.4141,-4.4141,-4.4531,-4.5234,-4.5234,-4.4726,-4.3906,-4.3698,0.0,0.0,0.0,0.0,0.0,0.0,0.0,0.0,0.0,0.0,0.0,0.0,0.0,0.0,0.0,0.0,0.0,0.0,0.0,0.0,0.0,0.0,0.0,0.0,-4.1008,-4.1197,0.0,0.0,0.0,0.0,0.0,0.0,0.0,0.0,0.0,0.0,0.0,0.0,-3.321,-3.4358,-3.5141,-3.5174,-3.6048,-3.6473,-3.5949,-3.7318,-3.7678,-3.6523,-3.6836,-3.6483,0.0,0.0,0.0,0.0,0.0,0.0,0.0,0.0,0.0,0.0,0.0,0.0,0.0,0.0,0.0,0.0,0.0,0.0,0.0,0.0,0.0,0.0,0.0,0.0,0.0,0.0,0.0,0.0,0.0,0.0,0.0,0.0,-3.9425,-4.0434,0.0,0.0,0.0,0.0,0.0,0.0,0.0,0.0,0.0,0.0,0.0,0.0,0.0,-4.2148,-4.2226,-4.3867,-4.4648,-4.4687,-4.5547,-4.5976,-4.5976,-4.5976,-4.6016,-4.6133,-4.6133,0.0,-4.4766,-4.3984,0.0,0.0,0.0,0.0,0.0,0.0,0.0,0.0,0.0,0.0,0.0,0.0,0.0,0.0,0.0,0.0,0.0,0.0,0.0,0.0,0.0,0.0,-4.1611,-4.0976,-4.1573,-4.1741,0.0,-3.9569,-3.9213,-3.7908,-3.6372,0.0,0.0,0.0,0.0,0.0,0.0,0.0,-3.5078,-3.513,-3.519,-3.5412,-3.5647,-3.6076,-3.6774,-3.7162,-3.7639,-3.8203,-3.6953,-3.6406,-3.6914,-3.4101,0.0,0.0,0.0,0.0,0.0,0.0,0.0,0.0,0.0,0.0,0.0,0.0,0.0,0.0,0.0,0.0,0.0,0.0,0.0,0.0,0.0,0.0,0.0,0.0,0.0,0.0,0.0,0.0,0.0,-3.8606,-4.1047,-4.0863,-4.1189,-4.0854,0.0,0.0,0.0,0.0,0.0,0.0,0.0,0.0,0.0,-4.3984,-4.4414,-4.5078,-4.6055,-4.6797,-4.7187,-4.7187,-4.707,-4.7031,-4.6992,-4.6523,-4.6289,-4.6289,-4.6289,-4.6094,-4.5664,-4.4805,-4.4219,-4.3672,0.0,0.0,0.0,0.0,-4.0385,-4.077,-4.1261,-4.139,0.0,-4.0876,0.0,0.0,0.0,0.0,0.0,0.0,0.0,0.0,0.0,0.0,-4.1374,-4.1652,-4.2348,-4.2744,-4.2146,-4.1562,-4.0621,0.0,-3.8472,-3.8026,-3.6344,0.0,0.0,0.0,0.0,-3.5223,-3.5479,-3.5383,-3.5369,-3.5493,-3.5534,-3.5958,-3.6929,-3.7481,-3.7812,-3.7851,-3.7617,-3.7187,-3.6601,-3.5117,-3.3979,0.0,0.0,0.0,0.0,0.0,0.0,0.0,0.0,0.0,0.0,0.0,0.0,0.0,0.0,0.0,0.0,0.0,0.0,0.0,0.0,0.0,0.0,0.0,0.0,0.0,0.0,0.0,0.0,-4.0584,-4.2602,-4.1676,-4.3063,-4.3085,0.0,0.0,0.0,0.0,0.0,0.0,-4.3384,-4.3533,-4.4624,-4.6875,-4.6953,-4.7695,-4.9219,-4.9023,-4.8906,-4.8906,-4.8008,-4.7461,-4.7266,-4.6601,-4.6289,-4.6289,-4.6289,-4.6289,-4.6211,-4.5351,-4.5,-4.4844,-4.3273,-4.2559,-4.2338,-4.1636,-4.1699,-4.214,-4.2251,-4.2137,-4.1893,-4.1524,0.0,-3.8595,-3.7668,0.0,0.0,0.0,0.0,-3.8191,-3.9663,-4.0514,-4.1207,-4.2046,-4.2663,-4.3052,-4.3043,-4.2383,-4.1283,0.0,-3.9785,-3.9565,-3.7384,0.0,0.0,0.0,0.0,-3.5493,-3.5493,-3.5493,-3.5493,-3.5493,-3.5493,-3.5828,-3.6573,-3.724,-3.7537,-3.7255,-3.7652,-3.742,-3.6365,-3.5896,-3.5039,-3.3697,0.0,0.0,0.0,0.0,0.0,0.0,0.0,0.0,0.0,0.0,0.0,0.0,0.0,0.0,0.0,0.0,0.0,0.0,0.0,0.0,0.0,0.0,0.0,0.0,0.0,0.0,0.0,0.0,0.0,-4.3738,-4.5457,0.0,0.0,0.0,0.0,-4.3156,-4.464,-4.5997,-4.7072,-4.7123,-4.7627,-4.8711,-4.8789,-4.9219,-5.0117,-4.9297,-4.8906,-4.8906,-4.8008,-4.7187,-4.6367,-4.6328,-4.6289,-4.6289,-4.6289,-4.6289,-4.6211,-4.5351,-4.5,-4.4922,-4.3984,-4.3525,-4.3311,-4.3264,-4.3168,-4.3047,-4.3063,-4.2486,-4.1947,-4.2733,-4.1622,-3.9871,-3.8956,-3.7737,0.0,0.0,-3.8571,-3.8871,-4.1102,-4.1716,-4.1808,-4.2053,-4.2135,-4.1993,-4.1442,-4.0625,-4.0384,0.0,-4.0018,-3.8322,-3.8001,0.0,-3.5545,-3.5507,-3.5493,-3.5493,-3.5493,-3.5493,-3.5493,-3.5493,-3.5493,-3.5534,-3.5669,-3.5788,-3.6158,-3.695,-3.6387,-3.6375,-3.7116,-3.5552,-3.4673,-3.4648,-3.2916,0.0,0.0,0.0,0.0,0.0,0.0,0.0,0.0,0.0,0.0,0.0,0.0,0.0,0.0,0.0,0.0,0.0,0.0,0.0,0.0,0.0,0.0,0.0,0.0,0.0,0.0,0.0,0.0,-4.4794,-4.6954,0.0,-4.574,-4.6278,-4.6689,-4.6539,-4.8186,-4.941,-4.9892,-4.9938,-5.0153,-5.0508,-5.0508,-5.0664,-5.0976,-5.0156,-4.9726,-4.9726,-4.8281,-4.7422,-4.7109,-4.6562,-4.6289,-4.6289,-4.6289,-4.6289,-4.6289,-4.5976,-4.5859,-4.582,-4.5508,-4.526,-4.5111,-4.5048,-4.4566,-4.4081,-4.452,-4.3431,-4.1662,-4.0893,-4.0015,-3.9223,-3.888,-3.8315,-3.8018,-3.9277,-3.9565,-3.9737,-4.0713,-4.1022,-4.0977,-4.0576,-4.0507,-4.0379,-3.9686,-3.9215,-3.9071,-3.9565,-3.8921,-3.808,-3.7307,-3.6661,-3.6122,-3.5584,-3.5493,-3.5315,-3.4737,-3.5161,-3.5276,-3.4737,-3.5161,-3.5958,-3.7179,-3.6765,-3.6892,-3.7859,-3.7108,-3.6547,-3.644,-3.5798,-3.4912,-3.3818,-3.3183,-3.228,0.0,0.0,0.0,0.0,0.0,0.0,0.0,0.0,0.0,0.0,0.0,0.0,0.0,0.0,0.0,0.0,0.0,0.0,0.0,0.0,0.0,0.0,0.0,0.0,0.0,-4.4585,-4.6844,-4.5819,-4.8375,-4.9586,-4.7894,-4.9009,-4.977,-4.9678,-5.1083,-5.1869,-5.1765,-5.1792,-5.1719,-5.1406,-5.1133,-5.1016,-5.1016,-5.0156,-4.9609,-4.9297,-4.8164,-4.7461,-4.7148,-4.6562,-4.6289,-4.6289,-4.6289,-4.6289,-4.6289,-4.6289,-4.6289,-4.6289,-4.6247,-4.6147,-4.6008,-4.59,-4.5452,-4.4853,-4.479,-4.347,-4.1585,-4.0162,-3.9478,-3.9223,-3.9223,-3.9005,-3.8946,-3.985,-4.012,-4.0157,-4.05,-4.0617,-4.0516,-3.9816,-3.9633,-3.9479,-3.875,-3.8266,-3.7898,-3.7884,-3.7841,-3.7599,-3.6832,-3.6469,-3.6122,-3.5584,-3.5493,-3.5276,-3.4699,-3.4891,-3.4968,-3.4661,-3.4891,-3.5676,-3.715,-3.6784,-3.6759,-3.7391,-3.6638,-3.6099,-3.5971,-3.5633,-3.5027,-3.4192,-3.3604,-3.26,-3.113,0.0,0.0,0.0,0.0,0.0,0.0,0.0,0.0,0.0,0.0,0.0,0.0,0.0,0.0,0.0,0.0,0.0,0.0,0.0,0.0,0.0,0.0,0.0,-4.3316,-4.5109,-4.656,-4.7011,-4.9933,-5.1279,-4.9702,-5.1779,-5.2988,-5.2407,-5.3156,-5.333,-5.2773,-5.2695,-5.2305,-5.1406,-5.0625,-5.0195,-5.0156,-4.9297,-4.8437,-4.7617,-4.7578,-4.7109,-4.6289,-4.6289,-4.6289,-4.6289,-4.6289,-4.6289,-4.6289,-4.6289,-4.6289,-4.6289,-4.615,-4.6014,-4.5918,-4.5813,-4.5679,-4.5295,-4.3585,-4.247,-4.1662,-4.0777,-4.0321,-4.012,-4.012,-3.9861,-3.9709,-4.0022,-4.0101,-4.0194,-4.0604,-4.0703,-4.0509,-3.9814,-3.9598,-3.9336,-3.8672,-3.7695,-3.6975,-3.6975,-3.6889,-3.6798,-3.6689,-3.6007,-3.5493,-3.5493,-3.5493,0.0,-3.5455,-3.4737,-3.4545,-3.5391,-3.4737,-3.4584,-3.5468,-3.5631,-3.5679,-3.5601,-3.4894,-3.4904,-3.5822,-3.4954,-3.4892,-3.5747,-3.4105,-3.2845,-3.197,0.0,0.0,0.0,0.0,0.0,0.0,0.0,0.0,0.0,0.0,0.0,0.0,0.0,0.0,0.0,0.0,0.0,0.0,0.0,0.0,0.0,-4.1997,-4.3915,-4.4516,-4.6633,-4.87,-5.0317,-5.1356,-5.2241,-5.301,-5.3164,-5.3451,-5.4157,-5.3818,-5.3611,-5.3633,-5.3047,-5.2031,-5.0586,-5.0312,-4.9883,-4.9258,-4.8398,-4.7851,-4.7578,-4.6953,-4.6523,-4.6289,-4.6289,-4.6247,-4.615,-4.6248,-4.6247,-4.615,-4.6248,-4.6289,-4.6289,-4.6248,-4.6204,-4.6114,-4.5357,-4.4579,-4.3617,-4.184,-4.147,-4.1662,-4.0777,-4.0321,-4.0158,-4.0339,-4.0176,-4.0022,-4.0321,-4.0389,-4.0406,-4.053,-4.0227,-3.9668,-3.8761,-3.8201,-3.7594,-3.6699,-3.6215,-3.5999,-3.5999,-3.5433,-3.5111,-3.5738,-3.5661,-3.5493,-3.5493,-3.5339,0.0,-3.4609,-3.4726,-3.4772,-3.457,-3.493,-3.5468,-3.6315,-3.5856,-3.5554,-3.5581,-3.4765,-3.4495,-3.4931,-3.4057,-3.3402,-3.3099,-3.2589,-3.1934,0.0,0.0,0.0,0.0,0.0,0.0,0.0,0.0,0.0,0.0,0.0,0.0,0.0,0.0,0.0,0.0,0.0,0.0,0.0,0.0,0.0,0.0,-4.3998,-4.5674,-4.6598,-4.8098,-4.9885,-5.1928,-5.1858,-5.2269,-5.3797,-5.351,-5.3492,-5.422,-5.3805,-5.3439,-5.3284,-5.2524,-5.1476,-5.0148,-4.9406,-4.8782,-4.8274,-4.7361,-4.6885,-4.6885,-4.6374,-4.614,-4.614,-4.614,-4.6084,0.0,-4.6089,-4.6136,-4.6093,-4.6195,-4.6247,0.0,0.0,0.0,0.0,0.0,-4.3831,-4.2525,-4.1431,-4.1123,-4.1162,-4.0662,-4.0389,-4.0321,-4.053,-4.0477,-4.0377,-4.0578,-4.0384,-4.0126,-4.0156,-3.9607,-3.8822,-3.7922,-3.7402,-3.6839,-3.5885,-3.564,-3.5477,-3.5116,-3.4581,0.0,-3.4295,-3.428,-3.451,-3.5224,-3.4492,-3.4027,-3.4356,-3.4203,-3.4181,-3.4534,-3.4812,-3.5276,-3.6122,-3.5457,0.0,0.0,0.0,-3.3295,-3.3457,-3.3685,0.0,0.0,0.0,-3.1775,-3.1319,0.0,0.0,0.0,-3.1549,-3.1776,0.0,0.0,0.0,0.0,0.0,0.0,0.0,0.0,0.0,0.0,0.0,0.0,0.0,0.0,0.0,0.0,-4.6397,-4.7979,-4.8996,-4.9565,-5.0449,-5.222,-5.1764,-5.1759,-5.3025,-5.3067,-5.3167,-5.3367,-5.3228,-5.2887,-5.2339,0.0,0.0,0.0,0.0,-4.7328,-4.7211,-4.6356,-4.5879,-4.5879,-4.5879,-4.5879,-4.5879,-4.5879,-4.5909,-4.59,-4.5918,-4.5967,-4.6069,-4.6075,-4.6111,-4.6133,-4.6117,-4.598,-4.5694,-4.4725,-4.3323,-4.1853,-4.1701,0.0,0.0,-4.0469,-4.0446,-4.0391,-4.0539,-4.0548,-4.0555,-4.0516,-3.9996,-3.9466,-3.9511,-3.8854,-3.7968,-3.7315,-3.6929,-3.6561,-3.5834,-3.5472,-3.5097,-3.4356,-3.4031,-3.3566,-3.2714,-3.2584,-3.308,-3.4556,-3.3278,-3.2694,-3.4222,-3.3408,-3.3255,-3.4666,0.0,0.0,-3.5161,-3.4565,-3.41,-3.4022,-3.2628,-3.1802,-3.176,-3.3515,-3.4049,-3.3125,-3.2372,-3.1981,-3.1875,-3.0999,-3.0486,-3.0335,-3.0931,-3.1592,0.0,0.0,0.0,0.0,0.0,0.0,0.0,0.0,0.0,0.0,0.0,0.0,0.0,0.0,0.0,-4.576,-4.8669,-5.0636,-5.0819,-5.0994,-5.1078,-5.1139,-5.1254,-5.1686,-5.2638,-5.2384,-5.2511,-5.3329,-5.2143,-5.1632,-5.2261,-5.0888,-4.9698,-4.8833,-4.779,-4.6894,-4.6185,-4.6013,-4.5879,-4.5879,0.0,0.0,-4.5879,-4.5879,-4.5862,-4.584,-4.5872,-4.5881,-4.5847,-4.5918,-4.5618,-4.5171,-4.5937,-4.5389,-4.4135,-4.3753,-4.2507,-4.1024,-4.0819,-4.02,-3.9623,-4.0277,-4.0086,-3.9623,-3.9635,-3.9723,0.0,-3.8968,-3.8657,-3.8525,-3.841,-3.7836,-3.7187,-3.6889,-3.6293,-3.5803,-3.5584,-3.4798,-3.4091,-3.3929,-3.2667,-3.1779,-3.2199,-3.245,-3.2651,-3.2747,-3.2277,-3.2064,-3.2619,-3.3015,-3.32,-3.3102,-3.3758,-3.3968,-3.3468,-3.3262,-3.2902,-3.2247,-3.1995,-3.1586,-3.0898,-3.2647,-3.2929,-3.1406,-3.1793,-3.1356,-3.0025,-2.9788,-2.9252,-2.8504,-2.9287,-2.973,0.0,0.0,0.0,0.0,0.0,0.0,0.0,0.0,0.0,0.0,0.0,-3.8116,-4.0847,0.0,-4.5767,-4.8743,-5.0318,-5.1109,-5.1044,-5.0712,-5.0489,-5.045,-5.0214,-5.043,-5.1269,-5.1132,-5.1121,-5.1387,-5.0615,-5.0162,-5.0206,-4.9045,-4.8188,-4.7761,-4.6957,-4.6297,-4.5859,-4.5789,-4.5738,-4.5738,-4.5738,-4.5738,-4.5738,-4.5738,-4.5736,-4.5688,-4.5736,-4.5777,-4.5751,-4.5444,-4.5085,-4.4801,-4.4906,-4.4176,-4.3046,-4.288,-4.1993,-4.0719,-4.0164,-3.9689,-3.9328,-3.9289,-3.9093,-3.8869,-3.8883,-3.8935,-3.894,-3.8545,-3.8099,-3.7723,-3.7655,-3.6977,-3.6279,-3.6153,-3.5742,-3.521,-3.474,-3.411,-3.3349,-3.2552,-3.1631,-3.0959,-3.081,-3.0922,-3.1223,-3.1899,-3.107,-3.0754,-3.1688,-3.1911,-3.209,-3.2365,-3.2997,-3.3273,-3.2929,-3.2545,-3.1775,-3.0467,-3.0914,-3.0613,-2.9363,-3.0668,-3.0811,-2.9511,-2.9899,-2.9656,-2.8782,-2.8713,-2.8449,-2.8008,-2.7911,-2.8178,0.0,0.0,0.0,0.0,0.0,0.0,0.0,-3.1531,-3.2889,-3.5249,-3.738,-4.0036,-4.3815,-4.5975,-4.8181,-5.1289,-5.1334,-5.0986,-5.0839,-5.0105,-4.9562,-4.9525,-4.9145,-4.9171,-4.9781,-4.9847,-4.9671,-4.9296,-4.9221,-4.8856,-4.8125,-4.7394,-4.6984,-4.6984,-4.6187,-4.5761,-4.5761,-4.5648,-4.5586,-4.5586,-4.5586,-4.5586,-4.5586,-4.5586,-4.5586,-4.5586,-4.5432,-4.5417,-4.544,-4.4704,-4.4362,-4.4197,-4.3591,-4.2878,-4.2187,-4.2282,-4.1685,-4.0719,-3.9947,-3.9458,-3.9099,-3.8567,-3.8257,-3.8085,-3.8146,-3.8167,-3.8185,-3.8086,-3.7528,-3.6953,-3.6894,-3.6246,-3.5542,-3.5295,-3.5028,-3.459,-3.3696,-3.3164,-3.2448,-3.1167,-3.0735,-3.0339,-2.9465,-2.9312,-2.9758,-3.1043,-2.9968,-2.9475,-3.076,-3.0732,-3.0859,-3.1581,-3.2096,-3.2278,-3.2186,-3.1429,-3.0352,-2.8967,-2.9583,-2.9411,-2.8047,-2.8788,-2.8863,-2.8116,-2.8147,-2.8065,-2.7823,-2.7768,-2.7628,-2.7473,-2.6651,-2.6824,-2.316,-2.3236,-2.4241,-2.7849,-2.9036,-3.0363,0.0,-3.5398,-3.5907,-3.8758,-4.1066,-4.3228,-4.5026,-4.7682,-4.9908,-5.0868,-5.1508,-5.165,-5.0912,-5.0105,-4.9079,-4.761,-4.8303,-4.8911,-4.9011,-4.8964,-4.8929,-4.8876,-4.8488,-4.8202,-4.8125,-4.7335,-4.6929,-4.6929,-4.6082,-4.5637,-4.5637,-4.5603,-4.5586,-4.5586,-4.5586,-4.5586,-4.5586,-4.5586,-4.5586,-4.5547,-4.4778,-4.4449,-4.4405,-4.3647,-4.2985,-4.2393,-4.2437,-4.1978,-4.1406,-4.2048,-4.1753,-4.0959,-4.0719,-3.9677,-3.8548,-3.9202,-3.8488,-3.7301,-3.7262,-3.7329,-3.7266,-3.6428,-3.6141,-3.5997,-3.5849,-3.5689,-3.5334,-3.4242,-3.3968,-3.3658,-3.2596,-3.1618,-3.0856,-3.0669,-2.9901,-2.92,-2.9081,-2.9044,-2.9118,-2.9301,-2.9108,-2.9049,-2.9255,-3.0064,-3.0367,-2.977,-3.0743,-3.0939,-2.961,-2.8775,-2.8236,-2.8044,-2.8182,-2.821,-2.8008,-2.8163,-2.8203,-2.8116,-2.8049,-2.7658,-2.6844,-2.6794,-2.6371,-2.5601,-2.5313,-2.5772,-2.4807,-2.5703,-2.6839,-2.9096,-3.0658,-3.2309,-3.5234,-3.5718,-3.6318,-3.9186,-4.0896,-4.2707,-4.5563,-4.7472,-4.9273,-5.1285,-5.1483,-5.1231,-5.0872,-5.0105,-4.8967,-4.7315,-4.7574,-4.7787,-4.7537,-4.7507,-4.7353,-4.7074,-4.7045,-4.6873,-4.6375,-4.6205,-4.6052,-4.5878,-4.5475,-4.5222,-4.5011,-4.5011,-4.5011,-4.5011,-4.5011,-4.5099,-4.5303,-4.5303,-4.5151,-4.4816,-4.447,-4.4047,-4.3547,-4.2718,-4.2241,-4.2004,-4.1583,-4.1276,-4.1123,-4.1522,-4.139,-4.0855,-3.978,-3.8945,-3.8244,-3.7653,-3.7035,-3.648,-3.6406,-3.6441,-3.6389,-3.5909,-3.5781,-3.5601,-3.5001,-3.4697,-3.4299,-3.3333,-3.2859,-3.2373,-3.1466,-3.0809,-3.0235,-2.9754,-2.931,-2.8975,-2.8975,-2.8975,-2.8975,-2.8975,-2.8975,-2.8975,-2.8975,-2.9406,-2.9413,-2.8703,-2.9245,-2.9292,-2.83,-2.7929,-2.7581,-2.7159,-2.7181,-2.6978,-2.6437,-2.6474,-2.6501,-2.6482,-2.649,-2.6241,-2.5726,-2.5691,-2.5459,-2.5019,-2.4917,-2.5146,-2.5118,-2.6807,-2.84,-2.9914,-3.1895,-3.3747,-3.4794,-3.54,-3.6375,-3.8622,-3.9972,-4.1746,-4.4764,-4.6387,-4.8083,-5.0453,-5.0712,-5.0552,-5.0514,-4.9768,-4.8636,-4.6985,-4.6581,-4.6248,-4.5737,-4.5978,-4.5985,-4.5641,-4.5761,-4.5574,-4.5004,-4.5201,-4.5222,-4.4966,-4.4966,-4.4849,-4.4624,-4.4599,-4.4599,-4.4599,-4.4599,-4.4575,-4.4585,-4.4357,-4.4243,-4.4133,-4.3691,-4.3188,-4.2662,-4.1816,-4.1514,-4.1594,-4.1005,-4.0857,-4.1019,-4.1125,-4.1093,-4.0879,-3.9591,-3.8849,-3.8261,-3.6983,-3.6328,-3.5971,-3.5857,-3.5841,-3.5831,-3.5709,-3.562,-3.5416,-3.472,-3.4323,-3.3865,-3.2683,-3.2071,-3.148,-3.0228,-2.9922,-2.9672,-2.8991,-2.8821,-2.8821,-2.8821,-2.8821,-2.8797,-2.87,-2.8881,-2.8975,-2.8975,-2.8815,-2.8522,-2.8145,-2.7864,-2.756,-2.72,-2.6947,-2.6619,-2.6117,-2.6124,-2.5877,-2.5252,-2.5301,-2.5309,-2.5214,-2.5274,-2.5178,-2.4956,-2.4956,-2.4891,-2.4804,-2.4648,-2.4601,-2.4594,-2.6534,-2.8691,-3.0526,-3.2731,-3.4322,-3.3775,-3.5102,-3.6663,-3.7211,-3.9168,-4.1064,-4.2078,-4.4616,-4.6801,-4.7607,-4.8886,-4.9812,-4.9731,-4.8935,-4.7755,-4.614,-4.5259,-4.4452,-4.3679,-4.4564,-4.5227,-4.5227,-4.4862,-4.4624,-4.4624,-4.4624,-4.465,-4.4624,-4.4624,-4.4624,-4.4599,-4.4599,-4.4599,-4.4599,-4.4599,-4.4171,-4.3328,-4.2535,-4.2777,-4.3743,-4.2123,-4.157,-4.1777,-4.0893,-4.0626,-4.0742,-4.0703,-4.0827,-4.1016,-4.1016,-4.1082,-4.1172,-4.1133,-4.0,-3.8555,-3.838,-3.7234,-3.5896,-3.5755,-3.573,-3.5709,-3.5631,-3.5591,-3.5527,-3.5178,-3.5047,-3.4524,-3.2343,-3.1821,-3.1184,-2.8941,-2.8785,-2.8905,-2.8515,-2.8402,-2.8402,-2.8402,-2.8402,-2.8298,-2.7982,-2.8551,-2.8975,-2.8975,-2.8338,-2.7917,-2.807,-2.6711,-2.5867,-2.6035,-2.5347,-2.4894,-2.4856,-2.4981,-2.503,-2.4991,-2.5203,-2.5214,-2.5003,-2.5003,-2.4956,-2.4804,-2.4804,-2.4804,-2.479,-2.4262,-2.4007,-2.4362,-2.7249,-3.0201,-3.0497,-3.1944,-3.3281,-3.3529,-3.4084,-3.4783,-3.5353,-3.5856,-3.6722,-3.8616,-4.0219,-4.2396,-4.5781,-4.7038,-4.8067,-4.9607,-4.8697,-4.7259,-4.5645,-4.4785,-4.394,-4.3066,-4.3646,-4.4066,-4.4066,-4.4153,-4.4204,-4.4204,-4.4428,-4.4455,-4.4204,-4.4204,-4.3863,-4.307,-4.359,-4.359,-4.307,-4.3303,-4.3259,-4.296,-4.2372,-4.2132,-4.2103,-4.1531,-4.0881,-4.0123,-3.9815,-3.9398,-3.8929,-3.9004,-3.9073,-3.9155,-3.9182,-3.9613,-4.014,-4.021,-3.9437,-3.8378,-3.7698,-3.6696,-3.5749,-3.5655,-3.562,-3.5573,-3.5353,-3.5254,-3.5078,-3.4187,-3.343,-3.2535,-3.0969,-3.005,-2.9246,-2.8273,-2.8174,-2.8228,-2.812,-2.8093,-2.8093,-2.8093,-2.8093,-2.8037,-2.7926,-2.812,-2.8258,-2.8219,-2.7716,-2.7132,-2.6368,-2.5834,-2.5375,-2.5024,-2.4741,-2.4654,-2.479,-2.4823,-2.485,-2.485,-2.4955,-2.4955,-2.4864,-2.485,-2.467,-2.4262,-2.4262,-2.41,-2.3712,-2.3254,-2.307,-2.4691,-2.7507,-3.0269,-3.0618,-3.1387,-3.1974,-3.1713,-3.1889,-3.2192,-3.2648,-3.2556,-3.3028,-3.5339,-3.6585,-3.8626,-4.2545,-4.4347,-4.6007,-4.8067,-4.7435,-4.6307,-4.4951,-4.4102,-4.3444,-4.276,-4.3032,-4.3286,-4.3497,-4.3693,-4.3818,-4.3818,-4.4065,-4.4095,-4.3818,-4.3558,-4.3061,-4.2323,-4.28,-4.2947,-4.2727,-4.2063,-4.2069,-4.2588,-4.1437,-4.0904,-4.0927,-4.0624,-3.9964,-3.9128,-3.9128,-3.8677,-3.8022,-3.8106,-3.8152,-3.8218,-3.8266,-3.8626,-3.913,-3.9179,-3.8844,-3.8205,-3.7257,-3.637,-3.5646,-3.5599,-3.5507,-3.538,-3.5168,-3.5016,-3.4718,-3.373,-3.2947,-3.2046,-3.0436,-2.9566,-2.879,-2.7888,-2.7811,-2.7869,-2.7725,-2.7695,-2.7695,-2.7695,-2.7577,-2.7472,-2.748,-2.7245,-2.7183,-2.7429,-2.6718,-2.5937,-2.5309,-2.4844,-2.4547,-2.4412,-2.4155,-2.4211,-2.4559,-2.4538,-2.4586,-2.4685,-2.4663,-2.4579,-2.4516,-2.4398,-2.4045,-2.3509,-2.3509,-2.3231,-2.2718,-2.2348,-2.2187,-2.5394,-2.7303,-2.9029,-3.0645,-3.0813,-3.011,-2.8251,-2.8343,-2.8895,-2.9018,-2.9124,-2.983,-3.1973,-3.3577,-3.5533,-3.8116,-4.118,-4.3776,-4.532,-4.5439,-4.4975,-4.4163,-4.3341,-4.2782,-4.2609,-4.2616,-4.2808,-4.3356,0.0,-4.3497,-4.3497,-4.3497,-4.3461,-4.3389,-4.2656,-4.2216,-4.2109,-4.2142,-4.2546,-4.3279,-4.1001,-4.0708,-4.2103,-3.9753,-3.9268,-4.017,-3.9378,-3.8912,-3.8709,-3.8671,-3.832,-3.7824,-3.7839,-3.7912,-3.8031,-3.807,-3.8122,-3.8174,-3.8135,-3.8174,-3.8082,-3.7191,-3.6278,-3.5538,-3.5495,-3.527,-3.5069,-3.5051,-3.487,-3.447,-3.3744,-3.3523,-3.2931,-3.067,-3.0132,-2.9585,-2.7678,-2.7577,-2.7725,-2.7365,-2.7272,-2.7238,-2.7203,-2.692,-2.6646,-2.6662,-2.6001,-2.5788,-2.6568,-2.5339,-2.4479,-2.4784,-2.3838,-2.3477,-2.4075,-2.3566,-2.3477,-2.4132,-2.4004,-2.4081,-2.4425,-2.4276,-2.4135,-2.3931,-2.3578,-2.3127,-2.2531,-2.2531,-2.2287,-2.1872,-2.1536,-2.139,-2.5443,-2.6834,-2.8282,-2.8272,-2.7035,-2.548,-2.4346,-2.353,-2.2928,-2.2732,-2.2452,-2.3008,-2.5718,-2.8276,-3.1462,-3.5987,-3.9703,-4.2977,-4.5806,-4.5862,-4.5103,-4.3768,-4.2912,-4.2167,-4.1436,-4.134,-4.1603,-4.2185,-4.3032,-4.3497,-4.3497,-4.3497,-4.3028,-4.205,-4.1796,-4.0962,-3.9441,-3.9734,-4.0309,-4.1107,-4.0321,-4.012,-4.0451,-3.9239,-3.8936,-3.9378,-3.8558,-3.7952,-3.7499,-3.6876,-3.6196,-3.5552,-3.5751,-3.5867,-3.5891,-3.6111,-3.6458,-3.6733,-3.6118,-3.6484,-3.7182,-3.687,-3.607,-3.5232,-3.5223,-3.5016,-3.4735,-3.4492,-3.4186,-3.3806,-3.3385,-3.2601,-3.152,-3.0094,-2.9303,-2.8514,-2.7127,-2.6922,-2.6954,-2.6856,-2.6824,-2.6687,-2.6143,-2.5944,-2.5673,-2.5172,-2.4441,-2.4213,-2.4943,-2.4436,-2.3928,-2.3673,-2.3378,-2.3259,-2.3455,-2.3282,-2.3259,-2.3455,-2.3441,-2.3428,-2.353,-2.3209,-2.3012,-2.2952,-2.2538,-2.2146,-2.1773,-2.1773,-2.1569,-2.121,-2.0438,-2.01,-2.5038,-2.5585,-2.6306,-2.5784,-2.357,-2.1403,-2.0799,-1.9041,-1.7798,-1.8479,-1.7928,-1.8331,-2.1444,-2.5188,-2.9076,-3.2849,-3.7533,-4.1614,-4.4227,-4.4577,-4.4155,-4.3044,-4.2557,-4.1937,-4.1012,-4.092,-4.1115,-4.1768,-4.2386,-4.2772,-4.2772,-4.2446,-4.1899,-4.1163,-4.0482,-3.9578,-3.8415,-3.829,-3.8941,-4.0275,-3.9434,-3.9337,-3.9863,-3.9056,-3.8589,-3.8377,0.0,-3.7229,-3.6385,-3.5897,-3.5324,-3.4733,-3.487,-3.4926,-3.4944,-3.5069,-3.5356,-3.5552,-3.5078,-3.5386,-3.5921,-3.5856,-3.5415,-3.4926,-3.4926,-3.4597,-3.4186,-3.3994,-3.3542,-3.3028,-3.2695,-3.2049,-3.1149,-2.9661,-2.88,-2.7943,-2.6654,-2.6385,-2.6385,-2.6385,-2.5979,-2.5475,-2.5043,-2.4746,-2.4282,-2.3553,-2.3089,-2.2906,-2.3138,-2.3172,-2.3143,-2.2982,-2.2883,-2.2908,-2.3165,-2.2958,-2.2822,-2.2937,-2.2813,-2.2677,-2.2607,-2.2295,-2.1989,-2.1754,-2.1348,-2.0893,-2.0311,-2.0311,-2.0107,-1.9718,-1.8927,-1.8693,-2.4425,-2.3913,-2.3558,-2.2882,-2.0208,-1.7543,-1.6912,-1.4504,-1.293,-1.4842,-1.4351,-1.4627,-1.8049,-2.2793,-2.6962,-2.9139,-3.4675,-3.9415,-4.1365,-4.2309,-4.2624,-4.2206,-4.2132,-4.1784,-4.0871,-4.0676,-4.0839,-4.1411,-4.1349,-4.1357,-4.1633,-4.1038,-4.0577,-4.0282,-3.8823,-3.8042,-3.8042,-3.7411,-3.7998,-3.9769,-3.8438,-3.8461,-3.9617,-3.8889,-3.8187,-3.7477,-3.7397,0.0,-3.5429,-3.5318,-3.5002,-3.4572,-3.4614,-3.4614,-3.4634,-3.4693,-3.4655,-3.4614,-3.4614,-3.4572,-3.4529,-3.4672,-3.4634,-3.4572,-3.4572,-3.403,-3.3451,-3.3451,-3.287,-3.2195,-3.1669,-3.1522,-3.1025,-2.9222,-2.8439,-2.7701,-2.6315,-2.5954,-2.5855,-2.5757,-2.4944,-2.4136,-2.3943,-2.3465,-2.279,-2.205,-2.1953,-2.1859,-2.1589,-2.1886,-2.226,-2.2512,-2.2309,-2.2303,-2.2723,-2.2275,-2.2023,-2.2099,-2.1942,-2.1754,-2.1563,-2.1351,-2.102,-2.0447,-2.011,-1.948,-1.8589,-1.8589,-1.8349,-1.7866,-1.7247,-1.7274,-2.3711,-2.2381,-2.0682,-1.8985,-1.6042,-1.2868,-1.0212,-0.8372,-0.7549,-0.8669,-0.8736,-0.9851,-1.4169,-1.7813,-2.1593,-2.5946,-3.0751,-3.5134,-3.8488,-4.0173,-4.1096,-4.1238,-4.1339,-4.1086,-4.0322,-3.971,-3.9384,-3.9481,-3.8901,-3.9226,-4.0819,-4.0795,-3.9917,-3.8196,-3.6775,-3.6103,-3.6103,-3.6402,-3.6684,-3.7085,-3.7238,-3.765,-3.8246,-3.8101,-3.7863,-3.7441,-3.678,0.0,-3.5027,-3.4365,-3.405,-3.3979,-3.4213,-3.4269,-3.4315,-3.4593,-3.4529,-3.4269,-3.4269,-3.3931,-3.3588,-3.4405,-3.4278,-3.3769,-3.3769,-3.3291,-3.2692,-3.2692,-3.1952,-3.1014,-3.0435,-3.0075,-2.9459,-2.7948,-2.7542,-2.7235,-2.635,-2.5715,-2.5174,-2.46,-2.4333,-2.3847,-2.2659,-2.2372,-2.205,-2.1311,-2.1215,-2.1151,-2.1119,-2.1181,-2.1368,-2.1761,-2.146,-2.1048,-2.0577,-2.0459,-2.0199,-1.9661,-2.0101,-2.0154,-1.9688,-1.9829,-1.9688,-1.9156,-1.8693,-1.8154,-1.7491,-1.7491,-1.718,-1.6616,-1.6046,-1.583,-2.0407,-1.8994,-1.7268,-1.5242,-1.1738,-0.8232,-0.5975,-0.4586,-0.392,-0.4257,-0.5368,-0.7323,-1.0706,-1.5387,-1.9805,-2.331,-2.8075,-3.2643,-3.6531,-3.7903,-3.8986,-4.0296,-4.0173,-3.9709,-3.8987,-3.8553,-3.8237,-3.787,-3.7502,-3.7874,-3.9178,-3.8885,-3.8027,-3.662,-3.5926,-3.5622,-3.5622,-3.5479,-3.5744,-3.6416,-3.6282,-3.6458,-3.6934,-3.7327,-3.6823,-3.5544,-3.5805,0.0,-3.3677,-3.3553,-3.3343,-3.3166,-3.327,-3.3291,-3.332,-3.3515,-3.346,-3.3291,-3.3291,-3.3094,-3.2845,-3.2958,-3.2984,-3.2883,-3.2112,-3.2018,-3.1987,-3.1289,-3.0874,-3.0442,-2.9832,-2.9524,-2.9054,-2.7614,-2.6513,-2.5705,-2.5318,-2.4801,-2.4253,-2.384,-2.328,-2.2561,-2.1538,-2.1109,-2.0736,-2.0392,-2.0296,-2.0398,-2.0632,-2.0153,-2.0158,-2.118,-2.0796,-2.035,-2.0028,-1.9493,-1.8931,-1.8344,-1.8715,-1.8691,-1.8243,-1.8284,-1.8127,-1.7572,-1.7042,-1.6456,-1.5922,-1.5922,-1.5748,-1.546,-1.4903,-1.479,-1.6862,-1.5359,-1.3678,-1.1271,-0.741,-0.3681,-0.2195,-0.1193,-0.0774,-0.1231,-0.3022,-0.5378,-0.7926,-1.3269,-1.8028,-2.0216,-2.4892,-2.9766,-3.3879,-3.4952,-3.6358,-3.9093,-3.8766,-3.8136,-3.7633,-3.7425,-3.7085,-3.6416,-3.6186,-3.6422,-3.7184,-3.653,-3.5827,-3.5178,-3.5178,-3.5078,-3.499,-3.451,-3.4718,-3.5565,-3.5105,-3.5153,-3.5647,-3.6282,-3.5507,-3.3771,-3.4679,0.0,0.0,-3.289,-3.2827,-3.2466,-3.2466,-3.2466,-3.2466,-3.2466,-3.2433,-3.2297,-3.2297,-3.2055,-3.1672,-3.1043,-3.1461,-3.188,-3.0434,-3.0595,-3.1045,-2.9849,-2.97,-2.9772,-2.917,-2.8912,-2.8474,-2.7083,-2.555,-2.4368,-2.409,-2.3631,-2.3118,-2.2758,-2.1844,-2.0931,-2.0283,-1.9723,-1.9369,-1.9369,-1.9369,-1.9449,-1.9814,-1.8991,-1.8912,-2.0239,-1.9782,-1.9311,-1.9061,-1.8161,-1.7422,-1.7037,-1.7039,-1.692,-1.6585,-1.6505,-1.6212,-1.5666,-1.5145,-1.4631,-1.4054,-1.4054,-1.3961,-1.3867,-1.3369,-1.3416,-1.4331,-1.2576,-0.9845,-0.6557,-0.3004,0.0359,0.2519,0.3066,0.2461,0.0168,-0.1291,-0.3184,-0.6637,-1.0267,-1.3442,-1.5573,-1.9769,-2.4368,-2.8767,-3.0543,-3.2975,-3.7307,-3.7126,-3.6739,-3.6878,-3.6268,-3.5594,-3.4941,-3.4246,-3.4233,-3.4929,-3.4285,-3.3866,-3.3802,-3.3802,-3.348,-3.2885,-3.335,-3.3379,-3.2873,-3.3321,-3.383,-3.4384,-3.4453,-3.4156,-3.3702,-3.3807,0.0,0.0,-3.2568,-3.2568,-3.2466,-3.2466,-3.2466,-3.2466,-3.2466,-3.2125,-3.1671,-3.1671,-3.0714,-2.9376,-2.9158,-2.9973,-3.0764,-2.9447,-2.9303,-2.9468,-2.8694,-2.8608,-2.8498,-2.7844,-2.7255,-2.6525,-2.5153,-2.4687,-2.4268,-2.3081,-2.241,-2.1672,-2.0456,-1.9754,-1.9139,-1.8444,-1.8305,-1.8249,-1.8249,-1.8249,-1.8249,-1.8288,-1.7796,-1.7656,-1.8282,-1.7763,-1.6982,-1.6009,-1.5379,-1.4923,-1.4743,-1.4488,-1.4311,-1.4229,-1.4145,-1.3846,-1.3322,-1.3088,-1.2628,-1.1987,-1.1987,-1.1661,-1.1149,-1.1116,-1.1116,-0.8105,-0.7451,-0.6282,-0.2712,0.0278,0.2905,0.521,0.4559,0.3129,0.202,0.0432,-0.1775,-0.5406,-0.8281,-1.1348,-1.4909,-1.7846,-2.1337,-2.6325,-2.8013,-3.0051,-3.3762,-3.4301,-3.4475,-3.4572,-3.4478,-3.4132,-3.3442,-3.278,-3.2475,-3.2752,-3.3287,-3.3598,-3.3598,-3.3233,-3.288,-3.2592,-3.1998,-3.1783,-3.196,-3.1765,-3.1759,-3.1988,-3.2832,-3.2611,-3.173,-3.2817,0.0,0.0,-3.1593,-3.1408,-3.1138,-3.079,-3.0597,-3.0597,-3.0597,-3.0475,-3.0278,-3.0278,-2.9821,-2.9156,-2.8239,-2.864,-2.9274,-2.8217,-2.8595,-2.9157,-2.8099,-2.8139,-2.8354,-2.7692,-2.6494,-2.5131,-2.3799,-2.314,-2.2723,-2.2189,-2.1682,-2.1018,-2.0069,-1.946,-1.8892,-1.8202,-1.7786,-1.7558,-1.7558,-1.7247,-1.6926,-1.6625,-1.6284,-1.597,-1.567,-1.5904,-1.6019,-1.5908,-1.452,-1.3582,-1.3376,-1.295,-1.2647,-1.2656,-1.2446,-1.226,-1.2225,-1.1768,-1.1414,-1.1149,-1.1149,-1.1048,-1.0813,-1.0813,-1.0929,-0.1345,-0.1011,-0.0375,0.2935,0.5023,0.6629,0.7952,0.6486,0.4646,0.3813,0.2008,-0.0358,-0.3197,-0.6216,-0.9557,-1.3451,-1.6027,-1.9241,-2.4268,-2.6046,-2.7835,-3.0618,-3.1908,-3.2376,-3.1961,-3.2077,-3.1985,-3.1534,-3.1043,-3.0777,-3.0777,-3.1576,-3.2222,-3.2657,-3.2237,-3.1797,-3.1439,-3.0608,-3.0355,-3.0688,-3.032,-3.0156,-3.0188,-3.116,-3.1101,-3.0351,-3.163,0.0,0.0,-3.0561,-3.0149,-2.9609,-2.9027,-2.881,-2.8842,-2.9022,-2.8997,-2.8817,-2.8604,-2.8419,-2.8015,-2.67,-2.6611,-2.6916,-2.6367,-2.7164,-2.8031,-2.6869,-2.6935,-2.719,-2.6592,-2.5264,-2.3843,-2.2658,-2.1951,-2.1387,-2.1274,-2.0506,-1.9647,-1.8995,-1.8305,-1.7623,-1.7188,-1.6735,-1.6456,-1.6456,-1.6089,-1.5617,-1.5079,-1.4785,-1.4327,-1.3701,-1.3912,-1.4293,-1.4937,-1.3453,-1.2392,-1.2191,-1.1318,-1.0879,-1.1,-1.0376,-1.0124,-1.0318,-0.9804,-0.9555,-0.9555,-0.9555,-0.9673,-0.9894,-0.9985,-1.0333,0.5136,0.6684,0.8574,1.0939,1.2068,1.2353,1.1279,0.9693,0.7758,0.5529,0.3298,0.1366,0.0179,-0.3965,-0.7864,-1.0152,-1.3743,-1.773,-2.2143,-2.4491,-2.6503,-2.8549,-3.0225,-3.0665,-2.9399,-2.9116,-2.9066,-2.9066,-2.9002,0.0,-2.9002,-2.8546,-2.8936,-3.0492,-3.0492,-2.9894,-2.8637,-2.9215,-2.9193,-2.8542,-2.912,-2.9406,-2.9406,-2.9438,-2.9717,0.0,0.0,0.0,0.0,-2.9536,-2.8874,-2.8174,-2.7624,-2.7419,-2.7483,-2.8148,-2.8012,-2.7457,-2.6866,-2.614,-2.5351,-2.4114,-2.3691,-2.3668,-2.3715,-2.4646,-2.5503,-2.4768,-2.4521,-2.4387,-2.3806,-2.3197,-2.256,-2.1848,-2.1315,-2.0717,-2.014,-1.8682,-1.725,-1.6546,-1.5499,-1.4744,-1.4744,-1.4744,-1.4744,-1.4744,-1.4698,-1.4492,-1.3799,-1.324,-1.2888,-1.274,-1.1648,-1.1232,-1.1958,-1.1595,-1.1198,-1.096,-0.9408,-0.8721,-0.9092,-0.7772,-0.703,-0.703,-0.6776,-0.6642,-0.6642,-0.6642,-0.702,-0.7729,-0.8098,-0.8758,0.8351,0.8731,0.9298,1.2586,1.285,1.2272,1.21,1.0317,0.8068,0.5631,0.4066,0.2518,0.0365,-0.3188,-0.6666,-0.9016,-1.2388,-1.5792,-1.9094,-2.1641,-2.3735,-2.5405,-2.7524,-2.9015,-2.9524,-2.9251,-2.9002,-2.9002,-2.9002,-2.8809,-2.8457,-2.8263,-2.8396,-2.8876,-2.8111,-2.7738,-2.7856,-2.76,-2.7586,-2.791,-2.7618,-2.75,-2.7469,-2.7439,-2.7532,0.0,0.0,0.0,0.0,-2.7166,-2.6647,-2.6298,-2.5265,-2.4868,-2.4897,-2.5102,-2.5305,-2.5401,-2.4819,-2.4708,-2.4595,-2.3409,-2.3331,-2.358,-2.3114,-2.3571,-2.4272,-2.4025,-2.3956,-2.3699,-2.2661,-2.2261,-2.1685,-2.0042,-1.9309,-1.8784,-1.8082,-1.7,-1.6033,-1.5797,-1.5174,-1.4698,-1.4698,-1.4376,-1.3956,-1.3443,-1.3014,-1.2368,-1.1417,-1.0988,-1.0598,-1.027,-0.9726,-0.9841,-1.1041,-1.0295,-0.9466,-0.8677,-0.772,-0.7242,-0.7384,-0.6772,-0.6514,-0.6733,-0.6656,-0.6588,-0.6588,-0.6588,-0.6768,-0.7144,-0.7433,-0.7785,1.2817,1.3076,1.3561,1.5879,1.4965,1.3374,1.2831,1.0696,0.8185,0.5813,0.4085,0.2379,0.028,-0.2965,-0.6213,-0.8643,-1.1201,-1.3985,-1.6977,-1.9805,-2.2324,-2.4545,-2.5542,-2.6478,-2.7633,-2.7207,-2.71,-2.7459,-2.7341,-2.7208,-2.7247,-2.6818,-2.6639,-2.6639,-2.6448,-2.6469,-2.669,-2.6065,-2.5964,-2.6433,-2.5791,-2.55,-2.552,-2.5438,-2.5558,0.0,0.0,0.0,0.0,-2.5244,-2.4667,-2.4338,-2.3307,-2.2942,-2.292,-2.2912,-2.3293,-2.3699,-2.285,-2.3121,-2.3499,-2.1743,-2.1276,-2.1329,-2.1172,-2.211,-2.3067,-2.2511,-2.2247,-2.1957,-2.0999,-2.0511,-1.9899,-1.8625,-1.7804,-1.7264,-1.6802,-1.5714,-1.4766,-1.4505,-1.4031,-1.3538,-1.3301,-1.2918,-1.2531,-1.2092,-1.1431,-1.0647,-0.9757,-0.922,-0.8617,-0.7809,-0.757,-0.7588,-0.7905,-0.828,-0.8037,-0.6892,-0.6174,-0.5794,-0.5792,-0.5366,-0.5313,-0.5819,-0.5828,-0.5828,-0.5828,-0.6119,-0.6426,-0.6624,-0.7131,-0.7471,0.0,1.8836,1.9943,2.0111,1.7913,1.5216,1.3508,1.0741,0.0,0.6018,0.346,0.1258,0.0,-0.3125,-0.6327,-0.8606,-1.0173,-1.2246,-1.563,-1.8732,-2.1794,-2.5011,-2.4036,-2.3409,-2.4136,-2.3794,-2.3868,-2.4803,-2.4354,-2.4458,-2.5261,-2.4339,-2.3791,-2.3742,-2.5196,-2.5739,-2.5356,-2.4613,-2.4336,-2.4498,-2.3834,-2.358,-2.358,-2.3497,-2.3716,0.0,0.0,0.0,0.0,-2.3455,-2.2844,-2.2175,-2.1627,-2.1397,-2.1403,-2.1345,-2.1787,-2.2224,-2.0939,-2.1271,-2.1874,-1.94,-1.8201,-1.7788,-1.8447,-2.025,-2.1786,-2.0394,-1.9776,-1.9403,-1.9064,-1.8328,-1.7578,-1.7478,-1.6744,-1.6053,-1.593,-1.4693,-1.3416,-1.2773,-1.2141,-1.1516,-1.0864,-1.0712,-1.0712,-1.0594,-1.0003,-0.9268,-0.8567,-0.7817,-0.6849,-0.5496,-0.5279,-0.4736,-0.3319,-0.5703,-0.6732,-0.5333,-0.4641,-0.4258,-0.4258,-0.3611,-0.3566,-0.4298,-0.4408,-0.4415,-0.4421,-0.5296,-0.5877,-0.613,-0.6979,-0.7492,1.6915,0.0,1.9008,1.9858,1.7439,1.4568,0.0,1.0232,0.7409,0.5879,0.2816,0.0297,-0.0097,-0.3155,-0.5805,-0.6452,-0.9142,-1.1693,-1.3416,-1.671,-1.9677,-2.1636,-2.1742,-2.1967,-2.299,-2.3304,-2.3441,-2.3367,-2.3301,-2.296,-2.2448,-2.2128,-2.1804,-2.1435,-2.1431,-2.2427,-2.4567,-2.3005,-2.2989,-2.4498,-2.2848,-2.2103,-2.2076,-2.1264,-2.0806,0.0,0.0,0.0,-2.0637,-2.0175,-1.9808,-1.9458,-1.8831,-1.8537,-1.8561,-1.8572,-1.8932,-1.9349,-1.862,-1.8829,-1.9291,-1.8221,-1.8069,-1.8261,-1.7965,-1.8285,-1.8666,-1.8303,-1.8124,-1.8056,-1.7947,-1.7812,-1.7379,-1.6515,-1.5478,-1.4437,-1.3568,-1.2411,-1.1449,-1.1299,-1.1166,-1.0797,-1.0105,-0.9951,-0.9578,-0.8489,-0.8227,-0.7635,-0.6411,-0.5612,-0.4798,-0.3917,-0.3324,-0.2832,-0.2504,-0.3594,-0.3917,-0.3053,-0.2837,-0.2726,-0.2726,-0.2563,-0.2563,-0.273,-0.3289,-0.3671,-0.3823,-0.4609,-0.5121,-0.5387,-0.5549,-0.5788,1.4577,1.5899,1.7494,1.7479,1.4763,1.1727,1.0658,0.8051,0.5248,0.34,0.0887,-0.1297,-0.267,-0.5437,-0.7617,-0.7667,-0.9699,-1.1934,-1.3644,-1.6082,-1.8148,-1.9332,-2.0063,-2.0537,-2.0938,-2.1501,-2.1913,-2.2165,-2.1822,-2.1479,-2.1419,-2.1171,-2.0924,-2.059,-2.0098,-2.0618,-2.2233,-2.0864,-2.0674,-2.1725,-2.0382,-1.9676,-1.948,-1.8908,-1.8534,0.0,0.0,0.0,-1.8625,-1.8386,-1.8248,-1.8109,-1.772,-1.7578,-1.7578,-1.7191,-1.7534,-1.8014,-1.7356,-1.7309,-1.7562,-1.7612,-1.7366,-1.7026,-1.6673,-1.6306,-1.6255,-1.717,-1.7253,-1.6955,-1.6481,-1.6185,-1.5749,-1.4637,-1.3755,-1.2914,-1.2202,-1.1112,-1.0222,-0.9879,-0.9555,-0.9127,-0.8397,-0.8292,-0.7911,-0.6796,-0.6367,-0.5712,-0.4627,-0.3874,-0.2994,-0.1882,-0.1444,-0.089,-0.0223,-0.0832,-0.1388,-0.1673,-0.1676,-0.1676,-0.1676,-0.1676,-0.184,-0.2174,-0.3001,-0.3509,-0.3576,-0.4464,-0.4972,-0.5135,-0.5203,-0.5318,1.1259,1.2614,1.4257,1.3718,1.0847,0.793,0.6858,0.4679,0.2263,0.01,-0.15,-0.3304,-0.5622,-0.8084,-0.9861,-0.9926,-1.101,-1.2609,-1.49,-1.596,-1.6813,-1.7504,-1.8413,-1.8883,-1.8496,-1.9062,-1.9863,-2.0728,-1.9879,-1.9713,-2.0597,-2.0118,-1.9749,-1.9727,-1.9125,-1.8908,-1.8967,-1.8504,-1.828,-1.8293,-1.7578,-1.6983,-1.6523,-1.647,-1.6417,-1.6363,0.0,0.0,-1.6869,-1.6915,-1.6937,-1.6869,-1.6869,-1.6869,-1.6834,-1.6177,-1.6503,-1.7132,-1.6535,-1.6345,-1.6403,-1.6878,-1.6148,-1.5077,-1.5096,-1.4565,-1.4405,-1.6138,-1.6313,-1.576,-1.4873,-1.4284,-1.3731,-1.2714,-1.202,-1.1495,-1.1145,-1.0113,-0.9061,-0.8462,-0.7764,-0.7074,-0.6352,-0.619,-0.5855,-0.5124,-0.447,-0.3765,-0.2929,-0.2279,-0.1281,0.0167,0.0334,0.0835,0.2119,0.1506,0.0559,-0.0671,-0.0894,-0.095,-0.095,-0.095,-0.1231,-0.1855,-0.2772,-0.3299,-0.3446,-0.4442,-0.5028,-0.5203,-0.5332,-0.5406,0.7459,0.623,0.6147,0.8218,0.6696,0.4415,0.3041,0.0791,-0.1196,-0.1599,-0.3704,-0.5522,-0.5927,-0.8084,-0.9819,-0.9853,-1.1795,-1.3894,-1.5457,-1.5656,-1.5568,-1.5445,-1.6196,-1.6545,-1.6221,-1.6908,-1.7586,-1.8248,-1.7113,-1.6688,-1.7273,-1.6507,-1.5895,-1.563,-1.5195,-1.4827,-1.4575,-1.6437,-1.7424,-1.7376,-1.6185,-1.5135,-1.4203,-1.4091,-1.3772,-1.3296,0.0,-1.3456,-1.3742,-1.3877,-1.3834,-1.37,-1.37,-1.37,-1.37,-1.3597,-1.4291,-1.5308,-1.5457,-1.546,-1.5378,-1.4676,-1.4132,-1.3756,-1.4011,-1.3676,-1.3319,-1.3814,-1.3768,-1.3494,-1.3319,-1.3224,-1.3007,-1.2207,-1.102,-0.9967,-0.9284,-0.8025,-0.7063,-0.6956,-0.6333,-0.5612,-0.486,-0.4204,-0.3545,-0.2832,-0.2615,-0.2057,-0.0667,-0.0389,0.0223,0.1726,0.184,0.1952,0.2174,0.1506,0.1006,0.0783,0.0168,-0.0168,-0.0168,-0.0168,-0.0227,-0.035,-0.1114,-0.1926,-0.2845,-0.3634,-0.4534,-0.5521,-0.5542,-0.5142,0.3469,0.17,0.0504,0.0199,0.0303,0.0102,-0.1206,-0.2423,-0.3347,-0.4017,-0.5118,-0.6232,-0.6936,-0.8652,-1.0343,-1.1778,-1.3496,-1.4875,-1.5485,-1.5204,-1.487,-1.4736,-1.5376,-1.5801,-1.5472,-1.6142,-1.6556,-1.665,-1.5909,-1.5551,-1.5807,-1.5438,-1.506,-1.4695,-1.4529,-1.4164,-1.36,-1.471,-1.5135,-1.4934,-1.435,-1.3667,-1.3009,-1.2952,-1.2738,-1.2464,0.0,-1.2672,-1.2992,-1.3093,-1.3067,-1.3009,-1.3009,-1.3063,-1.326,-1.3394,-1.3894,-1.4384,-1.449,-1.4541,-1.4476,-1.4016,-1.3786,-1.3575,-1.3152,-1.2451,-1.175,-1.1291,-1.2072,-1.2826,-1.1873,-1.1626,-1.1265,-0.9798,-0.8899,-0.8178,-0.716,-0.6161,-0.5303,-0.4914,-0.4204,-0.36,-0.3274,-0.2603,-0.1885,-0.1113,-0.0667,-0.0056,0.1057,0.117,0.1615,0.273,0.2841,0.2952,0.34,0.2785,0.184,0.056,0.0168,0.0,0.0,0.0,0.0,0.0,-0.081,-0.1473,-0.197,-0.2774,-0.3479,-0.4065,-0.4065,-0.3831,-0.01,-0.1711,-0.3248,-0.6465,-0.5283,-0.3638,-0.5043,-0.5252,-0.5449,-0.639,-0.6575,-0.6871,-0.7846,-0.9122,-1.0779,-1.3102,-1.4099,-1.4621,-1.4929,-1.454,-1.4278,-1.4356,-1.4951,-1.5165,-1.494,-1.5219,-1.5427,-1.5535,-1.4896,-1.4585,-1.4816,-1.4657,-1.4253,-1.3676,-1.3592,-1.3184,-1.2315,-1.2299,-1.2445,-1.2704,-1.2504,-1.2132,-1.1567,-1.1406,-1.1346,-1.1271,-1.1346,-1.1525,-1.1873,-1.2088,-1.2212,-1.2151,-1.2508,-1.2727,-1.2993,-1.3553,-1.3747,-1.3763,-1.3842,-1.3874,-1.3807,-1.3316,-1.3119,-1.2893,-1.1829,-1.0956,-1.0114,-0.9348,-1.0417,-1.1549,-1.0236,-0.992,-0.9481,-0.7754,-0.7081,-0.6524,-0.5528,-0.4553,-0.371,-0.3159,-0.2449,-0.1896,-0.1726,-0.1057,-0.0333,0.039,0.1,0.1613,0.2397,0.2452,0.2785,0.3566,0.3622,0.3732,0.4181,0.3789,0.2675,0.0737,0.0397,0.0288,0.0297,0.0119,0.0,0.0,-0.0657,-0.108,-0.1298,-0.1994,-0.2475,-0.2782,-0.2782,-0.2676,-0.2609,-0.3865,-0.5043,-0.9135,-0.7932,-0.6204,-0.7871,-0.815,-0.8057,-0.8153,-0.8153,-0.8106,-0.8065,-0.9122,-1.0485,-1.1853,-1.2124,-1.2523,-1.3426,-1.3554,-1.3635,-1.4045,-1.4179,-1.4045,-1.3749,-1.3342,-1.3481,-1.4587,-1.3365,-1.2879,-1.3738,-1.2952,-1.188,-1.0484,-1.0402,-0.9796,-0.8431,-0.8431,-0.9564,-1.1888,-1.1066,-1.0092,-0.904,-0.8535,-0.8133,-0.7881,-0.8164,-0.8323,-0.842,-0.9514,-0.9807,-0.9701,-1.1009,-1.1506,-1.1696,-1.2902,-1.3369,-1.3399,-1.3645,-1.375,-1.3447,-1.1611,-1.0852,-1.0491,-0.9755,-0.9,-0.8399,-0.8592,-0.8482,-0.8345,-0.8215,-0.8151,-0.8089,-0.7601,-0.6328,-0.5188,-0.4847,-0.3519,-0.2341,-0.2286,-0.1673,-0.0949,-0.0278,0.0446,0.1172,0.1952,0.2063,0.2397,0.3234,0.3234,0.3511,0.4346,0.4408,0.4181,0.3511,0.3656,0.3375,0.2401,0.1521,0.1069,0.1227,0.043,0.0,0.0,-0.0067,-0.0483,-0.13,-0.1378,-0.1913,-0.2859,-0.2859,-0.2441,-0.2082,-0.3433,-0.4838,-0.7214,-0.7636,-0.7814,-0.9457,-0.9161,-0.8377,-0.8289,-0.8269,-0.8221,-0.8065,-0.9122,-1.019,-1.0681,-1.1347,-1.1898,-1.2277,-1.2102,-1.1947,-1.2037,-1.1939,-1.1852,-1.2092,-1.1378,-1.1224,-1.2144,-1.1127,-1.0571,-1.0932,-1.0645,-1.0047,-0.9206,-0.9184,-0.8822,-0.8032,-0.8021,-0.8474,-0.9424,-0.9105,-0.874,-0.8281,-0.812,-0.7916,-0.7845,-0.8012,-0.8088,-0.8052,-0.8623,-0.8779,-0.8687,-0.9497,-0.9745,-0.985,-1.0536,-1.0789,-1.0801,-1.0896,-1.0932,-1.0858,-1.0121,-0.983,-0.9606,-0.9173,-0.8398,-0.7602,-0.6851,-0.6165,-0.5716,-0.621,-0.631,-0.6002,-0.469,-0.3939,-0.3278,-0.2587,-0.1595,-0.0723,-0.0223,0.0446,0.1067,0.1488,0.2091,0.2583,0.298,0.3391,0.3732,0.407,0.407,0.4181,0.4463,0.4601,0.4525,0.4324,0.4429,0.4375,0.4153,0.2867,0.1839,0.1327,0.0966,0.053,0.0,0.0,-0.0146,-0.0522,-0.0455,-0.0696,-0.1107,-0.109,-0.0548,-0.2273,-0.3717,-0.5103,-0.6453,-0.7547,-0.8596,-0.9721,-0.9131,-0.8384,-0.8289,-0.8235,-0.8167,-0.8058,-0.8726,-0.9395,-0.9339,-0.9992,-1.0518,-1.0856,-1.0629,-1.0465,-1.0508,-1.0284,-1.0353,-1.0673,-1.0031,-0.9792,-1.0383,-0.9711,-0.9301,-0.9301,-0.9301,-0.8941,-0.8212,-0.8202,-0.7862,-0.7186,-0.7186,-0.7186,-0.7186,-0.6907,-0.7037,-0.7567,-0.7307,-0.7186,-0.7195,-0.7328,-0.7337,-0.7313,-0.7845,-0.825,-0.8564,-0.8712,-0.8841,-0.8995,-0.9241,-0.9301,-0.9301,-0.9301,-0.9301,-0.9216,-0.8523,-0.8286,-0.8174,-0.7294,-0.6544,-0.5874,-0.492,-0.4214,-0.3701,-0.3613,-0.4058,-0.418,-0.2875,-0.2099,-0.1544,-0.0958,0.0058,0.0973,0.1477,0.2002,0.255,0.3191,0.3582,0.3981,0.4596,0.4945,0.5062,0.4842,0.4886,0.4833,0.4656,0.4741,0.4857,0.4911,0.5047,0.5155,0.5203,0.39,0.2741,0.1782,0.1492,0.0977,0.0,0.0,0.0,0.0,0.0,0.0,0.0,0.0404,0.097,-0.3595,-0.4922,-0.6331,-0.7633,-0.8153,-0.8275,-0.8269,-0.8269,-0.8275,-0.8269,-0.8147,-0.8038,-0.8038,-0.8038,-0.7991,-0.7834,-0.7807,-0.808,-0.8935,-0.9004,-0.9086,-0.9826,-0.9756,-0.9703,-0.9703,-0.9423,-0.9392,-0.9683,-0.9423,-0.9301,-0.9301,-0.9301,-0.8644,-0.7291,-0.7283,-0.6696,-0.5432,-0.5365,-0.5359,-0.5359,-0.4417,-0.4942,-0.6654,-0.5815,-0.5365,-0.5439,-0.5528,-0.5596,-0.5686,-0.6985,-0.8198,-0.9271,-0.8891,-0.9015,-0.9301,-0.9301,-0.9301,-0.9301,-0.9301,-0.9226,-0.8912,-0.682,-0.6207,-0.5797,-0.3718,-0.3039,-0.289,-0.2882,-0.2805,-0.2275,-0.0467,-0.1336,-0.2676,-0.2676,-0.1307,0.0,-0.0123,0.1349,0.2681,0.2536,0.2647,0.3249,0.4817,0.4873,0.5293,0.6862,0.6849,0.6317,0.5601,0.5659,0.556,0.4965,0.5047,0.5074,0.4938,0.5332,0.5528,0.5439,0.4658,0.3732,0.2725,0.2008,0.1106,0.0,0.0,0.0,0.0,0.0,0.0,0.0084,0.1259,0.1844,-0.2237,-0.3682,-0.4989,-0.6246,-0.7541,-0.8364,-0.8153,-0.8269,-0.8391,-0.8289,-0.8147,-0.8038,-0.8038,-0.8038,-0.7991,-0.7834,-0.7726,-0.7684,-0.7843,-0.7767,-0.7628,-0.7635,-0.7632,-0.7829,-0.8353,-0.7658,-0.7496,-0.8317,-0.7658,-0.7173,-0.7173,-0.7173,-0.692,-0.6404,-0.6288,-0.5698,-0.4551,-0.4462,-0.4084,-0.348,-0.3213,-0.4013,-0.5756,-0.4919,-0.49,-0.5535,-0.5786,-0.584,-0.5752,-0.6236,-0.6716,-0.7173,-0.7118,-0.7126,-0.7173,-0.7173,-0.7173,-0.7096,-0.6311,-0.6073,-0.5835,-0.4438,-0.4051,-0.3878,-0.3268,-0.3078,-0.2734,-0.1411,-0.0969,-0.0479,0.141,0.1469,0.1069,0.1069,0.1503,0.1842,0.1729,0.2638,0.3409,0.3304,0.4314,0.535,0.5902,0.6379,0.6885,0.7461,0.7357,0.6924,0.611,0.6045,0.5796,0.5116,0.5108,0.5203,0.5379,0.5515,0.561,0.5671,0.5661,0.4806,0.2949,0.1872,0.0923,0.0,0.0,0.0411,0.1246,0.1246,0.1682,0.2575,0.2872,0.3461,-0.254,-0.3785,-0.509,-0.5817,-0.6901,-0.7799,-0.8153,-0.8262,-0.8282,-0.8194,-0.8106,-0.8038,-0.8038,-0.7991,-0.7902,-0.7753,-0.7604,-0.7455,-0.7299,-0.7149,-0.6993,-0.681,-0.635,-0.6128,-0.6577,-0.5652,-0.5306,-0.5912,-0.5384,-0.5002,-0.5002,-0.5002,-0.4947,-0.4753,-0.4678,-0.4344,-0.363,-0.35,-0.3246,-0.2676,-0.2301,-0.2927,-0.4292,-0.3806,-0.3932,-0.448,-0.5108,-0.5408,-0.539,-0.5927,-0.6179,-0.6261,-0.5867,-0.5628,-0.5628,-0.5157,-0.5002,-0.4924,-0.4297,-0.4059,-0.3904,-0.2813,-0.2501,-0.2335,-0.1518,-0.1206,-0.0897,0.0644,0.1053,0.1387,0.287,0.3238,0.3147,0.2809,0.2971,0.3301,0.3513,0.4278,0.5026,0.5171,0.6128,0.7044,0.7492,0.7819,0.8138,0.8588,0.8226,0.7628,0.6815,0.6529,0.6085,0.5363,0.5365,0.5474,0.5657,0.5786,0.5895,0.5976,0.5873,0.5235,0.3853,0.3166,0.2414,0.1451,0.1408,0.1769,0.2547,0.2547,0.2921,0.3594,0.4066,0.4674,-0.3791,-0.4718,-0.5665,-0.576,-0.6063,-0.6558,-0.7824,-0.7827,-0.7733,-0.7939,-0.8038,-0.8038,-0.8038,-0.7916,-0.7767,-0.7429,-0.7283,-0.7131,-0.6789,-0.666,-0.657,-0.6544,-0.5482,-0.4773,-0.4763,-0.3718,-0.3122,-0.3122,-0.3122,-0.3122,-0.3122,-0.3122,-0.3014,-0.2944,-0.2941,-0.2801,-0.2592,-0.2592,-0.2558,-0.243,-0.1593,-0.1614,-0.2458,-0.2532,-0.2639,-0.2782,-0.3891,-0.4437,-0.4608,-0.5628,-0.6022,-0.5944,-0.4935,-0.4545,-0.4467,-0.3456,-0.3061,-0.3054,-0.2976,-0.2973,-0.2813,-0.1644,-0.1333,-0.0936,0.1141,0.1738,0.1953,0.2928,0.3209,0.3356,0.4266,0.4461,0.4239,0.3431,0.3756,0.4438,0.5191,0.6125,0.6983,0.7591,0.7942,0.8387,0.9174,0.9178,0.9284,1.0111,0.9452,0.8595,0.7819,0.7261,0.6589,0.5866,0.5796,0.5813,0.584,0.6098,0.6274,0.6302,0.5659,0.5282,0.5282,0.5032,0.4532,0.3615,0.3623,0.3666,0.3747,0.3747,0.3871,0.3939,0.5201,0.5735,-0.217,-0.2613,-0.3086,-0.4126,-0.4453,-0.4671,-0.5085,-0.5001,-0.5422,-0.7534,-0.8038,-0.8038,-0.8038,-0.7916,-0.7472,-0.6372,-0.6067,-0.5642,-0.4467,-0.4342,-0.4274,-0.4125,-0.3826,-0.3614,-0.3467,-0.3288,-0.3122,-0.3122,-0.3122,-0.3122,-0.3122,-0.3122,-0.3091,-0.302,-0.2941,-0.2527,-0.1874,-0.1658,-0.1294,0.0,-0.036,-0.0365,-0.0595,-0.1486,-0.2258,-0.3001,-0.3322,-0.3418,-0.3437,-0.3671,-0.3826,-0.3756,-0.3508,-0.3454,-0.3381,-0.3197,-0.3099,-0.2973,-0.2173,-0.1909,-0.1644,0.0313,0.094,0.1169,0.2433,0.2794,0.3003,0.3944,0.4748,0.5499,0.6439,0.718,0.7702,0.7554,0.6781,0.6335,0.6966,0.7477,0.7693,0.7726,0.8592,0.9363,0.9573,1.0292,1.0875,1.1076,1.0956,1.0463,0.9638,0.8727,0.7878,0.7012,0.6279,0.5901,0.6139,0.622,0.6363,0.6593,0.6525,0.6531,0.6531,0.4813,0.3785,0.3614,0.3584,0.4094,0.5184,0.5184,0.5652,0.6587,0.7964,0.8595,-0.0893,-0.1507,-0.2149,-0.2991,-0.3119,-0.3236,-0.4037,-0.4072,-0.4418,-0.5822,-0.6121,-0.6121,-0.6121,-0.5987,-0.5661,-0.4939,-0.4719,-0.4401,-0.3656,-0.3639,-0.3592,-0.3471,-0.2933,-0.2578,-0.2466,-0.1968,-0.1642,-0.1642,-0.1642,-0.1642,-0.1642,-0.1642,-0.1635,-0.1615,-0.1539,-0.1292,-0.0815,-0.0741,-0.0442,0.0,0.0,0.0,0.0,-0.0616,-0.1084,-0.1642,-0.2189,-0.2348,-0.2423,-0.2891,-0.3122,-0.3054,-0.257,-0.2351,-0.2356,-0.1831,-0.1322,-0.0729,-0.0164,0.0325,0.0956,0.2178,0.2591,0.2739,0.3698,0.4288,0.4876,0.5813,0.6741,0.761,0.8059,0.8482,0.8894,0.9324,0.8579,0.7904,0.8657,0.8931,0.912,0.9444,1.0043,1.051,1.051,1.0976,1.1423,1.1423,1.1423,1.108,1.0239,0.9715,0.8959,0.7694,0.7119,0.6751,0.6531,0.6539,0.6675,0.6898,0.7054,0.717,0.7244,0.6161,0.5499,0.5442,0.5461,0.5823,0.6548,0.6548,0.7191,0.8383,0.92,0.9837,0.0401,-0.0604,-0.1727,-0.1753,-0.178,-0.2001,-0.3202,-0.3352,-0.3316,-0.3316,-0.3717,-0.4011,-0.4,-0.3898,-0.3711,-0.3499,-0.3399,-0.3203,-0.3028,-0.3016,-0.2989,-0.2991,-0.2119,-0.1451,-0.1451,-0.0555,0.0,0.0,0.0,0.0,0.0,0.0157,0.0313,0.0312,0.047,0.0543,0.053,0.0532,0.0527,0.0517,0.0377,0.0308,0.0235,0.0078,0.0,-0.0079,-0.0943,-0.1335,-0.142,-0.2203,-0.2594,-0.2444,-0.138,-0.0986,-0.0905,0.0253,0.1174,0.1977,0.2095,0.2651,0.3413,0.3741,0.4006,0.4311,0.523,0.6244,0.7247,0.7991,0.8827,0.9575,0.9575,0.954,0.9663,1.0432,1.0007,0.9563,1.0194,1.0309,1.0516,1.1286,1.1463,1.1516,1.157,1.157,1.1597,1.165,1.165,1.1383,1.0728,1.0623,1.0021,0.8317,0.8085,0.7692,0.6812,0.6878,0.7027,0.717,0.7326,0.7468,0.7597,0.7624,0.767,0.7816,0.7916,0.798,0.8008,0.8197,0.8839,0.985,1.0157,1.0808,0.2011,0.0713,-0.031,-0.0311,-0.0312,-0.0311,-0.0509,-0.0505,-0.0504,-0.0504,-0.2414,-0.3997,-0.4034,-0.3908,-0.3469,-0.2423,-0.2122,-0.1713,-0.0597,-0.0507,-0.0499,-0.0478,-0.0316,-0.0236,-0.0236,-0.0079,0.0,0.0,0.0,0.0,0.0,0.0862,0.1397,0.1368,0.2243,0.2706,0.2718,0.2694,0.2718,0.2709,0.1789,0.1406,0.1333,0.0392,0.0,0.0,-0.0159,-0.0238,-0.0243,-0.0324,-0.0405,-0.0325,0.0846,0.1374,0.1464,0.2724,0.3235,0.3349,0.3359,0.3357,0.3491,0.4568,0.5513,0.6398,0.7578,0.8765,0.9737,0.9878,1.0567,1.135,1.135,1.1772,1.2322,1.2674,1.2332,1.1748,1.1322,1.1217,1.1286,1.1354,1.1637,1.1891,1.2144,1.2184,1.2278,1.2607,1.2647,1.2665,1.2777,1.2048,1.1033,0.9767,0.8828,0.795,0.697,0.7027,0.7177,0.7333,0.7482,0.7577,0.7597,0.7719,0.8343,0.9457,0.9316,0.9324,0.949,1.0622,1.1283,1.1472,1.2713,1.3366,0.3516,0.2141,0.1137,0.1125,0.0515,0.0,0.0,0.0,0.0,0.0,-0.0907,-0.1808,-0.1794,-0.1663,-0.1534,-0.0942,-0.0831,-0.0628,-0.0086,0.0,0.0,0.0,0.0,0.0237,0.0958,0.0948,0.1182,0.1834,0.1814,0.172,0.172,0.2189,0.2413,0.2463,0.2876,0.3108,0.3078,0.3108,0.3122,0.3122,0.2657,0.2423,0.2423,0.1955,0.1417,0.0875,0.0867,0.1182,0.1749,0.1749,0.1842,0.1952,0.2519,0.2741,0.2866,0.3367,0.3963,0.442,0.4563,0.5341,0.6383,0.7041,0.7974,0.8897,0.9386,1.0295,1.1176,1.1053,1.1742,1.2565,1.2565,1.2779,1.3039,1.3173,1.3013,1.2885,1.3269,1.258,1.1971,1.2131,1.2412,1.2665,1.2786,1.2812,1.2852,1.2986,1.3013,1.3053,1.3186,1.2803,1.2123,1.1105,1.0158,0.9136,0.8201,0.7667,0.7461,0.7611,0.7678,0.8041,0.8898,0.8968,0.9681,1.0932,1.0175,1.0167,1.0932,1.151,1.2182,1.2947,1.3634,1.4208,0.4818,0.3552,0.2557,0.2523,0.1729,0.0923,0.0607,0.0504,0.0404,0.0101,0.0,0.0101,0.0404,0.0197,0.0,0.0,0.0279,0.0452,0.044,0.0688,0.0925,0.0904,0.0888,0.1286,0.2203,0.2173,0.2489,0.3346,0.3294,0.3173,0.3153,0.3388,0.3538,0.3515,0.3748,0.3904,0.3904,0.3904,0.3917,0.3938,0.3702,0.3557,0.3576,0.3338,0.2945,0.2468,0.2125,0.2442,0.318,0.318,0.3308,0.3467,0.3798,0.3957,0.411,0.4347,0.5122,0.6103,0.6204,0.7541,0.9141,0.926,1.0058,1.0931,1.09,1.1623,1.2431,1.2331,1.2849,1.344,1.344,1.3614,1.3718,1.3801,1.3929,1.4038,1.435,1.3668,1.2962,1.2903,1.3053,1.3213,1.3213,1.3213,1.324,1.3307,1.332,1.3373,1.352,1.3547,1.3231,1.2301,1.1554,1.076,0.975,0.9039,0.854,0.8283,0.8609,0.917,0.9993,1.0288,1.1072,1.2425,1.1453,1.1453,1.2425,1.2716,1.3403,1.4364,1.4364,1.5045,0.5927,0.4926,0.392,0.3917,0.3817,0.3419,0.2213,0.1912,0.1511,0.0303,0.0,0.0404,0.1712,0.0906,0.0,0.0,0.0951,0.1685,0.1708,0.2719,0.3432,0.3441,0.3427,0.3427,0.3514,0.351,0.351,0.3597,0.3593,0.3557,0.3399,0.4281,0.4718,0.4613,0.5628,0.6106,0.6106,0.6106,0.6165,0.6298,0.5331,0.49,0.5002,0.4006,0.4089,0.4821,0.3584,0.3124,0.334,0.334,0.3384,0.3721,0.4858,0.5255,0.5437,0.6511,0.7658,0.8703,0.8711,0.9447,1.0312,1.0449,1.124,1.2016,1.2155,1.3014,1.3971,1.3957,1.4041,1.4041,1.4041,1.4625,1.5262,1.5494,1.5953,1.5695,1.3738,1.4009,1.437,1.3331,1.32,1.3213,1.3213,1.3213,1.3307,1.3574,1.3546,1.3828,1.4376,1.4456,1.4112,1.3219,1.3074,1.2621,1.1436,1.1465,1.0934,0.981,1.0941,1.1161,1.01,1.117,1.2425,1.3776,1.368,1.368,1.3776,1.5045,1.5642,1.5737,1.5737,1.6386,0.978,0.8188,0.6597,0.6597,0.5309,0.3914,0.3416,0.2615,0.2113,0.2515,0.1912,0.1712,0.3015,0.2191,0.1576,0.2428,0.297,0.3213,0.3167,0.3522,0.3699,0.3758,0.3663,0.3874,0.4699,0.4643,0.4885,0.5639,0.5655,0.5587,0.5542,0.5876,0.6015,0.5966,0.6377,0.6539,0.6539,0.6539,0.6566,0.662,0.6204,0.6065,0.6108,0.5776,0.5776,0.6102,0.5595,0.5443,0.5527,0.5527,0.56,0.5717,0.6201,0.6873,0.7658,0.8097,0.8973,1.0009,1.0009,1.0727,1.1601,1.1701,1.2445,1.3432,1.3438,1.373,1.425,1.4894,1.5144,1.5296,1.5959,1.6359,1.6605,1.6732,1.7624,1.8089,1.6569,1.6569,1.6424,1.5072,1.5213,1.5234,1.4507,1.4335,1.4376,1.4469,1.4496,1.4563,1.4776,1.4803,1.4665,1.4398,1.3732,1.3171,1.2789,1.2173,1.1636,1.1153,1.1609,1.2037,1.2522,1.2909,1.3788,1.5045,1.514,1.514,1.514,1.5534,1.6197,1.7044,1.7044,1.7684,1.195,1.0654,0.9272,0.9272,0.7687,0.5907,0.5409,0.4314,0.3516,0.3917,0.3316,0.3115,0.4418,0.3976,0.3454,0.3946,0.4369,0.4602,0.4602,0.4842,0.5103,0.5103,0.4984,0.5277,0.6068,0.5999,0.6225,0.6987,0.698,0.0,0.6783,0.6776,0.6756,0.6702,0.6702,0.6702,0.6702,0.6702,0.6729,0.6776,0.6776,0.6803,0.6851,0.6851,0.7013,0.7436,0.7436,0.7154,0.6776,0.7188,0.7451,0.7598,0.8021,0.869,0.9497,0.9497,1.0183,1.1209,1.1209,1.1906,1.2942,1.2942,1.3704,1.4657,1.4657,1.4894,1.5325,1.6246,1.6443,1.664,1.7499,1.7944,1.8168,1.851,1.9354,1.9997,1.9401,1.8984,1.823,1.6408,1.6455,1.6419,1.5218,1.4963,1.4963,1.4963,1.4963,1.5003,1.5097,1.511,1.515,1.5244,1.4663,1.419,1.419,1.3588,1.3017,1.2619,1.3006,1.3403,1.3872,1.4268,1.4949,1.5832,1.5832,1.6008,1.648,1.648,1.6857,1.7684,1.8149,1.8948,0.0,0.0,0.0,1.195,1.0974,0.9698,0.8386,0.7111,0.5722,0.4418,0.4114,0.4518,0.5827,0.6132,0.5627,0.4418,0.5143,0.5863,0.5863,0.6828,0.7604,0.7604,0.7604,0.7597,0.7597,0.7597,0.7536,0.7387,0.738,0.7251,0.6966,0.6946,0.6871,0.6722,0.6715,0.6715,0.6715,0.6715,0.679,0.6932,0.6932,0.7007,0.7224,0.7224,0.7841,0.8982,0.8982,0.8186,0.7104,0.8284,0.8811,0.9061,1.0183,1.0605,1.0616,1.0702,1.1391,1.2334,1.2345,1.3137,1.4179,1.4193,1.4922,1.5809,1.5809,1.655,1.7449,1.7963,1.8062,1.8146,1.8581,1.9173,1.9897,2.0989,2.1269,2.1387,2.1816,2.1024,1.9639,1.7296,1.6873,1.6448,1.5246,1.499,1.499,1.499,1.499,1.5097,1.5378,1.5404,1.5511,1.5805,1.5832,1.5832,1.5832,1.5832,1.5248,1.4064,1.514,1.5248,1.3968,1.514,1.5832,1.5832,1.5832,1.648,1.7777,1.7684,1.7777,1.787,1.9039,2.0223,1.4758,0.0,0.0,0.0,0.0,0.0,1.0956,0.9747,0.8758,0.8393,0.7595,0.7298,0.8605,0.8124,0.7627,0.8202,0.7786,0.7378,0.7378,0.755,0.7753,0.7753,0.7658,0.7597,0.7597,0.7597,0.7584,0.0,0.7536,0.7502,0.7421,0.7312,0.7231,0.719,0.7075,0.7021,0.7021,0.7021,0.7469,0.8384,0.8384,0.8835,0.9662,0.9662,0.9836,1.0096,1.0096,0.9885,0.9579,0.9924,1.0125,1.0183,1.0443,1.1123,1.1832,1.2099,1.2757,1.3613,1.4112,1.4884,1.576,1.5994,1.6829,1.777,1.777,1.8025,1.838,1.9344,1.9614,1.9817,2.0717,2.1097,2.1351,2.1617,2.1934,2.2187,2.2305,2.2302,2.1534,1.8853,1.8572,1.8115,1.5951,1.5591,1.5591,1.5591,1.5591,1.5618,1.5698,1.5712,1.5738,1.5818,1.5832,1.5832,1.5832,1.5832,1.5629,1.5343,1.5629,1.5629,1.5343,1.5629,1.6197,1.7138,1.7124,1.7762,1.9039,1.8149,1.8596,2.0296,2.1587,2.2315,1.5858,1.5248,1.4651,1.4651,0.0,0.0,1.2716,1.1716,1.0733,1.0769,1.0173,0.987,1.0681,1.019,0.9895,1.0681,1.0092,0.9213,0.8137,0.7963,0.7909,0.7909,0.7834,0.7973,0.8542,0.8638,0.8798,0.9288,0.928,0.9059,0.8426,0.8882,0.8643,0.7561,0.845,0.8665,0.8125,0.8665,0.9285,1.0009,1.0009,1.0308,1.0835,1.0936,1.1191,1.1532,1.1641,1.1893,1.2238,1.2238,1.1824,1.1381,1.1821,1.2431,1.3064,1.3424,1.387,1.4421,1.5395,1.6038,1.6586,1.7305,1.8321,1.9264,1.9264,1.9621,2.0165,2.094,2.1278,2.1542,2.202,2.2148,2.2148,2.2148,2.2344,2.2559,2.2734,2.2969,2.2347,1.9664,1.9348,1.8672,1.6197,1.5832,1.5832,1.5832,1.5832,1.5832,1.5832,1.5832,1.5832,1.5832,1.5832,1.5832,1.5832,1.5832,1.5832,1.5832,1.5832,1.6008,1.6574,1.6574,1.7217,1.8411,1.8411,1.9039,2.0223,1.9588,2.0223,2.2031,2.2775,2.3144,1.5992,1.5899,1.5872,1.5872,1.4975,0.0,1.4064,1.3199,1.2339,1.2145,1.2134,1.2134,1.2134,1.2047,1.195,1.2145,1.2047,1.1072,0.8528,0.8329,0.8329,0.8237,0.8329,0.8924,1.0092,1.019,1.0608,1.1667,1.1742,1.1179,0.9868,1.0862,1.0482,0.8088,1.0278,1.0895,0.9705,1.0905,1.1548,1.1731,1.1731,1.1626,1.1526,1.1818,1.2338,1.3045,1.3297,1.381,1.4563,1.4563,1.3771,1.2637,1.3659,1.4193,1.4331,1.4588,1.477,1.5071,1.652,1.7167,1.743,1.8506,1.9641,2.051,2.051,2.1221,2.2109,2.248,2.2852,2.3047,2.2676,2.2578,2.2578,2.2578,2.2578,2.2676,2.3066,2.3144,2.2403,1.9951,1.9497,1.8672,1.6197,1.5832,1.5832,1.5832,1.5832,1.5832,1.5832,1.5832,1.5845,1.5872,1.5872,1.5885,1.5925,1.5925,1.5925,1.6116,1.6116,1.6672,1.7976,1.8069,1.8613,1.9795,1.9978,2.0616,2.1607,2.1516,2.2031,2.3144,2.3184,2.3203,0.0,0.0,0.0,0.0,0.0,0.0,1.5439,1.5248,1.4758,1.368,1.3488,1.3488,1.3488,1.2619,1.2231,1.3295,1.2619,1.1365,0.9805,1.0485,1.0779,0.9706,1.0485,1.1268,1.1463,1.156,1.1638,1.1879,1.1879,1.1763,1.1433,1.1542,1.1452,1.0886,1.1271,1.1365,1.1089,1.1365,1.1914,1.2848,1.2848,1.3369,1.4231,1.4283,1.4372,1.4602,1.4655,1.4744,1.4883,1.4883,1.4608,1.4056,1.409,1.4796,1.5675,1.5747,1.6445,1.7387,1.8185,1.9188,2.0201,2.0607,2.1614,2.2524,2.2524,2.2698,2.291,2.2988,2.3086,2.3125,2.3027,2.3027,2.3027,2.3027,2.3027,2.3027,2.3125,2.3144,2.2403,1.9951,1.9497,1.8672,1.6197,1.5832,1.5832,1.5832,1.5832,1.5832,1.5832,1.5832,1.5925,1.6166,1.6192,1.6286,1.6513,1.654,1.7021,1.8072,1.8169,1.8738,2.0164,2.0181,2.0752,2.1995,2.2927,2.3591,2.3775,2.3102,2.2862,2.3144,2.3496,2.3672,0.0,0.0,0.0,1.6486,0.0,0.0,0.0,1.745,1.7755,1.6908,1.6236,1.5967,1.6598,1.5657,1.5184,1.649,1.6101,1.524,1.3874,1.2684,1.1658,1.0974,1.156,1.2134,1.2813,1.2909,1.3199,1.3788,1.3884,1.3596,1.2909,1.3469,1.3115,1.1874,1.2991,1.3298,1.2736,1.3298,1.3963,1.4545,1.4545,1.4759,1.5177,1.5324,1.5324,1.5281,1.6057,1.6301,1.6145,1.6758,1.6936,1.6653,1.5821,1.6104,1.7069,1.7502,1.7975,1.8679,1.9744,2.0554,2.1207,2.1975,2.258,2.3144,2.3144,2.3144,2.3144,2.3144,2.3144,2.3144,2.3144,2.3144,2.3144,2.3144,2.3144,2.3144,2.3144,2.3144,2.2656,2.1028,2.013,1.8862,1.6224,1.5832,1.5832,1.5832,1.5952,1.6046,1.6046,1.6179,1.6326,1.6473,1.6486,1.6837,1.7669,1.7683,1.8262,1.97,1.97,2.028,2.164,2.1735,2.2303,2.3467,2.4137,2.4414,2.4414,2.3984,2.3769,2.3789,2.4004,2.4102,0.0,0.0,0.0,0.0,0.0,1.8679,0.0,0.0,0.0,1.9662,1.8875,1.8396,1.933,1.8688,1.8411,1.9314,1.9497,1.9099,1.8011,1.5321,1.3284,1.3136,1.3017,1.3499,1.4617,1.4484,1.4651,1.5737,1.5832,1.5343,1.4364,1.5248,1.4854,1.2727,1.4663,1.5343,1.4268,1.5248,1.5832,1.5832,1.6021,1.6074,1.5855,1.6275,1.6434,1.6303,1.7472,1.7888,1.7704,1.8783,1.9284,1.9272,1.7771,1.7674,1.8566,1.9107,1.9519,1.9886,2.1085,2.1603,2.1836,2.2775,2.3144,2.3144,2.3144,2.3144,2.3144,2.3144,2.3144,2.3144,2.3144,2.3144,2.3144,2.3144,2.3203,2.3262,2.3262,2.332,2.3121,2.2263,2.1188,1.9571,1.688,1.6184,1.5992,1.5992,1.6206,1.6353,1.6353,1.6751,1.7114,1.7182,1.7369,1.7981,1.9216,1.933,1.9905,2.1269,2.1366,2.1944,2.3125,2.322,2.3617,2.4668,2.4668,2.4668,2.4668,2.4668,2.459,2.4414,2.4512,2.4531,0.0,0.0,0.0,0.0,1.8766,0.0,0.0,0.0,2.0595,2.0135,0.0,1.9783,1.9546,0.0,0.0,1.9497,1.9497,1.948,1.9298,1.8915,1.835,1.7545,1.7225,1.7225,1.7787,1.6429,1.5629,1.5832,1.5832,1.5737,1.5629,1.5737,1.5642,1.5343,1.5629,1.5737,1.5629,1.5737,1.5832,1.5832,1.6951,1.7483,1.7453,1.8564,1.9099,1.9066,1.9206,1.9281,1.9248,1.943,1.986,2.041,1.8988,1.9195,2.0372,2.0103,2.0948,2.2159,2.2302,2.264,2.295,2.3057,2.3144,2.3144,2.3144,2.3144,2.3144,2.3144,2.3144,2.3144,2.3144,2.3144,2.3144,2.3144,2.3437,2.3711,2.3711,2.4004,2.3909,2.272,2.2438,2.1458,1.8829,1.7372,1.6607,1.6607,1.6633,1.666,1.666,1.7754,1.8563,1.8858,1.9959,2.0866,2.1293,2.1325,2.1929,2.326,2.3359,2.3969,2.5295,2.5392,2.5392,2.5586,2.5586,2.5586,2.5586,2.5586,2.5195,2.4434,2.4805,2.5,0.0,0.0,0.0,0.0,0.0,0.0,2.2056,0.0,2.3202,0.0,0.0,0.0,0.0,0.0,0.0,0.0,2.2025,2.1861,2.1624,2.1587,2.0907,1.9184,0.0,0.0,1.897,1.8396,1.7933,1.7933,1.7311,1.6951,1.6951,1.6197,1.5832,1.5832,1.5832,1.5832,1.5832,1.6574,1.6951,1.6951,1.8133,1.878,1.878,1.9314,1.9497,1.9588,2.0206,2.0567,2.0567,2.1302,2.1762,2.2032,2.141,2.1404,2.1797,2.1854,2.2265,2.2871,2.2871,2.2988,2.3144,2.3144,2.3144,2.3144,2.3144,2.3144,2.3144,2.3144,2.3144,2.3144,2.3144,2.332,2.3516,2.3516,2.3848,2.416,2.416,2.4297,2.4307,2.407,2.3426,2.2522,2.1756,2.0165,1.9131,1.9131,1.9185,1.9308,1.9308,1.9975,2.0464,2.0607,2.1127,2.1879,2.275,2.2868,2.3384,2.4824,2.5149,2.5595,2.6465,2.6484,2.6484,2.6484,2.6484,2.6484,2.6484,2.6484,2.6289,2.5918,2.5605,2.5449,1.9627,0.0,0.0,0.0,0.0,0.0,0.0,0.0,0.0,0.0,0.0,0.0,0.0,0.0,2.2906,2.3719,0.0,2.3633,2.3203,2.3144,2.2549,2.0905,2.0463,0.0,0.0,1.9695,1.9629,1.9629,1.8735,1.8226,1.8226,1.703,1.6292,1.6292,1.6292,1.6292,1.6292,1.7591,1.8226,1.8226,1.9405,2.0025,2.0025,2.0314,2.0494,2.0494,2.1391,2.1747,2.1854,2.2775,2.3144,2.3144,2.3144,2.2949,2.2715,2.3027,2.3144,2.3144,2.3144,2.3144,2.3144,2.3144,2.3144,2.3144,2.3144,2.3144,2.3144,2.3144,2.3223,2.332,2.332,2.3633,2.3965,2.3965,2.4277,2.459,2.459,2.4687,2.4883,2.5195,2.4449,2.3846,2.4159,2.2512,2.1062,2.1062,2.118,2.1396,2.1495,2.2047,2.2452,2.2554,2.2978,2.3586,2.4527,2.4627,2.5045,2.5976,2.6387,2.6699,2.7012,2.7012,2.7012,2.7012,2.7012,2.7012,2.7012,2.7012,2.7012,2.6992,2.6367,2.6094,0.0,0.0,0.0,2.3285,0.0,0.0,0.0,0.0,2.5586,0.0,0.0,0.0,0.0,2.4322,2.4166,2.3848,2.3789,0.0,0.0,2.3144,2.3213,2.3621,2.3,2.2079,0.0,2.0301,2.0102,2.0102,1.9678,1.9405,1.9405,1.8319,1.7591,1.7591,1.7591,1.7591,1.7591,1.8856,1.9405,1.9497,2.0657,2.1194,2.1302,2.2492,2.295,2.295,2.3038,2.3057,2.3057,2.3057,2.3144,2.3144,2.3144,2.3125,2.3125,2.3125,2.3144,2.3144,2.3144,2.3144,2.3144,2.3144,2.3144,2.3144,2.3144,2.3144,2.3144,2.3144,2.3437,2.3769,2.3769,2.4082,2.4394,2.4394,2.4727,2.5039,2.5039,2.5391,2.5703,2.5723,2.5625,2.5625,2.5625,2.3466,2.1711,2.1711,2.1727,2.186,2.2241,2.3425,2.4404,2.4887,2.6012,2.6871,2.6871,2.6871,2.6871,2.6973,2.6992,2.7012,2.7012,2.7012,2.7012,2.7012,2.7012,2.7012,2.7012,2.7012,2.7012,2.7012,2.6992,2.6973,0.0,0.0,2.4846,2.4998,0.0,0.0,0.0,0.0,0.0,0.0,0.0,0.0,0.0,0.0,2.4805,2.4668,2.4629,2.4492,0.0,2.3984,2.4141,2.459,2.4121,2.354,2.2889,0.0,2.2444,2.2076,2.1195,2.0657,2.0657,1.9588,1.8968,1.9284,1.9076,1.906,1.9301,2.0252,2.0657,2.0657,2.1943,2.2492,2.2492,2.295,2.3144,2.3144,2.3144,2.3144,2.3144,2.3144,2.3144,2.3144,2.3144,2.3144,2.3144,2.3144,2.3144,2.3144,2.3144,2.3144,2.3144,2.3144,2.334,2.3574,2.3574,2.3769,2.3984,2.3984,2.4082,2.4199,2.4199,2.4531,2.4844,2.4844,2.5195,2.5508,2.5508,2.5859,2.6172,2.6172,2.6387,2.6582,2.6582,2.5838,2.5117,2.4857,2.5043,2.5266,2.5396,2.5843,2.6104,2.6359,2.6686,2.7012,2.7012,2.7012,2.7129,2.7422,2.7441,2.7578,2.7851,2.7871,2.7871,2.7871,2.7871,2.7871,2.7871,2.7871,2.7871,2.7871,2.7871,2.7559,2.3683,2.4914,0.0,2.5801,2.5957,0.0,2.5801,0.0,0.0,0.0,0.0,0.0,0.0,0.0,0.0,2.5117,2.5059,2.4922,0.0,2.4551,2.4746,2.5039,2.4824,2.4531,2.4277,2.4102,2.3828,2.3398,2.2479,2.1943,0.0,0.0,2.0303,2.0771,2.0549,2.06,2.0977,2.1808,2.2165,2.2165,2.2832,2.3144,2.3144,2.3144,2.3144,2.3144,2.3144,2.3144,2.3144,2.3144,2.3144,2.3144,2.3144,2.3144,2.3144,2.3144,2.3242,2.3379,2.3379,2.3457,2.3594,2.3594,2.3789,2.4004,2.4004,2.4199,2.4414,2.4414,2.4531,2.4687,2.4844,2.5215,2.5566,2.5723,2.5977,2.6191,2.6191,2.6406,2.6602,2.6602,2.6836,2.7012,2.7012,2.7148,2.7109,2.668,2.6836,2.707,2.7226,2.7246,2.7305,2.7461,2.7461,2.7539,2.7676,2.7695,2.7871,2.832,2.834,2.8457,2.873,2.875,2.875,2.875,2.8594,2.8516,2.8516,2.8359,2.8301,2.8301,2.8301,2.7988]},{"header":{"parameterUnit":"m.s-1","parameterCategory":1,"la1":30.6,"la2":29.2853,"lo1":-89.7004,"lo2":-87.6739,"dy":0.0162,"dx":0.0183,"nx":112,"ny":82,"refTime":"2023-06-02T12:00:00:Z","depth":0,"parameterNumber":3,"parameterNumberName":"V-component_of_WINDS"},"data":[0.0,0.0,0.0,0.0,0.0,0.0,0.0,0.0,0.0,0.0,0.0,0.0,0.0,0.0,0.0,0.0,0.0,0.0,0.0,0.0,0.0,0.0,0.0,0.0,0.0,0.0,0.0,0.0,0.0,0.0,0.0,0.0,0.0,0.0,0.0,0.0,0.0,0.0,0.0,0.0,0.0,0.0,0.0,0.0,0.0,0.0,0.0,0.0,0.0,0.0,0.0,0.0,0.0,0.0,0.0,0.0,0.0,0.0,0.0,0.0,0.0,0.0,0.0,0.0,0.0,0.0,0.0,0.0,0.0,0.0,0.0,0.0,0.0,0.0,0.0,0.0,0.0,0.0,0.0,0.0,0.0,0.0,0.0,0.0,0.0,0.0,0.0,0.0,0.0,0.0,3.4989,3.5779,3.6317,3.4755,3.0242,2.8862,2.6151,2.118,0.0,0.0,0.0,0.0,0.0,0.0,0.0,0.0,0.0,0.0,0.0,0.0,0.0,0.0,0.0,0.0,0.0,0.0,0.0,0.0,0.0,0.0,0.0,0.0,0.0,0.0,0.0,0.0,0.0,0.0,0.0,0.0,0.0,0.0,0.0,0.0,0.0,0.0,0.0,0.0,0.0,0.0,0.0,0.0,0.0,0.0,0.0,0.0,0.0,0.0,0.0,0.0,0.0,0.0,0.0,0.0,0.0,0.0,0.0,0.0,0.0,0.0,0.0,0.0,0.0,0.0,0.0,0.0,0.0,0.0,0.0,0.0,0.0,0.0,0.0,0.0,0.0,0.0,0.0,0.0,0.0,0.0,0.0,0.0,0.0,0.0,0.0,0.0,0.0,0.0,0.0,0.0,0.0,0.0,0.0,0.0,0.0,0.0,0.0,0.0,0.0,0.0,0.0,0.0,3.3693,3.3612,3.2455,2.9674,2.4709,2.2252,1.6356,0.5718,0.0,0.0,0.0,0.0,0.0,0.0,0.0,0.0,0.0,0.0,0.0,0.0,0.0,0.0,0.0,0.0,0.0,0.0,0.0,0.0,0.0,0.0,0.0,0.0,0.0,0.0,0.0,0.0,0.0,0.0,0.0,0.0,0.0,0.0,0.0,0.0,0.0,0.0,0.0,0.0,0.0,0.0,0.0,0.0,0.0,0.0,0.0,0.0,0.0,0.0,0.0,0.0,0.0,0.0,0.0,0.0,0.0,0.0,0.0,0.0,0.0,0.0,0.0,0.0,0.0,0.0,0.0,0.0,0.0,0.0,0.0,0.0,0.0,0.0,0.0,0.0,0.0,0.0,0.0,0.0,0.0,0.0,0.0,0.0,0.0,0.0,0.0,0.0,0.0,0.0,0.0,0.0,0.0,0.0,0.0,0.0,0.0,0.0,0.0,0.0,0.0,0.0,0.0,3.4831,3.4413,3.2205,2.9116,2.5203,2.0147,1.6734,1.1874,0.4964,0.6044,0.0,0.0,0.0,0.0,0.0,0.0,0.0,0.0,0.0,0.0,0.0,0.0,0.0,0.0,0.0,0.0,0.0,0.0,0.0,0.0,0.0,0.0,0.0,0.0,0.0,0.0,0.0,0.0,0.0,0.0,0.0,0.0,0.0,0.0,0.0,0.0,0.0,0.0,0.0,0.0,0.0,0.0,0.0,0.0,0.0,0.0,0.0,0.0,0.0,0.0,0.0,0.0,0.0,0.0,0.0,0.0,0.0,0.0,0.0,0.0,0.0,0.0,0.0,0.0,0.0,0.0,0.0,0.0,0.0,0.0,0.0,0.0,0.0,0.0,0.0,0.0,0.0,0.0,0.0,0.0,0.0,0.0,0.0,0.0,0.0,0.0,0.0,0.0,0.0,0.0,0.0,0.0,0.0,0.0,0.0,0.0,0.0,0.0,0.0,0.0,0.0,0.0,3.5284,3.3772,2.9839,2.5563,2.101,1.6195,1.2116,0.7926,0.3629,-0.1839,0.0,0.0,0.0,0.0,0.0,0.0,0.0,0.0,0.0,0.0,0.0,0.0,0.0,0.0,0.0,0.0,0.0,0.0,0.0,0.0,0.0,0.0,0.0,0.0,0.0,0.0,0.0,0.0,0.0,0.0,0.0,0.0,0.0,0.0,0.0,0.0,0.0,0.0,0.0,0.0,0.0,0.0,0.0,0.0,0.0,0.0,0.0,0.0,0.0,0.0,0.0,0.0,0.0,0.0,0.0,0.0,0.0,0.0,0.0,0.0,0.0,0.0,0.0,0.0,0.0,0.0,0.0,0.0,0.0,0.0,0.0,0.0,0.0,0.0,0.0,0.0,0.0,0.0,0.0,0.0,0.0,0.0,0.0,0.0,0.0,0.0,0.0,0.0,0.0,0.0,0.0,0.0,0.0,0.0,0.0,0.0,0.0,0.0,0.0,0.0,0.0,0.0,3.1996,2.9347,2.512,2.1094,1.7129,1.3151,0.8529,0.2119,-0.6845,-1.0563,0.0,0.0,0.0,0.0,0.0,0.0,0.0,0.0,0.0,0.0,0.0,0.0,0.0,0.0,0.0,0.0,0.0,0.0,0.0,0.0,0.0,0.0,0.0,0.0,0.0,0.0,0.0,0.0,0.0,0.0,0.0,0.0,0.0,0.0,0.0,0.0,0.0,0.0,0.0,0.0,0.0,0.0,0.0,0.0,0.0,0.0,0.0,0.0,0.0,0.0,0.0,0.0,0.0,0.0,0.0,0.0,0.0,0.0,0.0,0.0,0.0,0.0,0.0,0.0,0.0,0.0,0.0,0.0,0.0,0.0,0.0,0.0,0.0,0.0,0.0,0.0,0.0,0.0,0.0,0.0,0.0,0.0,0.0,0.0,0.0,0.0,0.0,0.0,0.0,0.0,0.0,0.0,0.0,0.0,0.0,0.0,0.0,0.0,0.0,0.0,0.0,0.0,2.9082,2.588,2.2027,1.7149,1.3437,1.1402,0.7628,0.2012,-0.6033,0.0,0.0,0.0,0.0,0.0,0.0,0.0,0.0,0.0,0.0,0.0,0.0,0.0,0.0,0.0,0.0,0.0,0.0,0.0,0.0,0.0,0.0,0.0,0.0,0.0,0.0,0.0,0.0,0.0,0.0,0.0,0.0,0.0,0.0,0.0,0.0,0.0,0.0,0.0,0.0,0.0,0.0,0.0,0.0,0.0,0.0,0.0,0.0,0.0,0.0,0.0,0.0,0.0,0.0,0.0,0.0,0.0,0.0,0.0,0.0,0.0,0.0,0.0,0.0,0.0,0.0,0.0,0.0,0.0,0.0,0.0,0.0,0.0,0.0,0.0,0.0,0.0,0.0,0.0,0.0,0.0,0.0,0.0,0.0,0.0,0.0,0.0,0.0,0.0,0.0,0.0,0.0,0.0,0.0,0.0,0.0,0.0,0.0,0.0,0.0,0.0,0.0,2.9955,2.6297,2.2535,1.9353,1.4367,1.0739,0.9478,0.6215,0.1422,-0.5072,0.0,0.0,0.0,0.0,0.0,0.0,0.0,0.0,0.0,0.0,0.0,0.0,0.0,0.0,0.0,0.0,0.0,0.0,0.0,0.0,0.0,0.0,0.0,0.0,0.0,0.0,0.0,0.0,0.0,0.0,0.0,0.0,0.0,0.0,0.0,0.0,0.0,0.0,0.0,0.0,0.0,0.0,0.0,0.0,0.0,0.0,0.0,0.0,0.0,0.0,0.0,0.0,0.0,0.0,0.0,0.0,0.0,0.0,0.0,0.0,0.0,0.0,0.0,0.0,0.0,0.0,0.0,0.0,0.0,0.0,0.0,0.0,0.0,0.0,0.0,0.0,0.0,0.0,0.0,0.0,0.0,0.0,0.0,0.0,0.0,0.0,0.0,0.0,0.0,0.0,0.0,0.0,0.0,0.0,0.0,0.0,0.0,0.0,0.0,0.0,0.0,0.0,2.8449,2.358,1.9339,1.7004,1.2739,0.9236,0.7027,0.3796,-0.0321,0.0,0.0,0.0,0.0,0.0,0.0,0.0,0.0,0.0,0.0,0.0,0.0,0.0,0.0,0.0,0.0,0.0,0.0,0.0,0.0,0.0,0.0,0.0,0.0,0.0,0.0,0.0,0.0,0.0,0.0,0.0,0.0,0.0,0.0,0.0,0.0,0.0,0.0,0.0,0.0,0.0,0.0,0.0,0.0,0.0,0.0,0.0,0.0,0.0,0.0,0.0,0.0,0.0,0.0,0.0,0.0,0.0,0.0,0.0,0.0,0.0,0.0,0.0,0.0,0.0,0.0,0.0,0.0,0.0,0.0,0.0,0.0,0.0,0.0,0.0,0.0,0.0,0.0,0.0,0.0,0.0,0.0,0.0,0.0,0.0,0.0,0.0,0.0,0.0,0.0,0.0,0.0,0.0,0.0,0.0,0.0,0.0,0.0,0.0,0.0,0.0,0.0,0.0,2.3929,2.008,1.6475,1.3443,0.9968,0.7244,0.5728,0.325,0.0574,-0.2404,0.0,0.0,0.0,0.0,0.0,0.0,0.0,0.0,0.0,0.0,0.0,0.0,0.0,0.0,0.0,0.0,0.0,0.0,0.0,0.0,0.0,0.0,0.0,0.0,0.0,0.0,0.0,0.0,0.0,0.0,0.0,0.0,0.0,0.0,0.0,0.0,0.0,0.0,0.0,0.0,0.0,0.0,0.0,0.0,0.0,0.0,0.0,0.0,0.0,0.0,0.0,0.0,0.0,0.0,0.0,0.0,0.0,0.0,0.0,0.0,0.0,0.0,0.0,0.0,0.0,0.0,0.0,0.0,0.0,0.0,0.0,0.0,0.0,0.0,0.0,0.0,0.0,0.0,0.0,0.0,0.0,0.0,0.0,0.0,0.0,0.0,0.0,0.0,0.0,0.0,0.0,0.0,0.0,0.0,0.0,0.0,0.0,0.0,0.0,0.0,0.0,0.0,2.128,1.7263,1.39,1.1756,0.8239,0.5513,0.4371,0.2728,0.0656,-0.1844,0.0,0.0,0.0,0.0,0.0,0.0,0.0,0.0,0.0,0.0,0.0,0.0,0.0,0.0,0.0,0.0,0.0,0.0,0.0,0.0,0.0,0.0,0.0,0.0,0.0,0.0,0.0,0.0,0.0,0.0,0.0,0.0,0.0,0.0,0.0,0.0,0.0,0.0,0.0,0.0,0.0,0.0,0.0,0.0,0.0,0.0,0.0,0.0,0.0,0.0,0.0,0.0,0.0,0.0,0.0,0.0,0.0,0.0,0.0,0.0,0.0,0.0,0.0,0.0,0.0,0.0,0.0,0.0,0.0,0.0,0.0,0.0,0.0,0.0,0.0,0.0,0.0,0.0,0.0,0.0,0.0,0.0,0.0,0.0,0.0,0.0,0.0,0.0,0.0,0.0,0.0,0.0,0.0,0.0,0.0,0.0,0.0,0.0,0.0,0.0,0.0,0.0,1.932,1.4898,1.1672,1.1106,0.7179,0.4116,0.3154,0.2108,0.0243,-0.2658,0.0,0.0,0.0,0.0,0.0,0.0,0.0,0.0,0.0,0.0,0.0,0.0,0.0,0.0,0.0,0.0,0.0,0.0,0.0,0.0,0.0,0.0,0.0,0.0,0.0,0.0,0.0,0.0,0.0,0.0,0.0,0.0,0.0,0.0,0.0,0.0,0.0,0.0,0.0,0.0,0.0,0.0,0.0,0.0,0.0,0.0,0.0,0.0,0.0,0.0,0.0,0.0,0.0,0.0,0.0,0.0,0.0,0.0,0.0,0.0,0.1569,0.0,0.0,0.0,0.0,0.0,0.0,0.0,0.0,0.0,0.0,0.0,0.0,0.0,0.0,0.0,0.0,0.0,0.0,0.0,0.0,0.0,0.0,0.0,0.0,0.0,0.0,0.0,0.0,0.0,0.0,0.0,0.0,0.0,0.0,0.0,0.0,0.0,0.0,0.0,0.0,0.0,1.3628,1.1846,1.0353,0.8732,0.5479,0.3331,0.315,0.1379,0.0081,-0.0649,-0.2081,0.0,0.0,0.0,0.0,0.0,0.0,0.0,0.0,0.0,0.0,0.0,0.0,0.0,0.0,0.0,0.0,0.0,0.0,0.0,0.0,0.0,0.0,0.0,0.0,0.0,0.0,0.0,0.0,0.0,0.0,0.0,0.0,0.0,0.0,0.0,0.0,0.0,0.0,0.0,0.0,0.0,0.0,0.0,0.0,0.0,0.0,0.0,0.0,0.0,0.0,0.0,0.0,0.0,0.0,0.0,0.0,0.0,0.0,0.0,0.0,-0.0379,0.0,0.0,0.0,0.0,0.0,0.0,0.0,0.0,0.0,0.0,0.0,0.0,0.0,0.0,0.0,0.0,0.0,0.0,0.0,0.0,0.0,0.0,0.0,0.0,0.0,0.0,0.0,0.0,0.0,0.0,0.0,0.0,0.0,0.0,0.0,0.0,0.0,0.0,0.0,0.0,1.1064,0.9889,0.8893,0.7931,0.543,0.3655,0.3183,0.1627,0.0573,0.0,-0.0866,0.0,0.0,0.0,0.0,0.0,0.0,0.0,0.0,0.0,0.0,0.0,0.0,0.0,0.0,0.0,0.0,0.0,0.0,0.0,0.0,0.0,0.0,0.0,0.0,0.0,0.0,0.0,0.0,0.0,0.0,0.0,0.0,0.0,0.0,0.0,0.0,0.0,0.0,0.0,0.0,0.0,0.0,0.0,0.0,0.0,0.0,0.0,0.0,0.0,0.0,0.0,0.0,0.0,0.0,0.0,0.0,0.0,0.0,0.0,0.0,0.0,-0.0096,-0.1049,0.0,0.0,0.0,0.0,0.0,0.0,0.0,0.0,0.0,0.0,0.0,0.0,0.0,0.0,0.0,0.0,0.0,0.0,0.0,0.0,0.0,0.0,0.0,0.0,0.0805,0.1079,0.0,0.0,0.0,0.0,0.0,0.0,0.0,0.0,0.0,0.0,0.0,0.0,0.9601,0.8487,0.771,0.7557,0.5871,0.4236,0.3224,0.2201,0.1151,0.008,0.0,-0.0318,0.0,0.0,0.0,0.0,0.0,0.0,0.0,0.0,0.0,0.0,0.0,0.0,0.0,0.0,0.0,0.0,0.0,0.0,0.0,0.0,0.0,0.0,0.0,0.0,0.0,0.0,0.0,0.0,0.0,0.0,0.0,0.0,1.1026,1.074,0.0,0.0,0.0,0.0,0.0,0.0,0.0,0.0,0.0,0.0,0.0,0.0,0.0,0.0,0.0,0.0,0.0,0.0,0.0,0.0,0.0,0.0,0.0,0.0,0.0,0.0,0.0,-0.0192,0.0,0.0,0.0,0.0,0.0,0.0,0.0,0.0,0.0,0.0,0.0,0.0,0.0,0.0,0.0,0.0,0.0,0.0,0.0,0.0,0.0,0.0,-0.3001,-0.1789,-0.1543,-0.1184,0.0,0.0345,0.0684,0.2153,0.2304,0.0,0.0,0.0,0.0,0.0,0.0,0.0,0.7057,0.7387,0.748,0.6563,0.5407,0.427,0.3217,0.2192,0.115,0.0083,0.0,-0.0079,-0.0161,-0.0074,0.0,0.0,0.0,0.0,0.0,0.0,0.0,0.0,0.0,0.0,0.0,0.0,0.0,0.0,0.0,0.0,0.0,0.0,0.0,0.0,0.0,0.0,0.0,0.0,0.0,0.0,0.0,0.0,0.0,1.2265,1.0711,1.0949,0.8755,0.7204,0.0,0.0,0.0,0.0,0.0,0.0,0.0,0.0,0.0,0.0,0.0,0.0,0.0,0.0,0.0,0.0,0.0,0.0,0.0,0.0,0.0,0.0,0.0,0.0,0.0,0.0,0.0,-0.0095,0.0,0.0,0.0,0.0,-0.5946,-0.7005,-0.5891,-0.5817,0.0,-0.4928,0.0,0.0,0.0,0.0,0.0,0.0,0.0,0.0,0.0,0.0,-0.4349,-0.2365,-0.2497,-0.2427,-0.046,0.0,0.0532,0.0,0.2522,0.3243,0.6,0.0,0.0,0.0,0.0,0.7326,0.6416,0.6718,0.6795,0.6338,0.5867,0.4894,0.3231,0.2703,0.1734,0.0083,0.0,0.0,0.0,0.0,-0.0593,0.0,0.0,0.0,0.0,0.0,0.0,0.0,0.0,0.0,0.0,0.0,0.0,0.0,0.0,0.0,0.0,0.0,0.0,0.0,0.0,0.0,0.0,0.0,0.0,0.0,0.0,0.0,0.0,1.2215,1.0622,1.0778,0.8957,0.7597,0.0,0.0,0.0,0.0,0.0,0.0,0.4273,0.2949,0.1461,0.0,0.0,0.0,0.0,0.0,0.0,0.0,0.0,0.0,0.0,0.0,0.0,0.0,0.0,0.0,0.0,0.0,0.0,-0.0098,-0.085,-0.223,-0.3704,-0.4468,-0.586,-0.7336,-0.6409,-0.611,-0.5888,-0.5099,0.0,-0.491,-0.5629,0.0,0.0,0.0,0.0,-0.7424,-0.6016,-0.5874,-0.5425,-0.294,-0.3077,-0.3105,-0.0563,0.0,0.0721,0.0,0.3306,0.3984,0.6172,0.0,0.0,0.0,0.0,0.6338,0.6338,0.6338,0.6338,0.6338,0.6338,0.5514,0.3683,0.3258,0.246,0.0894,0.0575,0.0408,0.0397,0.0392,0.0,-0.0956,0.0,0.0,0.0,0.0,0.0,0.0,0.0,0.0,0.0,0.0,0.0,0.0,0.0,0.0,0.0,0.0,0.0,0.0,0.0,0.0,0.0,0.0,0.0,0.0,0.0,0.0,0.0,0.0,0.0,0.9897,0.8939,0.0,0.0,0.0,0.0,0.5586,0.5679,0.4834,0.2673,0.247,0.1663,0.0,0.0,0.0,0.0,0.0,0.0,0.0,0.0,0.0,0.0,0.0,0.0,0.0,0.0,0.0,0.0,0.0,0.0,0.0,-0.0096,-0.1615,-0.3789,-0.388,-0.5492,-0.759,-0.7496,-0.7396,-0.7302,-0.7343,-0.7996,-0.8566,-0.8547,-0.9935,0.0,0.0,-0.9349,-0.9602,-0.7803,-0.7262,-0.6715,-0.4235,-0.3779,-0.3121,-0.0543,0.0,0.0705,0.0,0.3325,0.3859,0.6274,0.0,0.6268,0.6261,0.6338,0.6338,0.6338,0.6338,0.6338,0.6338,0.6338,0.5867,0.4696,0.3682,0.3084,0.2989,0.2066,0.1509,0.1539,0.1552,0.0984,-0.0076,-0.0934,0.0,0.0,0.0,0.0,0.0,0.0,0.0,0.0,0.0,0.0,0.0,0.0,0.0,0.0,0.0,0.0,0.0,0.0,0.0,0.0,0.0,0.0,0.0,0.0,0.0,0.0,0.0,0.0,0.9828,0.9021,0.0,0.8065,0.816,0.7604,0.592,0.4534,0.3455,0.2615,0.1526,0.0547,0.0,0.0,0.0,0.0,0.0,0.0,0.0,0.0,0.0,0.0,0.0,0.0,0.0,0.0,0.0,0.0,0.0,0.0,0.0,0.0,-0.1086,-0.2759,-0.3644,-0.4979,-0.6588,-0.755,-0.7658,-0.7346,-0.721,-0.7869,-0.8785,-0.8709,-0.9731,-1.0543,-0.9249,-0.9044,-0.8992,-0.7546,-0.6681,-0.5668,-0.4086,-0.3099,-0.2028,-0.0346,0.0513,0.1535,0.3114,0.332,0.3918,0.6159,0.6464,0.6369,0.6274,0.6338,0.6227,0.6125,0.62,0.622,0.6125,0.62,0.5937,0.4895,0.4433,0.3634,0.2316,0.2432,0.1995,0.0636,0.125,0.0838,-0.0812,-0.1159,-0.1268,0.0,0.0,0.0,0.0,0.0,0.0,0.0,0.0,0.0,0.0,0.0,0.0,0.0,0.0,0.0,0.0,0.0,0.0,0.0,0.0,0.0,0.0,0.0,0.0,0.0,1.0396,0.9957,0.9322,0.9075,0.8743,0.8445,0.8642,0.7883,0.566,0.4132,0.2945,0.1808,0.0678,0.0,0.0,0.0,0.0,0.0,0.0,0.0,0.0,0.0,0.0,0.0,0.0,0.0,0.0,0.0,0.0,0.0,0.0,0.0,0.0,-0.0504,-0.1511,-0.2814,-0.4218,-0.548,-0.6703,-0.7596,-0.7665,-0.7333,-0.7082,-0.7763,-0.8785,-0.8785,-0.9545,-1.0254,-0.92,-0.8894,-0.8536,-0.6959,-0.598,-0.4975,-0.3396,-0.2077,-0.1034,-0.0169,0.1086,0.2318,0.3065,0.356,0.4367,0.6163,0.643,0.6369,0.6274,0.6338,0.622,0.6118,0.6152,0.6166,0.6112,0.6152,0.597,0.5387,0.4598,0.3782,0.2861,0.2964,0.2287,0.0628,0.1478,0.0917,-0.1343,-0.1394,-0.1067,-0.0408,0.0,0.0,0.0,0.0,0.0,0.0,0.0,0.0,0.0,0.0,0.0,0.0,0.0,0.0,0.0,0.0,0.0,0.0,0.0,0.0,0.0,0.0,0.0,1.1606,1.0726,0.979,0.8501,0.8804,0.9042,0.8764,0.913,0.8037,0.47,0.4651,0.3379,0.0115,0.0,0.0,0.0,0.0,0.0,0.0,0.0,0.0,0.0,0.0,0.0,0.0,0.0,0.0,0.0101,0.0,0.0,0.0101,0.0,0.0,-0.0101,-0.141,-0.2714,-0.4017,-0.5422,-0.6725,-0.7885,-0.7685,-0.7489,-0.7346,-0.719,-0.7929,-0.8894,-0.8894,-0.9662,-1.0269,-0.9148,-0.8798,-0.836,-0.6068,-0.5359,-0.4705,-0.2348,-0.095,-0.0086,0.0084,0.1728,0.3154,0.3154,0.404,0.509,0.6304,0.6349,0.6338,0.6338,0.6338,0.0,0.6331,0.6125,0.6091,0.624,0.6125,0.6098,0.6254,0.4375,0.3593,0.4608,0.3591,0.2594,0.1642,0.2444,0.1447,-0.1561,-0.1564,-0.0645,0.1186,0.0,0.0,0.0,0.0,0.0,0.0,0.0,0.0,0.0,0.0,0.0,0.0,0.0,0.0,0.0,0.0,0.0,0.0,0.0,0.0,0.0,1.294,1.28,1.0687,1.0552,1.0241,0.9099,0.9055,0.9211,0.9347,0.9374,0.8108,0.4857,0.4708,0.3279,0.0117,0.0,0.0,0.0,0.0,0.0,0.0,0.0,0.0,0.0,0.0,0.0,0.0,0.0,0.0504,0.141,0.0404,0.0504,0.141,0.0404,0.0,0.0,-0.0404,-0.0806,-0.1308,-0.2576,-0.4489,-0.6519,-0.7002,-0.7312,-0.7346,-0.719,-0.7929,-0.8719,-0.7841,-0.8448,-0.9148,-0.7929,-0.7577,-0.7489,-0.6782,-0.5385,-0.3732,-0.2286,-0.0417,0.1313,0.2084,0.3328,0.4261,0.4261,0.498,0.5797,0.6302,0.6288,0.6338,0.6338,0.6949,0.0,0.618,0.6829,0.6995,0.6173,0.6159,0.6254,0.6403,0.5839,0.5234,0.4763,0.4963,0.4006,0.1449,0.2382,0.1531,-0.13,-0.1352,-0.1115,0.0,0.0,0.0,0.0,0.0,0.0,0.0,0.0,0.0,0.0,0.0,0.0,0.0,0.0,0.0,0.0,0.0,0.0,0.0,0.0,0.0,0.0,1.4508,1.4401,1.2486,1.1992,1.1402,1.0447,1.0198,0.9924,0.9607,0.9435,0.8353,0.5818,0.5655,0.4558,0.1977,0.1261,0.0899,0.0875,0.0862,0.0851,0.0843,0.1447,0.1637,0.1637,0.1721,0.1712,0.1712,0.1712,0.2113,0.0,0.2012,0.1813,0.1912,0.121,0.0504,0.0,0.0,0.0,0.0,0.0,-0.451,-0.5882,-0.684,-0.7251,-0.7258,-0.717,-0.7577,-0.7929,-0.6782,-0.6864,-0.721,-0.5974,-0.5676,-0.555,-0.502,-0.3552,-0.1865,-0.0745,0.1224,0.2899,0.3061,0.4297,0.5223,0.4701,0.54,0.0,0.6589,0.6663,0.6708,0.6927,0.7568,0.7856,0.7459,0.7426,0.7343,0.6791,0.6373,0.622,0.6369,0.5854,0.0,0.0,0.0,0.4162,0.1973,0.1323,0.0,0.0,0.0,-0.1179,-0.0752,0.0,0.0,0.0,0.5067,0.5818,0.0,0.0,0.0,0.0,0.0,0.0,0.0,0.0,0.0,0.0,0.0,0.0,0.0,0.0,0.0,0.0,1.6773,1.6873,1.5684,1.4213,1.3047,1.2056,1.1594,1.0884,0.9708,0.9476,0.8659,0.7026,0.6889,0.6143,0.4579,0.0,0.0,0.0,0.0,0.2273,0.2268,0.3445,0.4014,0.4014,0.4014,0.4014,0.4014,0.4014,0.4117,0.4218,0.4017,0.3416,0.2414,0.2314,0.1409,0.0101,-0.1208,-0.1807,-0.2095,-0.4602,-0.5511,-0.5603,-0.6885,0.0,0.0,-0.7136,-0.7041,-0.6669,-0.5697,-0.5338,-0.4979,-0.3901,-0.3587,-0.3366,-0.2157,-0.1017,0.0166,0.1466,0.3231,0.4489,0.3608,0.4985,0.611,0.5058,0.5619,0.6449,0.7103,0.7149,0.7258,0.7819,0.8297,0.8684,0.917,0.8098,0.7372,0.7685,0.0,0.0,0.62,0.5243,0.4641,0.463,0.4151,0.3483,0.2709,0.0073,-0.0966,0.0,-0.0848,-0.0837,0.0139,0.1015,0.1931,0.2854,0.3866,0.4792,0.0,0.0,0.0,0.0,0.0,0.0,0.0,0.0,0.0,0.0,0.0,0.0,0.0,0.0,0.0,1.791,1.7955,1.7559,1.6267,1.5712,1.4888,1.3345,1.2069,1.1222,1.1069,0.9945,0.8552,0.7021,0.6749,0.6111,0.4572,0.4117,0.3802,0.3843,0.3656,0.3588,0.3635,0.3823,0.4014,0.4014,0.0,0.0,0.4014,0.4014,0.4618,0.5527,0.4518,0.4418,0.5122,0.4017,0.279,0.1479,0.01,-0.0396,-0.0674,-0.3155,-0.3999,-0.4312,-0.6465,-0.7088,-0.6987,-0.7102,-0.6349,-0.548,-0.5394,-0.4701,0.0,-0.3666,-0.3637,-0.337,-0.2265,-0.1073,0.0243,0.2175,0.3734,0.4873,0.5556,0.6449,0.7013,0.6826,0.7317,0.785,0.8103,0.7566,0.7388,0.8165,0.9027,0.9346,0.8664,0.8538,0.8124,0.7339,0.6485,0.5989,0.5901,0.5716,0.5506,0.5396,0.3858,0.2902,0.2703,0.0784,-0.0216,0.0,0.0486,0.0821,0.0917,0.1822,0.2688,0.3437,0.3791,0.3716,0.0,0.0,0.0,0.0,0.0,0.0,0.0,0.0,0.0,0.0,0.0,2.0588,2.0588,0.0,1.9545,1.9078,1.8563,1.8099,1.7452,1.7215,1.6527,1.4944,1.3926,1.2808,1.1483,1.0635,0.9475,0.7909,0.779,0.7385,0.6498,0.5696,0.5277,0.5231,0.5039,0.4968,0.5022,0.5622,0.6022,0.6022,0.6022,0.6022,0.6022,0.6022,0.6326,0.693,0.6326,0.6027,0.5922,0.4476,0.3153,0.1956,0.1176,0.0578,-0.0188,-0.206,-0.3121,-0.3831,-0.5555,-0.6109,-0.6141,-0.6135,-0.532,-0.4257,-0.3744,-0.315,-0.2552,-0.1936,-0.1414,-0.0905,-0.0329,0.1049,0.2537,0.3561,0.5023,0.6367,0.6753,0.7484,0.8006,0.7815,0.796,0.8368,0.8762,0.8503,0.8439,0.9072,0.9796,1.0141,0.9915,0.9452,0.8824,0.792,0.7089,0.6317,0.5806,0.5739,0.5603,0.5372,0.4001,0.3218,0.3151,0.1473,0.074,0.1095,0.1175,0.136,0.1634,0.2575,0.3241,0.3625,0.4047,0.3835,0.0,0.0,0.0,0.0,0.0,0.0,0.0,2.6108,2.4897,2.4912,2.4275,2.3466,2.2931,2.1929,2.095,2.0074,1.9193,1.8557,1.8504,1.8237,1.7551,1.6331,1.5731,1.4449,1.2181,1.1394,1.0558,0.9248,0.879,0.8615,0.8486,0.7401,0.6708,0.6708,0.6491,0.6431,0.6431,0.7434,0.8038,0.8038,0.8038,0.8038,0.8038,0.8038,0.8038,0.8038,0.8011,0.7397,0.6184,0.4797,0.3394,0.2316,0.1903,0.1029,-0.0184,-0.1384,-0.2458,-0.3383,-0.4463,-0.4932,-0.4974,-0.4821,-0.4105,-0.2997,-0.2083,-0.1666,-0.1167,0.0,0.0901,0.1694,0.2095,0.341,0.4758,0.5118,0.6492,0.7668,0.7547,0.8269,0.8846,0.8497,0.8596,0.8843,0.9432,0.9524,0.9669,1.0012,1.0392,1.0728,1.1196,1.0208,0.9288,0.8758,0.7706,0.6714,0.5748,0.5542,0.5352,0.5108,0.4223,0.3742,0.363,0.2139,0.1576,0.2213,0.1783,0.1839,0.2434,0.3348,0.3821,0.38,0.452,0.4429,2.676,2.7569,2.8509,2.8713,2.7796,2.7459,0.0,2.8537,2.7058,2.7392,2.6415,2.559,2.5996,2.2616,2.0164,2.1723,2.016,1.8672,1.8531,1.8237,1.7742,1.7094,1.6045,1.5304,1.4984,1.2549,1.0847,1.0724,0.9315,0.8499,0.8486,0.824,0.8064,0.8064,0.7918,0.7739,0.7739,0.7939,0.8038,0.8038,0.8038,0.8038,0.8038,0.8038,0.8038,0.8031,0.7896,0.7738,0.753,0.6037,0.4708,0.3523,0.2317,0.1099,-0.0181,-0.1376,-0.1914,-0.2147,-0.3383,-0.3646,-0.3542,-0.3688,-0.286,-0.1792,-0.179,-0.1059,0.0,0.1113,0.1499,0.2044,0.3847,0.454,0.5123,0.6656,0.722,0.7539,0.8127,0.8917,0.9434,0.9376,0.986,1.034,1.0441,1.0428,1.0454,1.052,1.0595,1.0645,1.0648,0.9987,0.9429,0.9244,0.7808,0.6435,0.5288,0.5074,0.4979,0.4945,0.4086,0.3589,0.3625,0.2588,0.2096,0.2213,0.2948,0.3274,0.3177,0.4124,0.4531,0.4399,0.5093,0.4777,2.7072,2.8421,2.9289,2.9351,2.9094,2.9091,2.996,2.9443,2.8889,2.9262,2.9037,2.8402,2.7242,2.5374,2.3634,2.2432,2.1062,1.9794,1.8642,1.8237,1.7822,1.7221,1.673,1.5989,1.4988,1.3735,1.2688,1.1737,1.0322,0.943,0.933,0.8564,0.8535,0.923,0.9252,0.9509,1.0288,1.0288,1.0288,1.0288,1.0288,0.9895,0.9114,0.9114,0.8674,0.7902,0.7841,0.7767,0.7678,0.6957,0.5937,0.4693,0.3364,0.2073,0.0897,-0.0272,-0.1174,-0.1873,-0.2259,-0.2467,-0.2423,-0.2468,-0.1617,-0.0557,0.0,0.0557,0.1112,0.2196,0.2895,0.3585,0.4375,0.5418,0.6357,0.7009,0.804,0.8826,0.9023,0.9714,1.0337,1.0173,1.0379,1.0618,1.0618,1.0618,1.0618,1.0618,1.0618,1.0618,1.0618,1.0341,0.9841,0.9119,0.7973,0.683,0.5693,0.5555,0.5299,0.4789,0.4427,0.4213,0.4128,0.3309,0.3078,0.3545,0.3487,0.3863,0.4594,0.4994,0.5353,0.5719,0.5982,0.5863,2.7897,2.9,2.9538,2.9914,3.0003,3.0121,3.0648,3.0368,3.0119,3.0447,3.0811,3.0331,2.8244,2.7461,2.6379,2.4065,2.2182,2.0553,1.9264,1.836,1.7702,1.7101,1.6954,1.6377,1.4971,1.4607,1.4059,1.2872,1.1516,1.0626,1.0493,0.9608,0.9509,1.0485,1.0485,1.0974,1.1853,1.195,1.195,1.195,1.195,1.1424,1.0396,1.0343,0.9606,0.8379,0.8196,0.7907,0.7522,0.7373,0.6575,0.5476,0.4491,0.3126,0.1701,0.0808,-0.0269,-0.1249,-0.121,-0.1187,-0.1253,-0.0807,-0.0159,0.0628,0.1722,0.2035,0.2192,0.3281,0.4137,0.482,0.5266,0.6439,0.7508,0.7771,0.8894,0.9926,1.0114,1.0523,1.0873,1.0911,1.0919,1.0919,1.0919,1.0919,1.0982,1.1233,1.087,1.0618,1.0618,1.0488,1.003,0.8942,0.8122,0.732,0.6342,0.6221,0.5901,0.5254,0.5019,0.4854,0.4794,0.4064,0.4009,0.4787,0.4229,0.4553,0.5819,0.5819,0.6091,0.6588,0.7009,0.7171,2.8669,2.8454,2.8318,3.0129,2.9731,2.9704,3.2616,3.1885,3.0628,3.0948,3.1016,3.0664,2.9326,2.7744,2.6749,2.7072,2.3448,2.0505,2.0599,1.8907,1.7382,1.6794,1.6473,1.6179,1.579,1.4911,1.426,1.426,1.2758,1.1853,1.1853,1.1853,1.1755,1.1853,1.1853,1.1853,1.195,1.195,1.195,1.195,1.195,1.1732,1.1407,1.1198,1.0566,0.9697,0.9242,0.8458,0.7366,0.721,0.6435,0.5364,0.5359,0.3931,0.1791,0.1791,0.0986,-0.009,-0.009,-0.0087,0.0084,0.1173,0.1544,0.1724,0.2735,0.3047,0.3281,0.4375,0.4686,0.5151,0.7157,0.777,0.8129,0.9504,0.9881,1.0208,1.1473,1.1122,1.0807,1.1593,1.1764,1.1764,1.1764,1.1764,1.2012,1.2826,1.1608,1.0618,1.0618,1.0314,0.9749,0.8918,0.8422,0.7847,0.6976,0.6673,0.6554,0.6544,0.5882,0.5492,0.5483,0.4842,0.4787,0.5429,0.5429,0.5819,0.6588,0.6588,0.6588,0.6642,0.8,0.8619,3.0084,3.0131,3.0069,3.1857,3.1805,3.1721,3.3093,3.2915,3.2577,3.3111,3.2856,3.2063,3.0579,3.0033,2.9002,2.6565,2.5274,2.4228,2.2738,2.1427,2.0426,1.9729,1.9357,1.8651,1.7182,1.5994,1.5281,1.5281,1.4027,1.3199,1.3199,1.2425,1.2328,1.3199,1.3199,1.3515,1.4202,1.4374,1.4374,1.4202,1.3343,1.2814,1.2725,1.1651,1.0407,0.9334,0.9207,0.8317,0.7075,0.7021,0.6681,0.6166,0.5395,0.4538,0.377,0.2998,0.2423,0.2104,0.1404,0.1119,0.1256,0.2388,0.2727,0.2813,0.3826,0.4137,0.4525,0.6234,0.6773,0.7057,0.8365,0.8958,0.9406,1.0362,1.0863,1.1447,1.2367,1.2397,1.2274,1.252,1.2581,1.2581,1.2581,1.2581,1.2704,1.2948,1.252,1.1705,1.0411,1.0639,1.0415,0.9208,0.8959,0.849,0.7531,0.7387,0.7128,0.6642,0.6362,0.6253,0.6253,0.5991,0.5991,0.6199,0.6253,0.6784,0.8,0.8,0.8475,0.94,1.0292,1.0697,3.1321,3.1366,3.1208,3.2978,3.322,3.3255,3.4307,3.4196,3.4072,3.4555,3.4158,3.3318,3.168,3.1385,3.0314,2.7366,2.6383,2.5371,2.3704,2.2498,2.1593,2.108,2.0682,1.9684,1.7931,1.6951,1.6292,1.5832,1.5045,1.4555,1.4555,1.3788,1.3692,1.4555,1.4469,1.4722,1.5404,1.5578,1.5631,1.5551,1.4381,1.3872,1.4043,1.2767,1.1536,1.0394,1.0317,0.9226,0.7517,0.7517,0.7168,0.6619,0.5865,0.5277,0.4777,0.4022,0.3549,0.3166,0.2482,0.2206,0.242,0.3505,0.3742,0.3904,0.4924,0.5544,0.6079,0.7395,0.8084,0.8656,0.9911,1.0467,1.0956,1.1836,1.2322,1.2743,1.3302,1.3191,1.307,1.3373,1.3433,1.3433,1.3433,1.3674,1.3622,1.2887,1.3288,1.2966,1.1152,1.1135,1.0876,0.9715,0.9724,0.93,0.8168,0.8554,0.8396,0.745,0.7385,0.7224,0.702,0.6956,0.7106,0.732,0.7576,0.8397,0.9798,0.9798,1.0343,1.1513,1.2134,1.2425,3.2358,3.2109,3.168,3.359,3.4071,3.4486,3.6322,3.5953,3.5208,3.5359,3.5018,3.4316,3.2821,3.1863,3.0752,2.938,2.6743,2.4641,2.4097,2.2408,2.1212,2.0829,2.0557,1.9723,1.8087,1.787,1.7404,1.6103,0.0,1.5832,1.5832,1.5832,1.5818,1.59,1.5631,1.547,1.5535,1.5443,1.5591,1.5859,1.4923,1.4816,1.5324,1.4469,1.3617,1.2762,1.2416,1.0974,0.8759,0.875,0.7971,0.684,0.6757,0.609,0.5007,0.5012,0.4259,0.334,0.3336,0.334,0.3499,0.4484,0.4857,0.5074,0.6099,0.7096,0.7855,0.7931,0.8694,0.9884,1.1784,1.2284,1.2641,1.3897,1.4131,1.4191,1.4255,1.3674,1.3373,1.4094,1.4273,1.4255,1.4236,1.4845,1.4694,1.2789,1.3752,1.4148,1.253,1.1748,1.1091,1.0393,1.0613,1.0269,0.9001,1.0064,1.0269,0.8962,0.8856,0.8528,0.7877,0.7829,0.8134,0.8829,0.9526,1.0479,1.1791,1.1791,1.2164,1.2819,1.3523,1.3825,3.2419,3.2553,3.2968,3.4758,3.5876,3.6901,3.8216,3.8587,3.8539,3.8019,3.7367,3.629,3.4129,3.4149,3.3739,3.1421,3.0328,2.9399,2.8346,2.6345,2.4745,2.4012,2.3542,2.2539,2.0546,2.0387,1.9844,1.8672,1.6842,1.5832,1.5832,1.5832,1.6088,1.667,1.6675,1.6758,1.7149,1.6357,1.6082,1.64,1.5075,1.4603,1.4723,1.4282,1.3502,1.2416,1.2157,1.1062,0.9611,0.9365,0.9025,0.8535,0.7844,0.7297,0.6976,0.6205,0.6265,0.6725,0.6613,0.5615,0.4565,0.5675,0.6441,0.7088,0.7326,0.8084,0.9064,0.9809,1.0697,1.1723,1.2983,1.3671,1.4199,1.4841,1.485,1.4764,1.5037,1.4923,1.4864,1.504,1.5099,1.5022,1.4716,1.4828,1.4673,1.381,1.3758,1.3284,1.1764,1.1918,1.18,1.0788,1.0777,1.0661,1.032,1.061,1.0661,1.032,1.0254,1.0187,1.0049,1.0394,1.0731,1.0948,1.1608,1.2339,1.3212,1.3212,1.3543,1.4239,1.5262,1.5704,3.3076,3.3494,3.3975,3.5489,3.6997,3.8023,3.7911,3.8824,3.9281,3.8099,3.78,3.7171,3.5512,3.5149,3.4345,3.2,3.1354,3.0512,2.8721,2.7585,2.64,2.4977,2.457,2.3606,2.1463,2.1302,2.0836,1.9588,1.8211,1.739,1.739,1.7257,1.7355,1.7792,1.7497,1.7518,1.7811,1.7048,1.663,1.658,1.5533,1.4805,1.4509,1.4215,1.3665,1.2841,0.0,1.1828,1.0433,1.0293,0.9879,0.9226,0.8694,0.8466,0.8389,0.7855,0.8,0.8535,0.8502,0.7683,0.682,0.754,0.8095,0.8466,0.8466,0.9432,1.0697,1.1292,1.2458,1.3765,1.4728,1.5286,1.5615,1.5854,1.6046,1.6133,1.5936,1.5853,1.5853,1.5853,1.592,1.5918,1.5725,1.5463,1.5173,1.4718,1.4428,1.3831,1.2563,1.2581,1.2305,1.1334,1.1534,1.1484,1.0864,1.1384,1.1566,1.1249,1.1499,1.1679,1.1644,1.2231,1.2695,1.2942,1.36,1.4359,1.5236,1.5236,1.5568,1.6182,1.7042,1.7356,3.3773,3.4471,3.4762,3.6092,3.761,3.8496,3.7109,3.8282,3.9212,3.7439,3.763,3.7858,3.7005,3.5778,3.4355,3.2791,3.1774,3.0381,2.8296,2.7871,2.7024,2.4861,2.4447,2.364,2.1731,2.1514,2.1034,1.9974,1.9833,1.9726,1.9414,1.9027,1.8814,1.8891,1.8414,1.8145,1.8145,1.7744,1.7317,1.6881,1.6217,1.5442,1.4615,1.4443,1.4088,1.3641,1.3519,0.0,1.1426,1.139,1.0701,0.9669,0.9518,0.9518,0.9442,0.9377,0.9367,0.9518,0.9518,0.9669,0.982,0.9453,0.9442,0.9669,0.9669,1.1057,1.259,1.259,1.4037,1.5703,1.6486,1.6849,1.7109,1.7042,1.7513,1.7733,1.6927,1.6694,1.6631,1.6567,1.6667,1.6744,1.661,1.6203,1.5737,1.5296,1.523,1.4884,1.402,1.3478,1.2852,1.2159,1.2686,1.2618,1.1329,1.2347,1.2715,1.1937,1.2541,1.2942,1.2956,1.3668,1.4312,1.4855,1.5501,1.6346,1.741,1.741,1.7719,1.826,1.874,1.8769,3.3706,3.4464,3.5464,3.6665,3.8257,3.9602,3.9845,4.1149,4.1745,3.9929,4.0234,4.0257,3.8407,3.7984,3.778,3.7576,3.5688,3.4077,3.3604,3.0548,2.7719,2.6145,2.4716,2.3602,2.2813,2.2467,2.2169,2.1997,2.1674,2.0747,1.9034,1.8807,1.8933,1.9252,1.9864,2.0115,2.0115,1.9152,1.8692,1.8591,1.7563,1.6468,1.5452,1.5394,1.4724,1.3627,1.3387,0.0,1.249,1.2254,1.1974,1.17,1.087,1.0559,1.0409,0.9593,0.982,1.0559,1.0559,1.1601,1.2558,1.011,1.0398,1.171,1.171,1.3114,1.4641,1.4641,1.6018,1.7369,1.7044,1.843,1.9684,1.8851,1.8753,1.8718,1.828,1.7756,1.7302,1.6828,1.6802,1.6543,1.5719,1.5448,1.5296,1.4853,1.4786,1.4741,1.4582,1.4422,1.4143,1.3532,1.4003,1.413,1.3427,1.3606,1.3433,1.2829,1.3368,1.3916,1.437,1.5353,1.6157,1.6725,1.7356,1.7918,1.8513,1.8513,1.8749,1.9199,1.9728,1.9901,3.4992,3.5911,3.7031,3.8204,3.9626,4.046,3.9393,4.0247,4.071,3.8869,3.9441,3.9999,3.927,3.8567,3.8044,3.7668,3.6754,3.5468,3.3622,3.1946,2.9915,2.7437,2.6213,2.5055,2.3774,2.351,2.3203,2.298,2.2757,2.1977,2.0503,2.0135,2.0007,1.9986,2.0429,2.0566,2.0566,1.9869,1.9307,1.8957,1.8189,1.7292,1.6251,1.6424,1.5821,1.4632,1.4194,0.0,1.4035,1.3302,1.3302,1.3738,1.3273,1.3114,1.3041,1.2531,1.2677,1.3114,1.3114,1.3708,1.4196,1.2569,1.2827,1.3705,1.3219,1.4423,1.5948,1.6201,1.7379,1.8655,1.8822,1.9727,2.0344,1.9336,1.8999,1.8848,1.8649,1.8689,1.8443,1.756,1.7463,1.7312,1.6527,1.6124,1.584,1.5647,1.5644,1.5511,1.5197,1.5186,1.4984,1.4354,1.4293,1.4183,1.3894,1.384,1.3818,1.3823,1.4622,1.5339,1.5929,1.705,1.7891,1.8436,1.8927,1.9439,1.9928,1.9928,2.0066,2.0239,2.0701,2.083,3.6788,3.7778,3.8626,3.9964,4.0976,4.1046,3.8649,3.9044,3.9406,3.7597,3.8397,3.9518,3.9844,3.881,3.7796,3.7428,3.7254,3.611,3.3293,3.3024,3.1885,2.8533,2.7651,2.6579,2.4673,2.442,2.4083,2.3536,2.3387,2.3092,2.2453,2.1949,2.1527,2.1242,2.1242,2.1181,2.1024,2.0532,1.9944,1.931,1.8764,1.7911,1.6907,1.7209,1.6746,1.5569,1.5169,0.0,0.0,1.4386,1.453,1.5226,1.5226,1.5226,1.5226,1.5226,1.5296,1.5492,1.5492,1.5634,1.5791,1.5477,1.5515,1.5635,1.4679,1.5842,1.7475,1.767,1.8739,1.9987,2.052,2.0814,2.0687,1.9677,1.9253,1.9124,1.9162,1.948,1.9485,1.8511,1.8329,1.8195,1.7632,1.7145,1.6837,1.6837,1.6837,1.6685,1.6188,1.6077,1.5869,1.546,1.4705,1.4224,1.4169,1.4189,1.4361,1.4875,1.575,1.6555,1.7325,1.8411,1.9235,1.9783,2.0282,2.0799,2.1334,2.1334,2.1395,2.1456,2.1816,2.1786,3.8847,3.9286,3.9857,4.1398,4.165,4.1131,3.9764,4.0078,4.0237,3.8515,3.9432,4.0461,4.0198,3.9346,3.9039,4.0047,3.859,3.6992,3.6165,3.4522,3.2263,2.9148,2.8231,2.7185,2.5583,2.516,2.4692,2.4126,2.3757,2.3638,2.4006,2.3563,2.3276,2.3231,2.3231,2.301,2.2496,2.1658,2.0959,2.0442,1.9627,1.8656,1.7614,1.765,1.6937,1.5626,1.5585,0.0,0.0,1.51,1.51,1.5226,1.5226,1.5226,1.5226,1.5226,1.5668,1.6312,1.6312,1.7025,1.8002,1.8132,1.7921,1.7494,1.6491,1.8045,2.0158,1.9629,2.05,2.1572,2.1077,2.1583,2.1865,2.0827,2.0532,2.0545,2.0601,2.0178,1.9772,1.9754,1.9244,1.8644,1.8125,1.7988,1.7933,1.7933,1.7933,1.7933,1.7894,1.7336,1.7199,1.7732,1.6348,1.5291,1.5192,1.5446,1.5726,1.5949,1.6233,1.6904,1.813,1.9029,1.9775,2.0319,2.1254,2.1983,2.2427,2.2427,2.2642,2.2986,2.3045,2.3045,4.0286,4.1207,4.2033,4.2805,4.2421,4.1539,4.025,4.0014,3.976,3.8541,3.9607,4.0664,4.0382,3.9812,3.9252,3.8838,3.827,3.7522,3.64,3.5217,3.3966,3.2461,3.0615,2.88,2.7255,2.6099,2.5257,2.4746,2.504,2.5372,2.5588,2.4296,2.3526,2.3526,2.3162,2.2916,2.2715,2.1787,2.1337,2.1355,2.0727,2.0233,1.9795,1.9533,1.8828,1.777,1.6902,0.0,0.0,1.6798,1.7142,1.7707,1.8228,1.8475,1.8475,1.8475,1.8675,1.892,1.892,1.9274,1.9574,1.9047,1.95,2.0026,1.8588,1.9288,2.0606,2.0603,2.1205,2.1954,2.2225,2.2329,2.2234,2.1903,2.1579,2.1282,2.1334,2.0847,2.0297,1.9982,1.9375,1.8728,1.8202,1.8338,1.8503,1.8503,1.874,1.8716,1.8303,1.8085,1.8051,1.8106,1.7055,1.6515,1.6837,1.6777,1.6998,1.7751,1.7581,1.823,1.9866,2.0411,2.1022,2.1718,2.2367,2.2768,2.2986,2.2986,2.3034,2.3189,2.3189,2.3436,4.1072,4.2136,4.3006,4.3338,4.2438,4.1268,4.0436,3.9827,3.9257,3.8719,3.9989,4.1014,4.0616,4.0384,3.9806,3.8251,3.8221,3.7763,3.5979,3.5685,3.5309,3.4455,3.2612,3.0858,2.9416,2.7761,2.6602,2.6227,2.6867,2.7229,2.7229,2.5684,2.4613,2.4165,2.3746,2.3421,2.3052,2.2136,2.1752,2.189,2.1329,2.1018,2.104,2.0722,2.0101,1.9243,1.8262,0.0,0.0,1.8002,1.8385,1.8954,1.9764,2.008,2.0102,2.0322,2.0493,2.0745,2.0973,2.1222,2.1303,2.058,2.1262,2.2188,2.0879,2.0938,2.1412,2.1565,2.2105,2.2714,2.3116,2.2847,2.2429,2.2364,2.1856,2.1481,2.1648,2.1142,2.0613,2.0369,1.989,1.9402,1.9006,1.9251,1.9439,1.9439,1.9693,1.9722,1.93,1.9182,1.9186,1.9208,1.8716,1.8377,1.8364,1.8181,1.8546,1.9605,1.931,1.9829,2.1357,2.1754,2.2216,2.2772,2.3379,2.365,2.365,2.365,2.3645,2.3595,2.3811,2.4343,4.1086,4.1615,4.2144,4.2683,4.1402,4.0093,4.0327,3.9612,3.9001,3.934,4.0765,4.1735,4.0937,4.1177,4.0931,3.9255,3.881,3.7807,3.5265,3.5969,3.598,3.4023,3.3864,3.3465,3.2083,3.015,2.8939,2.8939,2.9002,0.0,2.9002,2.8298,2.722,2.5586,2.5586,2.5084,2.4029,2.3135,2.24,2.1901,2.106,2.059,2.059,2.0613,2.0139,0.0,0.0,0.0,0.0,1.8189,1.8218,1.7863,1.8632,1.8933,1.8977,1.9527,2.0259,2.1069,2.1756,2.2623,2.3332,2.3389,2.3485,2.3565,2.3406,2.3286,2.3165,2.2696,2.3474,2.4281,2.3702,2.3096,2.2462,2.1848,2.1222,2.099,2.1598,2.1024,2.0557,2.1178,2.1138,2.0959,2.0959,2.0959,2.0959,2.0959,2.0991,2.1086,2.1453,2.0883,2.0827,2.1737,2.1678,2.1014,1.961,1.9782,2.0411,2.1509,2.1381,2.1586,2.2363,2.2896,2.3176,2.3176,2.4227,2.479,2.479,2.479,2.4685,2.4513,2.5298,2.5986,4.0595,4.1074,4.151,4.1166,4.0142,3.9219,3.9272,3.9535,3.9656,3.9444,4.1285,4.2699,4.1834,4.1675,4.1499,4.1093,3.9591,3.8361,3.7882,3.7483,3.7077,3.6621,3.4758,3.2796,3.0841,2.9636,2.9002,2.9002,2.9002,2.8809,2.8333,2.814,2.7783,2.7283,2.6444,2.5641,2.4754,2.4099,2.3457,2.2702,2.2067,2.1777,2.1752,2.0771,2.0188,0.0,0.0,0.0,0.0,1.9828,2.0263,2.027,2.1483,2.2001,2.2027,2.2208,2.2685,2.3276,2.3043,2.3447,2.3959,2.3104,2.3128,2.3375,2.3013,2.3163,2.3337,2.32,2.3439,2.3699,2.3568,2.3356,2.3255,2.3466,2.3011,2.2686,2.3249,2.2356,2.1569,2.1742,2.1372,2.0991,2.0991,2.1213,2.1491,2.1724,2.1984,2.2085,2.1933,2.2282,2.247,2.2278,2.2776,2.2769,2.1906,2.1706,2.2165,2.3363,2.2419,2.2455,2.3966,2.3618,2.3691,2.4279,2.4624,2.4804,2.4804,2.4804,2.5039,2.5543,2.6355,2.7148,3.9742,3.9946,4.0237,3.9801,3.8984,3.8567,3.9491,3.992,4.023,4.072,4.2421,4.3568,4.2733,4.2396,4.2201,4.2011,4.039,3.9222,3.9515,3.866,3.7898,3.7437,3.5808,3.3891,3.1929,3.1161,3.0631,3.0363,3.01,2.9693,2.8964,2.8509,2.8195,2.8195,2.6914,2.5898,2.5217,2.4627,2.4106,2.3592,2.302,2.276,2.2678,2.1822,2.1256,0.0,0.0,0.0,0.0,2.0717,2.1161,2.1064,2.2312,2.2743,2.282,2.3214,2.3497,2.3699,2.3766,2.4047,2.4334,2.3521,2.363,2.4002,2.3514,2.3606,2.3991,2.446,2.4384,2.4278,2.4805,2.4552,2.4247,2.4605,2.3951,2.3331,2.3665,2.2758,2.1892,2.2019,2.1814,2.1665,2.1811,2.204,2.2262,2.2504,2.2803,2.2964,2.2848,2.3406,2.3676,2.3338,2.3826,2.4066,2.3799,2.3382,2.3508,2.4437,2.3661,2.3676,2.4841,2.4457,2.4469,2.4956,2.4994,2.4994,2.4994,2.5245,2.5773,2.6569,2.7327,2.8126,0.0,3.862,3.8721,3.8633,3.8196,3.8383,4.0667,4.0797,0.0,4.2821,4.3966,4.4357,4.3633,4.3325,4.2974,4.2297,4.1184,4.0371,4.0193,3.9494,3.852,3.708,3.6836,3.6219,3.4792,3.3982,3.3308,3.2617,3.2027,3.1305,3.0508,2.9395,2.8733,2.8673,2.7138,2.6078,2.5467,2.4829,2.4443,2.4391,2.373,2.3375,2.3375,2.3293,2.2902,0.0,0.0,0.0,0.0,2.1119,2.1209,2.0952,2.1627,2.1965,2.2067,2.3091,2.316,2.3013,2.3981,2.4469,2.4615,2.4499,2.4823,2.5169,2.4592,2.4565,2.4952,2.6103,2.5889,2.5633,2.685,2.6174,2.5221,2.5195,2.4136,2.3141,2.3178,2.241,2.1786,2.2124,2.2478,2.2848,2.3165,2.3236,2.3236,2.3247,2.3422,2.368,2.4026,2.4239,2.449,2.4789,2.4836,2.4945,2.5212,2.4702,2.4482,2.4824,2.5042,2.511,2.511,2.529,2.5376,2.5341,2.5322,2.5361,2.5399,2.6029,2.6785,2.7649,2.8252,2.8969,4.0093,0.0,3.9188,3.8764,3.9399,4.0299,0.0,4.2215,4.3118,4.3195,4.4442,4.5311,4.4531,4.3753,4.3363,4.3824,4.2105,4.0778,4.0985,4.0095,3.925,3.8832,3.7469,3.62,3.5233,3.4226,3.3323,3.2609,3.2368,3.1747,3.0476,3.0179,2.9738,2.9234,2.8311,2.7327,2.6229,2.5437,2.4869,2.4391,2.3659,2.3291,2.3263,2.231,2.2312,0.0,0.0,0.0,2.2521,2.2308,2.2687,2.3396,2.4102,2.4378,2.4409,2.4645,2.501,2.533,2.5049,2.5331,2.5717,2.5195,2.5449,2.5839,2.5187,2.5052,2.5111,2.5425,2.5409,2.5314,2.563,2.5438,2.5169,2.4951,2.4413,2.3909,2.374,2.3219,2.2838,2.2912,2.3021,2.3153,2.3378,2.3444,2.3557,2.3971,2.4062,2.4215,2.4568,2.4803,2.4973,2.5087,2.5251,2.535,2.5424,2.5174,2.5087,2.5324,2.5389,2.5401,2.5401,2.5457,2.5457,2.544,2.5413,2.5716,2.6365,2.6477,2.7297,2.8718,2.8886,2.9436,4.2036,4.0884,3.9759,3.9723,4.0561,4.1581,4.2351,4.344,4.4339,4.444,4.5186,4.5724,4.5273,4.4277,4.3756,4.4619,4.2862,4.1278,4.1074,4.0309,3.9593,3.8986,3.7732,3.6672,3.5903,3.4745,3.3743,3.3016,3.2352,3.1546,3.0447,3.0096,2.9745,2.9406,2.8702,2.7992,2.7334,2.623,2.553,2.5213,2.4507,2.3975,2.3631,2.2938,2.2991,0.0,0.0,0.0,2.4163,2.3853,2.4106,2.4697,2.5073,2.5221,2.5221,2.5486,2.5631,2.5726,2.561,2.5783,2.6037,2.5388,2.5745,2.6344,2.5921,2.5969,2.6139,2.6064,2.5821,2.5738,2.6504,2.6412,2.6082,2.5739,2.5202,2.4676,2.4208,2.3696,2.337,2.3559,2.365,2.3777,2.4045,2.4081,2.4168,2.4505,2.462,2.474,2.4965,2.5172,2.5292,2.5321,2.5428,2.5492,2.5507,2.5416,2.5431,2.5531,2.557,2.557,2.557,2.557,2.552,2.5493,2.5842,2.6211,2.6715,2.7412,2.8198,2.9121,2.9506,3.016,4.3932,4.2585,4.1114,4.1297,4.194,4.2787,4.3921,4.452,4.506,4.5742,4.5835,4.5818,4.5789,4.4705,4.4026,4.4772,4.335,4.1894,4.1217,4.0777,4.0094,3.8857,3.8174,3.7463,3.6696,3.5476,3.4404,3.3661,3.244,3.1394,3.068,3.0108,2.9837,2.9664,2.9032,2.8567,2.8387,2.705,2.635,2.6246,2.5696,2.5061,2.4382,2.4418,2.4454,2.4489,0.0,0.0,2.5607,2.5436,2.5468,2.5607,2.5607,2.5607,2.5677,2.6142,2.603,2.5761,2.6333,2.6543,2.6507,2.6114,2.648,2.706,2.7094,2.725,2.7379,2.7397,2.6883,2.6622,2.7971,2.7882,2.7243,2.6654,2.6074,2.5369,2.4455,2.397,2.376,2.4063,2.4256,2.4467,2.4785,2.4826,2.4867,2.4908,2.5034,2.5189,2.5221,2.5406,2.5515,2.5507,2.5506,2.5494,2.5498,2.5542,2.5619,2.5616,2.5609,2.5607,2.5607,2.5607,2.5634,2.5714,2.6378,2.6868,2.7086,2.8444,2.9259,2.9506,3.0237,3.1056,4.4575,4.504,4.5169,4.3806,4.4143,4.4822,4.4897,4.5305,4.5687,4.5792,4.5788,4.5801,4.579,4.4705,4.3836,4.3988,4.3265,4.276,4.3051,4.2438,4.1638,4.0766,3.9588,3.851,3.7756,3.6466,3.5273,3.414,3.3587,3.2751,3.1648,3.1878,3.1708,3.101,3.0311,2.9577,2.8917,2.7629,2.6831,2.6629,2.6412,2.6083,2.5624,2.5685,2.5902,2.6237,0.0,2.5848,2.7412,2.6377,2.6576,2.7477,2.7477,2.7477,2.7477,2.7572,2.7747,2.8048,2.8767,2.9075,2.9074,2.9435,2.9136,2.884,2.9541,2.8835,2.7924,2.8639,2.8228,2.7666,2.7924,2.7882,2.7423,2.603,2.5961,2.5798,2.4344,2.4336,2.4632,2.4663,2.4709,2.4803,2.5001,2.5119,2.5221,2.535,2.5413,2.5425,2.546,2.5466,2.5507,2.5488,2.552,2.5511,2.5493,2.5542,2.5605,2.5613,2.5663,2.5663,2.5663,2.5663,2.6015,2.6755,2.6852,2.755,2.8884,2.9071,2.9892,3.1314,3.1429,3.2011,4.5336,4.5828,4.6169,4.5703,4.6249,4.6719,4.6039,4.6226,4.6403,4.5918,4.5809,4.5789,4.5727,4.5036,4.4357,4.3957,4.3133,4.2595,4.2834,4.1772,4.0855,4.0487,3.9286,3.8146,3.7352,3.6043,3.4906,3.3949,3.3353,3.2788,3.2231,3.2366,3.2113,3.1335,3.0981,3.0203,2.9001,2.841,2.7875,2.7362,2.7276,2.6969,2.6381,2.6409,2.6556,2.6729,0.0,2.6717,2.7862,2.7296,2.7395,2.7897,2.7897,2.8174,2.8599,2.9053,2.9294,2.9492,2.9874,2.998,3.0011,3.0229,3.0077,2.9787,2.9891,2.9512,2.9083,2.9223,2.8612,2.7982,2.8314,2.8417,2.8057,2.6738,2.6597,2.6338,2.4767,2.4712,2.495,2.499,2.5119,2.5213,2.5297,2.5296,2.536,2.5483,2.546,2.5469,2.5486,2.552,2.5496,2.544,2.5428,2.5415,2.5398,2.5434,2.552,2.5658,2.5663,2.5898,2.6367,2.6406,2.6797,2.7695,2.8543,2.9338,3.0053,3.093,3.1763,3.252,3.252,3.2981,4.5859,4.6101,4.6449,4.6742,4.7284,4.7556,4.6996,4.7012,4.6911,4.6201,4.6056,4.5974,4.5659,4.5341,4.4896,4.4233,4.3392,4.2765,4.2451,4.1346,4.032,3.9711,3.8696,3.7772,3.6979,3.5636,3.465,3.4088,3.3262,3.2759,3.2699,3.2727,3.2393,3.1452,3.1446,3.0686,2.9188,2.9152,2.8793,2.8037,2.8084,2.7736,2.7087,2.7367,2.7392,2.7211,2.7392,2.7825,2.8314,2.8478,2.8425,2.8281,2.8595,2.9096,2.9704,3.044,3.0695,3.0731,3.0909,3.098,3.1011,3.1182,3.1096,3.0936,3.0815,3.0515,3.0228,3.0105,2.9214,2.8406,2.8905,2.9015,2.8751,2.7725,2.738,2.6916,2.5461,2.5178,2.5197,2.5272,2.5429,2.5516,2.5488,2.5486,2.5467,2.5505,2.5449,2.5457,2.5473,2.5468,2.5434,2.5376,2.5368,2.5352,2.5321,2.5738,2.5995,2.5966,2.5973,2.6366,2.7225,2.7304,2.7812,2.8906,3.011,3.0919,3.1301,3.2595,3.3307,3.3478,3.3478,3.3996,4.5942,4.6519,4.6996,4.6454,4.6159,4.6344,4.7675,4.743,4.6891,4.6835,4.6835,4.6565,4.574,4.5341,4.4966,4.4624,4.4471,4.4035,4.2909,4.2664,4.1653,3.9118,3.8695,3.8328,3.7521,3.5923,3.5119,3.5435,3.4368,3.355,3.3166,3.3522,3.3088,3.1793,3.1778,3.107,2.9645,2.9645,2.9217,2.835,2.864,2.85,2.8031,2.9045,2.9079,2.842,2.9192,2.9513,2.9607,3.0176,2.9959,2.9418,3.0662,3.1187,3.1283,3.1735,3.1881,3.1953,3.2739,3.2991,3.3074,3.3721,3.3398,3.3022,3.402,3.273,3.1072,3.1789,3.0847,2.9588,2.9624,2.9642,2.9416,2.8617,2.7965,2.7324,2.6474,2.5855,2.5479,2.5484,2.5531,2.5568,2.5506,2.5543,2.5559,2.5511,2.5503,2.5473,2.542,2.542,2.5383,2.5293,2.5322,2.5321,2.5383,2.6862,2.7489,2.6767,2.6793,2.7206,2.8098,2.8161,2.8984,3.0664,3.082,3.1637,3.3099,3.3214,3.3696,3.4413,3.4413,3.4915,4.5421,4.6201,4.7017,4.6198,4.6249,4.6694,4.7545,4.7683,4.7509,4.7009,4.6894,4.6624,4.574,4.5341,4.5033,4.4919,4.4272,4.3641,4.3171,4.2205,4.099,3.9373,3.8749,3.7877,3.6403,3.5814,3.533,3.4776,3.45,3.4307,3.4152,3.4284,3.3649,3.2105,3.2029,3.128,2.9715,2.9677,2.9551,2.9221,2.9322,2.927,2.9119,2.9529,2.9544,2.928,3.0165,3.0185,2.979,3.1092,3.1129,3.0547,3.206,3.2639,3.2729,3.3417,3.3706,3.3743,3.4041,3.4152,3.4176,3.4442,3.4282,3.4062,3.3938,3.3373,3.2602,3.1889,3.1353,3.0842,3.0188,3.0008,2.9832,2.9196,2.8479,2.7697,2.6868,2.6084,2.5497,2.5546,2.5543,2.572,2.6208,2.5853,2.5651,2.6159,2.5754,2.5352,2.5339,2.5339,2.5321,2.5313,2.5764,2.6333,2.6921,2.7576,2.802,2.8211,2.7861,2.8065,2.8954,2.9515,3.0386,3.168,3.2734,3.3554,3.4176,3.4724,3.5423,3.6233,3.5686,3.5894,4.5255,4.5944,4.6596,4.5916,4.6342,4.6954,4.7253,4.7529,4.7548,4.7009,4.6701,4.6317,4.5701,4.5419,4.5166,4.4898,4.4157,4.3392,4.2745,4.1472,4.0102,3.8878,3.8049,3.7017,3.5745,3.5566,3.5308,3.4772,3.4722,3.4713,3.4713,3.4713,3.396,3.2333,3.2295,3.1535,2.9931,2.9931,2.9931,2.9931,2.9916,2.9886,2.9796,2.9861,2.9931,2.9969,3.082,3.0858,3.0462,3.2062,3.2484,3.2241,3.3091,3.3582,3.3865,3.4486,3.4713,3.4713,3.4713,3.4713,3.4695,3.4832,3.4849,3.4715,3.3952,3.3667,3.3314,3.1967,3.1477,3.1266,3.0529,3.0315,3.022,2.9862,2.9104,2.8278,2.7444,2.6758,2.6232,2.6013,2.6173,2.6479,2.696,2.632,2.5867,2.64,2.574,2.516,2.5203,2.5433,2.5761,2.6072,2.689,2.7544,2.7852,2.8621,2.9236,2.9506,2.9627,2.9835,3.0221,3.1058,3.1977,3.2969,3.4101,3.4961,3.5508,3.6133,3.6875,3.7695,3.7068,3.7058,4.5679,4.5869,4.5775,4.5616,4.624,4.6932,4.6894,4.6894,4.6932,4.6894,4.6201,4.5586,4.5586,4.5586,4.5316,4.4432,4.4278,4.3593,4.159,4.0615,3.9355,3.7322,3.6411,3.5899,3.5899,3.5166,3.5052,3.5824,3.5166,3.4713,3.4713,3.4713,3.4037,3.2553,3.2515,3.1843,3.0417,3.0429,3.039,3.039,3.0463,3.0342,3.0013,3.0267,3.0429,3.0456,3.1352,3.1737,3.184,3.3219,3.4147,3.46,3.3771,3.394,3.4713,3.4713,3.4713,3.4713,3.4713,3.4733,3.4774,3.5085,3.5199,3.5111,3.4645,3.3887,3.3038,3.2137,3.1281,3.0619,3.0582,3.0596,3.0586,3.0586,2.9932,2.9062,2.8281,2.8093,2.784,2.6951,2.749,2.7976,2.767,2.6946,2.6309,2.6065,2.5341,2.4874,2.5005,2.5793,2.6732,2.7802,2.8621,2.8775,2.8005,3.0237,3.1352,3.0456,3.2125,3.2757,3.1954,3.2829,3.3771,3.4687,3.4726,3.5586,3.7305,3.7305,3.7773,3.8594,3.8456,3.8393,4.4553,4.5515,4.6491,4.5156,4.6304,4.7432,4.624,4.6894,4.7586,4.7009,4.6201,4.5586,4.5586,4.5586,4.5316,4.4432,4.3816,4.303,4.181,4.091,3.9704,3.795,3.7513,3.6833,3.5475,3.5272,3.5267,3.5323,3.5272,3.5254,3.5254,3.5254,3.4787,3.3733,3.3119,3.2314,3.139,3.0772,3.0509,3.0545,3.0574,3.0479,3.0318,3.1058,3.1378,3.1391,3.2814,3.3122,3.2622,3.3646,3.4549,3.5254,3.4986,3.5025,3.5254,3.5254,3.5254,3.527,3.5339,3.5341,3.5342,3.5505,3.5551,3.5413,3.4729,3.4315,3.3796,3.2313,3.1704,3.1363,3.0749,3.059,3.0606,3.0606,2.9923,2.9082,2.8267,2.804,2.776,2.6907,2.7239,2.785,2.8377,2.7632,2.7108,2.7603,2.6984,2.6533,2.6732,2.6988,2.7561,2.8648,2.8967,2.9506,3.0506,3.1275,3.1814,3.216,3.3826,3.4195,3.2876,3.4285,3.5261,3.5625,3.6836,3.7654,3.8065,3.8065,3.8518,3.9291,3.8643,3.8595,4.4733,4.5546,4.648,4.5725,4.6877,4.7885,4.6835,4.6855,4.6971,4.6471,4.597,4.5586,4.5586,4.5316,4.4816,4.397,4.3124,4.2277,4.1393,4.0546,3.9662,3.8623,3.7949,3.7115,3.5926,3.5688,3.5504,3.5329,3.5492,3.5588,3.5588,3.5588,3.5201,3.436,3.3819,3.2996,3.1864,3.1328,3.0884,3.0586,3.0969,3.1113,3.1033,3.1568,3.2025,3.2387,3.3677,3.4145,3.4029,3.4494,3.5045,3.5507,3.5534,3.5534,3.5534,3.5566,3.5588,3.5599,3.564,3.5629,3.5646,3.5749,3.5772,3.5627,3.4771,3.4549,3.4246,3.2806,3.217,3.1767,3.1236,3.0807,3.0581,3.0574,3.0166,2.9543,2.8613,2.8627,2.8506,2.7566,2.7929,2.8518,2.8969,2.8194,2.7696,2.8091,2.7548,2.7274,2.785,2.828,2.8937,3.0033,3.0429,3.1044,3.2083,3.2814,3.343,3.3891,3.5573,3.6107,3.518,3.619,3.6835,3.6925,3.7943,3.8592,3.8862,3.8862,3.9306,4.0073,3.9518,3.949,4.5624,4.5852,4.6138,4.6913,4.7663,4.8188,4.8039,4.6771,4.5599,4.5603,4.5586,4.5586,4.5586,4.4893,4.4047,4.3233,4.2387,4.1501,4.0569,3.9798,3.9259,3.9105,3.7808,3.688,3.6802,3.6137,3.5684,3.5684,3.5684,3.5684,3.5684,3.5684,3.534,3.4523,3.4484,3.3712,3.2044,3.2044,3.1615,3.0881,3.1718,3.2147,3.2133,3.2166,3.2628,3.3478,3.4154,3.4875,3.5601,3.5534,3.5509,3.5522,3.5676,3.5728,3.5737,3.5889,3.5885,3.5807,3.5814,3.5775,3.5749,3.5861,3.5913,3.573,3.4864,3.4605,3.4398,3.3466,3.2577,3.1933,3.1864,3.1246,3.0646,3.0707,3.0591,3.0144,2.9071,2.9448,2.9658,2.8579,2.9132,2.9738,2.9546,2.889,2.8363,2.8162,2.7647,2.7681,2.868,2.9671,3.0667,3.1648,3.2455,3.2968,3.3122,3.4584,3.5584,3.5738,3.7308,3.8191,3.8191,3.8225,3.8287,3.8424,3.8502,3.8968,3.9824,3.9824,4.0205,4.0904,4.0881,4.081,4.5182,4.602,4.7086,4.7163,4.733,4.7427,4.7384,4.6607,4.5813,4.5632,4.5586,4.5586,4.5586,4.4893,4.4058,4.3283,4.2499,4.1454,3.9985,3.9646,3.9024,3.7665,3.7186,3.6697,3.6005,3.5787,3.5684,3.5684,3.5684,3.5684,3.5684,3.5684,3.5334,3.4517,3.4484,3.4008,3.2994,3.3005,3.2943,0.0,3.3006,3.3435,3.4096,3.403,3.4457,3.5185,3.5313,3.55,3.5694,3.5671,3.5655,3.5741,3.6433,3.6713,3.6798,3.7481,3.7293,3.6755,3.685,3.6434,3.5861,3.5897,3.5886,3.5723,3.4798,3.4536,3.4322,3.3322,3.2743,3.2428,3.2374,3.2057,3.1775,3.177,3.0905,2.9803,2.8738,2.9174,2.9481,2.8584,2.9476,3.0387,3.0362,3.0539,3.0709,3.0638,3.0515,3.0604,3.1038,3.1468,3.1893,3.2294,3.2683,3.3468,3.4814,3.5276,3.6084,3.7392,3.8474,3.9028,3.9028,3.9198,3.931,3.9326,3.9957,4.0654,4.1474,4.1474,4.1531,4.1591,4.1946,4.1781,4.546,4.603,4.6865,4.721,4.7593,4.7781,4.7328,4.6541,4.5881,4.5764,4.5725,4.5725,4.5725,4.4718,4.3737,4.3352,4.2237,4.1014,3.9793,3.9599,3.9093,3.777,3.7267,3.6863,3.6401,3.604,3.5822,3.5822,3.5822,3.5822,3.5822,3.5822,3.5666,3.5236,3.524,3.482,3.3975,3.3976,3.3786,3.3398,3.3828,3.4492,3.5312,3.5307,3.5491,3.5822,3.5792,3.5821,3.5777,3.5743,3.5684,3.5807,3.6746,3.7113,3.7191,3.812,3.7867,3.7141,3.7617,3.7186,3.6511,3.6928,3.7058,3.6851,3.5943,3.5563,3.525,3.4276,3.3508,3.2961,3.2934,3.2505,3.2071,3.1989,3.1469,3.0839,3.019,3.0395,3.0542,2.9953,3.0457,3.096,3.096,3.1212,3.1384,3.1384,3.1384,3.1507,3.1749,3.2281,3.2863,3.3663,3.4228,3.5139,3.657,3.7084,3.7853,3.9123,4.0008,4.0662,4.1085,4.1222,4.1079,4.0653,4.1478,4.2099,4.2546,4.2546,4.2402,4.2143,4.2372,4.2189,4.5936,4.6129,4.653,4.7233,4.7975,4.824,4.7274,4.6481,4.5974,4.5974,4.5944,4.584,4.5724,4.4556,4.3514,4.3257,4.2011,4.0694,3.9572,3.9416,3.9065,3.8007,3.7323,3.6925,3.6925,3.6363,3.6016,3.6016,3.6016,3.6016,3.6016,3.5976,3.5897,3.5741,3.5895,3.5543,3.4683,3.4801,3.4527,3.3824,3.4568,3.5272,3.5976,3.5976,3.6094,3.6211,3.6003,3.5991,3.6144,3.6026,3.5961,3.6089,3.7201,3.7643,3.7723,3.8632,3.8419,3.7722,3.838,3.7915,3.7148,3.798,3.811,3.7841,3.7212,3.6818,3.6435,3.5678,3.4756,3.3949,3.3949,3.3269,3.2622,3.259,3.2478,3.2285,3.1846,3.1727,3.1658,3.1434,3.1494,3.1641,3.1788,3.1788,3.1861,3.2008,3.2008,3.2145,3.2535,3.3185,3.4105,3.5323,3.6098,3.6982,3.8146,3.9008,3.9854,4.0662,4.1546,4.2354,4.3085,4.3239,4.2953,4.2172,4.271,4.3056,4.3209,4.3174,4.2967,4.2667,4.2715,4.2555,4.605,4.6713,4.7421,4.7538,4.7655,4.7499,4.6638,4.6325,4.6247,4.6247,4.6069,4.5685,4.4976,4.4673,4.4082,4.2666,4.2251,4.1293,3.9058,3.8747,3.8122,3.6481,3.6209,3.6132,3.6132,3.6055,3.6016,3.6016,3.6016,3.6016,3.6016,3.5927,3.5558,3.4817,3.5398,3.5365,3.4542,3.521,3.5521,3.5404,3.5619,3.5793,3.5913,3.5974,3.6406,3.707,3.6328,3.6405,3.7108,3.7108,3.7107,3.7225,3.878,3.9351,3.9465,4.022,3.9986,3.9271,3.9388,3.8369,3.7102,3.789,3.7448,3.6752,3.7245,3.7224,3.6982,3.6864,3.655,3.6273,3.6273,3.544,3.4797,3.5542,3.4586,3.3176,3.1753,3.1458,3.1434,3.1409,3.1971,3.2669,3.3366,3.3476,3.3733,3.4403,3.4513,3.4798,3.5588,3.6007,3.6371,3.6772,3.7129,3.7806,3.9031,3.9854,4.07,4.1585,4.2431,4.297,4.3085,4.3778,4.3942,4.3555,4.2906,4.2945,4.3708,4.3407,4.3239,4.319,4.3615,4.3378,4.5959,4.6709,4.7369,4.6861,4.7185,4.7383,4.6484,4.6289,4.6289,4.6289,4.6202,4.6019,4.5668,4.4813,4.3918,4.3193,4.2296,4.1128,3.9531,3.8906,3.8125,3.6875,3.6289,3.6171,3.6589,3.6198,3.6113,3.6516,3.6126,3.5818,3.5818,3.5792,3.5621,3.5226,3.5548,3.5528,3.5178,3.5528,3.5684,3.5684,3.5761,3.5777,3.5777,3.5806,3.6066,3.6474,3.6122,3.6113,3.6403,3.6403,3.6672,3.7253,3.8433,3.9201,3.974,4.0524,4.0235,3.9558,4.0053,3.9247,3.8141,3.8939,3.8759,3.8156,3.7998,3.7762,3.743,3.7018,3.6682,3.6491,3.6491,3.6085,3.5826,3.6193,3.5752,3.4926,3.3902,3.3205,3.2889,3.333,3.41,3.4798,3.5128,3.5202,3.5312,3.5679,3.5752,3.5862,3.6229,3.6408,3.6764,3.7491,3.8244,3.9183,4.0307,4.1366,4.2316,4.3162,4.3547,4.3918,4.4231,4.4576,4.4586,4.4256,4.4075,4.4037,4.4256,4.4109,4.3928,4.3709,4.3908,4.3726,4.5841,4.6427,4.6844,4.622,4.6608,4.7022,4.6402,4.6247,4.6248,4.6289,4.6289,4.6289,4.6248,4.5195,4.4219,4.3789,4.2655,4.1443,4.0349,3.9408,3.8543,3.7645,3.6981,3.6813,3.7357,3.685,3.6752,3.7311,3.6727,3.6268,3.6034,3.6013,3.592,3.5687,3.5663,3.5646,3.5646,3.5646,3.5763,3.5957,3.5982,3.6114,3.6309,3.6331,3.6404,3.644,3.6031,3.605,3.6345,3.6345,3.6883,3.7732,3.8563,3.9293,3.9945,4.051,4.0261,3.965,4.0307,3.972,3.8821,3.9716,3.9602,3.9086,3.8649,3.8315,3.7978,3.7394,3.7054,3.6927,3.6927,3.6655,3.6449,3.6668,3.6286,3.5866,3.5742,3.492,3.4438,3.521,3.5862,3.6303,3.6303,3.6303,3.6376,3.656,3.6597,3.6743,3.7147,3.7221,3.7624,3.8718,3.9639,4.0509,4.1407,4.2526,4.3426,4.4152,4.4288,4.4574,4.5077,4.5011,4.4825,4.4428,4.4688,4.4688,4.4428,4.4346,4.4184,4.3881,4.3881,4.3693,4.579,4.5908,4.5966,4.5927,4.5935,4.6006,4.608,4.6093,4.6147,4.6288,4.6289,4.6248,4.614,4.6124,4.5625,4.3984,4.3583,4.2896,4.1175,4.0142,3.9225,3.8362,3.8206,3.8206,3.8237,3.8198,3.8198,3.823,3.8191,3.7802,3.6993,3.6861,3.6454,3.564,3.5534,3.5534,3.5534,3.5534,3.588,3.665,3.6764,3.7218,3.7992,3.811,3.8101,3.7898,3.6386,3.6625,3.8174,3.8174,3.868,3.9552,4.0294,4.0599,4.0614,4.0535,4.0334,4.0082,4.012,3.9351,3.8486,3.9339,3.8877,3.8111,3.8846,3.8896,3.8646,3.8609,3.8579,3.8579,3.8579,3.7608,3.6847,3.7639,3.6255,3.5044,3.6024,3.5793,3.5566,3.6135,3.6266,3.6303,3.6303,3.6303,3.656,3.7294,3.747,3.7991,3.9496,3.9717,4.013,4.1295,4.1464,4.1604,4.1946,4.2787,4.345,4.3798,4.4294,4.4762,4.5094,4.48,4.4428,4.4028,4.4058,4.4058,4.4028,4.3693,4.3566,4.3532,4.3532,4.325,4.5044,4.5281,4.5501,4.5501,4.5708,4.5888,4.5967,4.6059,4.6084,4.6064,4.6093,4.614,4.5995,4.5611,4.5129,4.4465,4.3845,4.324,4.2617,4.1295,4.026,3.9941,3.893,3.8477,3.8975,3.851,3.8401,3.889,3.8414,3.795,3.7641,3.763,3.745,3.7141,3.7112,3.7084,3.7084,3.7084,3.7238,3.7546,3.7577,3.7758,3.8028,3.808,3.808,3.799,3.7436,3.7537,3.8117,3.8117,3.862,3.9431,3.9714,4.0,4.0334,4.0248,4.0062,3.9775,3.9775,3.9345,3.8852,3.9189,3.8877,3.8464,3.8752,3.8773,3.8627,3.83,3.8201,3.8099,3.7826,3.7399,3.7077,3.7362,3.6949,3.6681,3.7434,3.7434,3.7327,3.7305,3.8132,3.8922,3.9323,3.9386,3.9496,3.9753,3.9827,4.001,4.0598,4.0671,4.0845,4.123,4.195,4.2416,4.2492,4.3525,4.4197,4.4321,4.4487,4.4535,4.4401,4.429,4.4065,4.3693,4.366,4.366,4.366,4.3563,4.3321,4.2995,4.2995,4.2693,4.4599,4.4805,4.5072,4.5072,4.5329,4.5635,4.5697,4.5852,4.5959,4.5927,4.5974,4.5988,4.5881,4.5451,4.5141,4.5101,4.4356,4.3782,4.3782,4.2498,4.1563,4.1563,4.0593,4.0084,4.0604,4.014,3.9868,4.0138,3.9585,0.0,3.8469,3.843,3.8315,3.8007,3.8007,3.8007,3.8007,3.8007,3.8161,3.843,3.843,3.8584,3.8854,3.8854,3.8785,3.8706,3.8706,3.86,3.843,3.8316,3.8783,3.955,3.9427,3.9605,3.9941,3.9941,3.9731,3.9414,3.9414,3.9249,3.8961,3.8961,3.87,3.8433,3.8433,3.83,3.8171,3.8043,3.8044,3.8043,3.7957,3.7619,3.7251,3.7126,3.7178,3.7413,3.8077,3.8286,3.8435,3.8654,3.9482,4.0384,4.0976,4.1111,4.1111,4.1111,4.1111,4.1222,4.1479,4.1515,4.1625,4.1882,4.2585,4.3033,4.3033,4.3759,4.4299,4.4373,4.4261,4.4184,4.3998,4.3912,4.3726,4.3497,4.3497,4.3391,4.3214,4.3214,4.3069,4.2693,4.2498,4.2062,0.0,0.0,0.0,4.4599,4.4849,4.5142,4.5245,4.5542,4.5776,4.5881,4.587,4.5872,4.5803,4.5802,4.5828,4.5881,4.5138,4.4537,4.4537,4.3728,4.3124,4.3124,4.3124,4.3085,4.3085,4.3085,4.2739,4.1893,4.1854,4.1123,3.9508,3.9392,3.8969,3.8123,3.8084,3.8084,3.8084,3.8084,3.8507,3.9315,3.9315,3.9738,4.0454,4.0454,4.0339,4.01,4.01,3.9792,3.9285,3.8973,3.9338,4.0042,3.9731,3.958,3.9618,3.9595,3.9402,3.9117,3.9154,3.8979,3.8695,3.8731,3.8372,3.7931,3.7931,3.7613,3.7421,3.8086,3.8298,3.8475,3.9176,3.8454,3.7422,3.691,3.684,3.7043,3.7787,3.8322,3.8963,4.0016,4.0238,4.0456,4.1049,4.1185,4.1185,4.1185,4.1185,4.1479,4.2249,4.2323,4.2616,4.3424,4.3497,4.3497,4.3497,4.3497,4.3664,4.3937,4.366,4.3664,4.3967,4.366,4.3497,4.3497,4.3497,4.3214,4.2655,4.2693,4.2655,4.2616,4.2021,4.1464,4.3791,0.0,0.0,0.0,0.0,0.0,4.4773,4.4891,4.5055,4.5283,4.5384,4.5433,4.5323,4.5491,4.5577,4.5358,4.5312,4.5301,4.5301,4.452,4.397,4.397,4.3431,4.3085,4.3085,4.3085,4.3008,0.0,4.2739,4.2547,4.2085,4.147,4.1008,4.0777,4.0123,3.9815,3.9815,3.9815,3.9813,3.987,3.987,3.9853,3.9861,3.9861,3.9819,3.9754,3.9754,3.9646,3.952,3.9435,3.9504,3.9731,3.9664,3.9438,3.9313,3.9885,3.9556,3.898,4.013,3.9808,3.9007,3.9586,3.9408,3.8993,3.8993,3.8876,3.8753,3.8587,3.8494,3.8478,3.8356,3.806,3.7738,3.7631,3.799,3.843,3.8633,3.9219,3.9868,4.043,4.0989,4.1662,4.2662,4.2837,4.2837,4.2837,4.2837,4.291,4.313,4.3167,4.324,4.3461,4.3497,4.3497,4.3497,4.3497,4.3529,4.3631,4.3529,4.3529,4.3631,4.3529,4.3321,4.2957,4.2921,4.2619,4.2021,4.2498,4.2262,4.1385,4.0814,4.0466,4.3571,4.3664,4.3786,4.3786,0.0,0.0,4.4346,4.4499,4.4706,4.4858,4.4957,4.4985,4.4919,4.5033,4.5099,4.4919,4.5055,4.5283,4.5568,4.5163,4.4855,4.4855,4.4432,4.409,4.3943,4.3924,4.3733,4.3232,4.3194,4.3081,4.2851,4.224,4.2011,4.2338,4.1532,4.1208,4.1318,4.1208,4.1033,4.0903,4.0903,4.0586,4.0085,4.0462,4.0352,3.989,4.0265,4.015,3.972,3.972,3.96,3.9364,3.9275,3.9127,3.9044,3.983,3.9718,3.9355,4.0367,4.02,3.9554,3.9799,3.9514,3.9063,3.9063,3.8928,3.8737,3.8769,3.8985,3.9063,3.8526,3.8362,3.8362,3.8362,3.87,3.9073,3.9377,3.9783,4.0314,4.0997,4.1492,4.2185,4.3321,4.3497,4.3497,4.3497,4.3497,4.3497,4.3497,4.3497,4.3497,4.3497,4.3497,4.3497,4.3497,4.3497,4.3497,4.3497,4.3497,4.3391,4.3178,4.3178,4.2884,4.2342,4.2342,4.2021,4.1464,4.1768,4.1464,4.0577,4.0254,4.0087,4.3938,4.3681,4.3608,4.3608,4.38,0.0,4.3937,4.4204,4.4493,4.4546,4.4508,4.4508,4.4508,4.4572,4.4599,4.4546,4.4572,4.4825,4.5457,4.5494,4.5494,4.555,4.5494,4.5381,4.5055,4.5033,4.4615,4.3542,4.3441,4.3226,4.2743,4.238,4.2435,4.3115,4.2405,4.2129,4.246,4.2167,4.1996,4.1945,4.1945,4.1569,4.0867,4.1555,4.1322,4.0448,4.1229,4.0977,4.001,4.001,3.9711,3.9184,3.884,3.8731,3.8847,3.9543,3.9768,3.978,4.0131,4.0199,4.0085,3.9686,3.918,3.8777,3.8777,3.8482,3.8294,3.8937,3.958,3.9918,3.9276,3.9106,3.9106,3.9106,3.9106,3.9276,3.9952,4.0087,4.0417,4.1595,4.181,4.2185,4.3321,4.3497,4.3497,4.3497,4.3497,4.3497,4.3497,4.3497,4.3534,4.3608,4.3608,4.3644,4.3754,4.3754,4.3754,4.3684,4.3684,4.3433,4.2868,4.2829,4.2553,4.1972,4.1886,4.1576,4.1069,4.0896,4.0577,4.0087,4.0155,4.0189,0.0,0.0,0.0,0.0,0.0,0.0,4.3597,4.3664,4.3791,4.4058,4.4117,4.4117,4.4117,4.4373,4.4482,4.4175,4.4373,4.4751,4.5159,4.4966,4.4896,4.518,4.4966,4.4776,4.4726,4.4701,4.46,4.4334,4.4334,4.4285,4.4209,4.3454,4.3114,4.3261,4.2435,4.2046,4.2119,4.2046,4.1893,4.1698,4.1698,4.1452,4.104,4.1188,4.1156,4.0951,4.1098,4.1066,4.0891,4.0891,4.0409,3.9694,3.8977,3.8798,3.9041,3.9222,3.8978,3.8823,4.0135,4.0228,3.9861,4.0443,4.0225,3.9812,3.9812,3.9713,3.9681,3.9817,3.9986,4.0054,3.9884,3.9884,3.9884,3.9884,3.9884,3.9884,4.0054,4.0087,4.0417,4.1595,4.181,4.2185,4.3321,4.3497,4.3497,4.3497,4.3497,4.3497,4.3497,4.3497,4.3754,4.4415,4.4488,4.4745,4.5369,4.5443,4.5223,4.4729,4.469,4.4412,4.374,4.3775,4.3507,4.2936,4.2446,4.2125,4.2022,4.0832,4.0204,4.0087,4.0696,4.1001,0.0,0.0,0.0,4.5296,0.0,0.0,0.0,4.3464,4.3129,4.2923,4.3139,4.3281,4.296,4.3311,4.348,4.2959,4.3065,4.3336,4.3669,4.4233,4.4676,4.4849,4.4701,4.4508,4.4318,4.429,4.4204,4.4065,4.4035,4.4125,4.429,4.3714,4.3577,4.3931,4.3165,4.2827,4.2997,4.2827,4.2656,4.2543,4.2543,4.2263,4.1699,4.2103,4.2103,4.1702,4.1829,4.165,4.125,4.0962,4.0635,4.0203,3.9656,3.912,3.8793,3.9542,3.9672,3.9605,4.0481,4.0558,4.0308,4.0474,4.0319,4.0087,4.0087,4.0087,4.0087,4.0087,4.0087,4.0087,4.0087,4.0087,4.0087,4.0087,4.0087,4.0087,4.0087,4.0087,4.0455,4.1719,4.2203,4.2614,4.3394,4.3497,4.3497,4.3497,4.3828,4.4085,4.4085,4.4452,4.4856,4.5259,4.5296,4.5334,4.5435,4.5472,4.52,4.4507,4.4507,4.4245,4.364,4.3593,4.3305,4.2775,4.2445,4.2286,4.2286,4.1542,4.117,4.1204,4.1576,4.1745,0.0,0.0,0.0,0.0,0.0,4.4818,0.0,0.0,0.0,4.2164,4.2394,4.2562,4.1931,4.2221,4.2342,4.1895,4.181,4.1908,4.2174,4.3266,4.4138,4.4345,4.4299,4.4154,4.4003,4.3923,4.3786,4.3532,4.3497,4.3631,4.3881,4.3664,4.3758,4.4383,4.3823,4.3631,4.3912,4.3664,4.3497,4.3497,4.3428,4.2992,4.2406,4.2958,4.2813,4.2194,4.2443,4.2142,4.1456,4.0978,4.0658,4.0405,4.0149,3.9465,3.8707,3.9834,4.0243,4.0324,4.0504,4.0629,4.0638,4.0254,4.0087,4.0087,4.0087,4.0087,4.0087,4.0087,4.0087,4.0087,4.0087,4.0087,4.0087,4.0087,4.0189,4.029,4.029,4.0392,4.0866,4.2092,4.273,4.3195,4.3688,4.3868,4.3938,4.3938,4.4525,4.4929,4.4929,4.5407,4.5772,4.5955,4.5843,4.5649,4.527,4.5264,4.4971,4.4342,4.4296,4.4012,4.3492,4.3441,4.3271,4.2726,4.2726,4.2726,4.2726,4.2726,4.2591,4.2286,4.2455,4.2489,0.0,0.0,0.0,0.0,4.5585,0.0,0.0,0.0,4.3668,4.2935,0.0,4.2668,4.1917,0.0,0.0,4.181,4.181,4.1775,4.186,4.1991,4.2454,4.3425,4.3175,4.3175,4.3749,4.3651,4.3529,4.3497,4.3497,4.3532,4.3529,4.3532,4.3566,4.3631,4.3529,4.3532,4.3529,4.3532,4.3497,4.3497,4.3032,4.2734,4.2662,4.219,4.1908,4.1837,4.1902,4.1824,4.1753,4.1669,4.0945,3.9842,3.9588,3.9575,3.9554,3.9033,3.8986,3.9166,3.9219,3.9611,4.0154,4.0138,4.0087,4.0087,4.0087,4.0087,4.0087,4.0087,4.0087,4.0087,4.0087,4.0087,4.0087,4.0087,4.0595,4.1068,4.1068,4.1576,4.226,4.2955,4.3103,4.3512,4.4628,4.5257,4.5626,4.5626,4.57,4.5773,4.5773,4.536,4.5373,4.6096,4.563,4.5524,4.6187,4.6258,4.5975,4.5405,4.5354,4.5079,4.4483,4.4427,4.4427,4.4316,4.4316,4.4316,4.4316,4.4316,4.3639,4.232,4.2963,4.3301,0.0,0.0,0.0,0.0,0.0,0.0,4.448,0.0,4.3407,0.0,0.0,0.0,0.0,0.0,0.0,0.0,4.1423,4.1332,4.0884,4.0814,4.1255,4.2341,0.0,0.0,4.2608,4.2562,4.2505,4.2505,4.2846,4.3032,4.3032,4.3321,4.3497,4.3497,4.3497,4.3497,4.3497,4.3178,4.3032,4.3032,4.2462,4.218,4.218,4.1895,4.181,4.1768,4.1429,4.1251,4.1251,4.092,4.05,3.9953,3.9846,3.9628,3.9324,3.9426,3.9555,3.9614,3.9614,3.9817,4.0087,4.0087,4.0087,4.0087,4.0087,4.0087,4.0087,4.0087,4.0087,4.0087,4.0087,4.0392,4.073,4.073,4.1305,4.1847,4.1847,4.2083,4.2528,4.32,4.3597,4.4202,4.5105,4.5027,4.4797,4.4797,4.5198,4.5486,4.5486,4.5666,4.5963,4.6284,4.6092,4.587,4.588,4.5865,4.5648,4.5015,4.5371,4.5704,4.5838,4.5872,4.5872,4.5872,4.5872,4.5872,4.5872,4.5872,4.5534,4.4891,4.435,4.4079,4.7385,0.0,0.0,0.0,0.0,0.0,0.0,0.0,0.0,0.0,0.0,0.0,0.0,0.0,4.1968,4.1289,0.0,4.0933,4.0189,4.0087,4.047,4.1475,4.1955,0.0,0.0,4.2235,4.2094,4.2094,4.2328,4.2422,4.2422,4.2958,4.3286,4.3286,4.3286,4.3286,4.3286,4.2732,4.2422,4.2422,4.1853,4.1516,4.1516,4.142,4.1331,4.1331,4.0874,4.0685,4.0672,4.0254,4.0087,4.0087,4.0087,3.9749,3.9343,3.9884,4.0087,4.0087,4.0087,4.0087,4.0087,4.0087,4.0087,4.0087,4.0087,4.0087,4.0087,4.0087,4.0223,4.0392,4.0392,4.0933,4.1508,4.1508,4.2049,4.2591,4.2591,4.276,4.3098,4.3639,4.4107,4.4613,4.5198,4.4907,4.4657,4.4657,4.5163,4.5623,4.5835,4.6222,4.6548,4.6759,4.6595,4.629,4.5887,4.5834,4.5651,4.5219,4.5703,4.6244,4.6786,4.6786,4.6786,4.6786,4.6786,4.6786,4.6786,4.6786,4.6786,4.6752,4.5669,4.5196,0.0,0.0,0.0,4.5699,0.0,0.0,0.0,0.0,4.4316,0.0,0.0,0.0,0.0,4.2339,4.2068,4.1305,4.1204,0.0,0.0,4.0087,4.0409,4.112,4.2362,4.3332,0.0,4.3289,4.2864,4.2864,4.22,4.1853,4.1853,4.2382,4.2732,4.2732,4.2732,4.2732,4.2732,4.2103,4.1853,4.181,4.1206,4.0932,4.092,4.0368,4.0154,4.0154,4.0104,4.0138,4.0138,4.0138,4.0087,4.0087,4.0087,4.0054,4.0054,4.0054,4.0087,4.0087,4.0087,4.0087,4.0087,4.0087,4.0087,4.0087,4.0087,4.0087,4.0087,4.0087,4.0595,4.117,4.117,4.1711,4.2252,4.2252,4.2828,4.3369,4.3369,4.3978,4.4519,4.4553,4.4609,4.4609,4.4609,4.5562,4.6295,4.6295,4.633,4.6613,4.7426,4.6984,4.688,4.7553,4.717,4.6777,4.6777,4.6777,4.6777,4.6718,4.6752,4.6786,4.6786,4.6786,4.6786,4.6786,4.6786,4.6786,4.6786,4.6786,4.6786,4.6786,4.6752,4.6718,0.0,0.0,4.576,4.5097,0.0,0.0,0.0,0.0,0.0,0.0,0.0,0.0,0.0,0.0,4.2963,4.2726,4.2658,4.2422,0.0,4.1542,4.1813,4.2591,4.2634,4.2467,4.2156,0.0,4.1552,4.1085,4.1152,4.1206,4.1206,4.1768,4.2353,4.281,4.2347,4.2311,4.2846,4.1754,4.1206,4.1206,4.0625,4.0368,4.0368,4.0154,4.0087,4.0087,4.0087,4.0087,4.0087,4.0087,4.0087,4.0087,4.0087,4.0087,4.0087,4.0087,4.0087,4.0087,4.0087,4.0087,4.0087,4.0087,4.0426,4.0832,4.0832,4.117,4.1542,4.1542,4.1711,4.1914,4.1914,4.2489,4.3031,4.3031,4.3639,4.4181,4.4181,4.479,4.5331,4.5331,4.5703,4.6041,4.6041,4.6374,4.6502,4.602,4.6364,4.6777,4.7017,4.6862,4.6851,4.7067,4.6927,4.6786,4.6786,4.6786,4.6989,4.7496,4.753,4.7767,4.824,4.8274,4.8274,4.8274,4.8274,4.8274,4.8274,4.8274,4.8274,4.8274,4.8274,4.7733,4.5494,4.5412,0.0,4.4688,4.4959,0.0,4.4688,0.0,0.0,0.0,0.0,0.0,0.0,0.0,0.0,4.3504,4.3403,4.3166,0.0,4.2523,4.2861,4.3369,4.2997,4.2489,4.2049,4.1745,4.1271,4.0527,4.0554,4.0625,0.0,0.0,4.1859,4.2587,4.2131,4.2236,4.3009,4.167,4.1037,4.1037,4.0356,4.0087,4.0087,4.0087,4.0087,4.0087,4.0087,4.0087,4.0087,4.0087,4.0087,4.0087,4.0087,4.0087,4.0087,4.0087,4.0257,4.0493,4.0493,4.0629,4.0865,4.0865,4.1204,4.1576,4.1576,4.1914,4.2286,4.2286,4.2489,4.276,4.3031,4.3673,4.4282,4.4553,4.4993,4.5365,4.5365,4.5737,4.6075,4.6075,4.6481,4.6786,4.6786,4.7022,4.6955,4.621,4.6481,4.6887,4.7158,4.7192,4.7293,4.7564,4.7564,4.7699,4.7936,4.797,4.8274,4.9052,4.9086,4.9289,4.9763,4.9796,4.9796,4.9796,4.9526,4.939,4.939,4.912,4.9018,4.9018,4.9018,4.8477]}]]